[[{"header":{"parameterUnit":"m.s-1","parameterCategory":1,"la1":31.0,"la2":29.5877,"lo1":-88.7671,"lo2":-86.6584,"dy":0.0162,"dx":0.0185,"nx":115,"ny":88,"refTime":"2023-08-04T18:00:00:Z","depth":0,"parameterNumber":2,"parameterNumberName":"U-component_of_WINDS"},"data":[0.0,0.0,0.0,0.0,0.0,0.0,0.0,0.0,0.0,0.0,0.0,0.0,0.0,0.0,0.0,0.0,0.0,0.0,0.0,0.0,0.0,0.0,0.0,0.0,0.0,0.0,0.0,0.0,0.0,0.0,0.0,0.0,0.0,0.0,0.0,0.0,0.0,0.0,0.0,0.0,0.0,0.0,0.0,0.0,0.0,0.0,0.0,0.0,0.0,0.0,0.0,0.0,0.0,0.0,0.0,0.0,0.0,0.0,0.0,0.0,0.0,0.0,0.0,0.0,0.0,0.0,0.0,0.0,0.0,0.0,0.0,0.0,0.0,0.0,0.0,0.0,0.0,0.0,0.0,0.0,0.0,0.0,0.0,0.0,0.0,0.0,0.0,0.0,0.0,0.0,0.0,0.0,0.0,0.0,0.0,0.0,0.0,0.0,0.0,0.0,0.0,0.0,0.0,0.0,0.0,0.0,0.0,0.0,0.0,0.0,0.0,0.0,0.0,0.0,0.0,0.0,0.0,0.0,0.0,0.0,0.0,0.0,0.0,0.0,0.0,0.0,0.0,0.0,0.0,0.0,0.0,0.0,0.0,0.0,0.0,0.0,0.0,0.0,0.0,0.0,0.0,0.0,0.0,0.0,0.0,0.0,0.0,0.0,0.0,0.0,0.0,0.0,0.0,0.0,0.0,0.0,0.0,0.0,0.0,0.0,0.0,0.0,0.0,0.0,0.0,0.0,0.0,0.0,0.0,0.0,0.0,0.0,0.0,0.0,0.0,0.0,0.0,0.0,0.0,0.0,0.0,0.0,0.0,0.0,0.0,0.0,0.0,0.0,0.0,0.0,0.0,0.0,0.0,0.0,0.0,0.0,0.0,0.0,0.0,0.0,0.0,0.0,0.0,0.0,0.0,0.0,0.0,0.0,0.0,0.0,0.0,0.0,0.0,0.0,0.0,0.0,0.0,0.0,0.0,0.0,0.0,0.0,0.0,0.0,0.0,0.0,0.0,0.0,0.0,0.0,0.0,0.0,0.0,0.0,0.0,0.0,0.0,0.0,0.0,0.0,0.0,0.0,0.0,0.0,0.0,0.0,0.0,0.0,0.0,0.0,0.0,0.0,0.0,0.0,0.0,0.0,0.0,0.0,0.0,0.0,0.0,0.0,0.0,0.0,0.0,0.0,0.0,0.0,0.0,0.0,0.0,0.0,0.0,0.0,0.0,0.0,0.0,0.0,0.0,0.0,0.0,0.0,0.0,0.0,0.0,0.0,0.0,0.0,0.0,0.0,0.0,0.0,0.0,0.0,0.0,0.0,0.0,0.0,0.0,0.0,0.0,0.0,0.0,0.0,0.0,0.0,0.0,0.0,0.0,0.0,0.0,0.0,0.0,0.0,0.0,0.0,0.0,0.0,0.0,0.0,0.0,0.0,0.0,0.0,0.0,0.0,0.0,0.0,0.0,0.0,0.0,0.0,0.0,0.0,0.0,0.0,0.0,0.0,0.0,0.0,0.0,0.0,0.0,0.0,0.0,0.0,0.0,0.0,0.0,0.0,0.0,0.0,0.0,0.0,0.0,0.0,0.0,0.0,0.0,0.0,0.0,0.0,0.0,0.0,0.0,0.0,0.0,0.0,0.0,0.0,0.0,0.0,0.0,0.0,0.0,0.0,0.0,0.0,0.0,0.0,0.0,0.0,0.0,0.0,0.0,0.0,0.0,0.0,0.0,0.0,0.0,0.0,0.0,0.0,0.0,0.0,0.0,0.0,0.0,0.0,0.0,0.0,0.0,0.0,0.0,0.0,0.0,0.0,0.0,0.0,0.0,0.0,0.0,0.0,0.0,0.0,0.0,0.0,0.0,0.0,0.0,0.0,0.0,0.0,0.0,0.0,0.0,0.0,0.0,0.0,0.0,0.0,0.0,0.0,0.0,0.0,0.0,0.0,0.0,0.0,0.0,0.0,0.0,0.0,0.0,0.0,0.0,0.0,0.0,0.0,0.0,0.0,0.0,0.0,0.0,0.0,0.0,0.0,0.0,0.0,0.0,0.0,0.0,0.0,0.0,0.0,0.0,0.0,0.0,0.0,0.0,0.0,0.0,0.0,0.0,0.0,0.0,0.0,0.0,0.0,0.0,0.0,0.0,0.0,0.0,0.0,0.0,0.0,0.0,0.0,0.0,0.0,0.0,0.0,0.0,0.0,0.0,0.0,0.0,0.0,0.0,0.0,0.0,0.0,0.0,0.0,0.0,0.0,0.0,0.0,0.0,0.0,0.0,0.0,0.0,0.0,0.0,0.0,0.0,0.0,0.0,0.0,0.0,0.0,0.0,0.0,0.0,0.0,0.0,0.0,0.0,0.0,0.0,0.0,0.0,0.0,0.0,0.0,0.0,0.0,0.0,0.0,0.0,0.0,0.0,0.0,0.0,0.0,0.0,0.0,0.0,0.0,0.0,0.0,0.0,0.0,0.0,0.0,0.0,0.0,0.0,0.0,0.0,0.0,0.0,0.0,0.0,0.0,0.0,0.0,0.0,0.0,0.0,0.0,0.0,0.0,0.0,0.0,0.0,0.0,0.0,0.0,0.0,0.0,0.0,0.0,0.0,0.0,0.0,0.0,0.0,0.0,0.0,0.0,0.0,0.0,0.0,0.0,0.0,0.0,0.0,0.0,0.0,0.0,0.0,0.0,0.0,0.0,0.0,0.0,0.0,0.0,0.0,0.0,0.0,0.0,0.0,0.0,0.0,0.0,0.0,0.0,0.0,0.0,0.0,0.0,0.0,0.0,0.0,0.0,0.0,0.0,0.0,0.0,0.0,0.0,0.0,0.0,0.0,0.0,0.0,0.0,0.0,0.0,0.0,0.0,0.0,0.0,0.0,0.0,0.0,0.0,0.0,0.0,0.0,0.0,0.0,0.0,0.0,0.0,0.0,0.0,0.0,0.0,0.0,0.0,0.0,0.0,0.0,0.0,0.0,0.0,0.0,0.0,0.0,0.0,0.0,0.0,0.0,0.0,0.0,0.0,0.0,0.0,0.0,0.0,0.0,0.0,0.0,0.0,0.0,0.0,0.0,0.0,0.0,0.0,0.0,0.0,0.0,0.0,0.0,0.0,0.0,0.0,0.0,0.0,0.0,0.0,0.0,0.0,0.0,0.0,0.0,0.0,0.0,0.0,0.0,0.0,0.0,0.0,0.0,0.0,0.0,0.0,0.0,0.0,0.0,0.0,0.0,0.0,0.0,0.0,0.0,0.0,0.0,0.0,0.0,0.0,0.0,0.0,0.0,0.0,0.0,0.0,0.0,0.0,0.0,0.0,0.0,0.0,0.0,0.0,0.0,0.0,0.0,0.0,0.0,0.0,0.0,0.0,0.0,0.0,0.0,0.0,0.0,0.0,0.0,0.0,0.0,0.0,0.0,0.0,0.0,0.0,0.0,0.0,0.0,0.0,0.0,0.0,0.0,0.0,0.0,0.0,0.0,0.0,0.0,0.0,0.0,0.0,0.0,0.0,0.0,0.0,0.0,0.0,0.0,0.0,0.0,0.0,0.0,0.0,0.0,0.0,0.0,0.0,0.0,0.0,0.0,0.0,0.0,0.0,0.0,0.0,0.0,0.0,0.0,0.0,0.0,0.0,0.0,0.0,0.0,0.0,0.0,0.0,0.0,0.0,0.0,0.0,0.0,0.0,0.0,0.0,0.0,0.0,0.0,0.0,0.0,0.0,0.0,0.0,0.0,0.0,0.0,0.0,0.0,0.0,0.0,0.0,0.0,0.0,0.0,0.0,0.0,0.0,0.0,0.0,0.0,0.0,0.0,0.0,0.0,0.0,0.0,0.0,0.0,0.0,0.0,0.0,0.0,0.0,0.0,0.0,0.0,0.0,0.0,0.0,0.0,0.0,0.0,0.0,0.0,0.0,0.0,0.0,0.0,0.0,0.0,0.0,0.0,0.0,0.0,0.0,0.0,0.0,0.0,0.0,0.0,0.0,0.0,0.0,0.0,0.0,0.0,0.0,0.0,0.0,0.0,0.0,0.0,0.0,0.0,0.0,0.0,0.0,0.0,0.0,0.0,0.0,0.0,0.0,0.0,0.0,0.0,0.0,0.0,0.0,0.0,0.0,0.0,0.0,0.0,0.0,0.0,0.0,0.0,0.0,0.0,0.0,0.0,0.0,0.0,0.0,0.0,0.0,0.0,0.0,0.0,0.0,0.0,0.0,0.0,0.0,0.0,0.0,0.0,0.0,0.0,0.0,0.0,0.0,0.0,0.0,0.0,0.0,-2.2168,0.0,0.0,0.0,0.0,0.0,0.0,0.0,0.0,0.0,0.0,0.0,0.0,0.0,0.0,0.0,0.0,0.0,0.0,0.0,0.0,0.0,0.0,0.0,0.0,0.0,0.0,0.0,0.0,0.0,0.0,0.0,0.0,0.0,0.0,0.0,0.0,0.0,0.0,0.0,0.0,0.0,0.0,0.0,0.0,0.0,0.0,0.0,0.0,0.0,0.0,0.0,0.0,0.0,0.0,0.0,0.0,0.0,0.0,0.0,0.0,0.0,0.0,0.0,0.0,0.0,0.0,0.0,0.0,0.0,0.0,0.0,0.0,0.0,0.0,0.0,0.0,0.0,0.0,0.0,0.0,0.0,0.0,0.0,0.0,0.0,0.0,0.0,0.0,0.0,0.0,0.0,0.0,0.0,0.0,0.0,0.0,0.0,0.0,0.0,0.0,0.0,0.0,0.0,0.0,0.0,0.0,0.0,0.0,0.0,0.0,-2.701,-2.7993,-2.7675,-2.6953,-2.5706,0.0,0.0,0.0,0.0,0.0,0.0,0.0,0.0,0.0,0.0,0.0,0.0,0.0,0.0,0.0,0.0,0.0,0.0,0.0,0.0,0.0,0.0,0.0,0.0,0.0,0.0,0.0,0.0,0.0,0.0,0.0,0.0,0.0,0.0,0.0,0.0,0.0,0.0,0.0,0.0,0.0,0.0,0.0,0.0,0.0,0.0,0.0,0.0,0.0,0.0,0.0,0.0,0.0,0.0,0.0,0.0,0.0,0.0,0.0,0.0,0.0,0.0,0.0,0.0,0.0,0.0,0.0,0.0,0.0,0.0,0.0,0.0,0.0,0.0,0.0,0.0,0.0,0.0,0.0,0.0,0.0,0.0,0.0,0.0,0.0,0.0,0.0,0.0,0.0,0.0,0.0,0.0,0.0,0.0,0.0,0.0,0.0,0.0,0.0,0.0,0.0,0.0,0.0,0.0,0.0,0.0,0.0,0.0,0.0,0.0,0.0,0.0,-3.0814,-2.977,-2.8189,0.0,0.0,0.0,0.0,0.0,0.0,0.0,0.0,0.0,0.0,0.0,0.0,0.0,0.0,0.0,0.0,0.0,0.0,0.0,0.0,0.0,0.0,0.0,0.0,0.0,0.0,0.0,0.0,0.0,0.0,0.0,0.0,0.0,0.0,0.0,0.0,0.0,0.0,0.0,0.0,0.0,0.0,0.0,0.0,0.0,0.0,0.0,0.0,0.0,0.0,0.0,0.0,0.0,0.0,0.0,0.0,0.0,0.0,0.0,0.0,0.0,0.0,0.0,0.0,0.0,0.0,0.0,0.0,0.0,0.0,0.0,0.0,0.0,0.0,0.0,0.0,0.0,0.0,0.0,0.0,0.0,0.0,0.0,0.0,0.0,0.0,0.0,0.0,0.0,0.0,0.0,0.0,0.0,0.0,0.0,0.0,0.0,0.0,0.0,0.0,0.0,0.0,0.0,0.0,0.0,0.0,0.0,0.0,0.0,0.0,-3.2442,-3.2272,-3.1758,0.0,-2.8251,0.0,0.0,0.0,0.0,0.0,0.0,0.0,0.0,0.0,0.0,0.0,0.0,0.0,0.0,0.0,0.0,0.0,0.0,0.0,0.0,0.0,0.0,0.0,0.0,0.0,0.0,0.0,0.0,0.0,0.0,0.0,0.0,0.0,0.0,0.0,0.0,0.0,0.0,0.0,0.0,0.0,0.0,0.0,0.0,0.0,0.0,0.0,0.0,0.0,0.0,0.0,0.0,0.0,0.0,0.0,0.0,0.0,0.0,0.0,0.0,0.0,0.0,0.0,0.0,0.0,0.0,0.0,0.0,0.0,0.0,0.0,0.0,0.0,0.0,0.0,0.0,0.0,0.0,0.0,0.0,0.0,0.0,0.0,0.0,0.0,0.0,0.0,0.0,0.0,0.0,0.0,0.0,0.0,0.0,0.0,0.0,0.0,0.0,0.0,0.0,0.0,0.0,0.0,0.0,0.0,0.0,0.0,0.0,0.0,0.0,-3.4244,-3.4482,-3.3291,-3.1644,0.0,0.0,0.0,0.0,0.0,0.0,0.0,0.0,0.0,0.0,0.0,0.0,0.0,0.0,0.0,0.0,0.0,0.0,0.0,0.0,0.0,0.0,0.0,0.0,0.0,0.0,0.0,0.0,0.0,0.0,0.0,0.0,0.0,0.0,0.0,0.0,0.0,0.0,0.0,0.0,0.0,0.0,0.0,0.0,0.0,0.0,0.0,0.0,0.0,0.0,0.0,0.0,0.0,0.0,0.0,0.0,0.0,0.0,0.0,0.0,0.0,0.0,0.0,0.0,0.0,0.0,0.0,0.0,0.0,0.0,0.0,0.0,0.0,0.0,0.0,0.0,0.0,0.0,0.0,0.0,0.0,0.0,0.0,0.0,0.0,0.0,0.0,0.0,0.0,0.0,0.0,0.0,0.0,0.0,0.0,0.0,0.0,0.0,0.0,0.0,0.0,0.0,0.0,0.0,0.0,0.0,0.0,0.0,0.0,0.0,-3.5092,-3.6091,-3.618,-3.4791,-3.3019,-3.0951,0.0,0.0,0.0,0.0,0.0,0.0,0.0,0.0,0.0,0.0,0.0,0.0,0.0,0.0,0.0,0.0,0.0,0.0,0.0,0.0,0.0,0.0,0.0,0.0,0.0,0.0,0.0,0.0,0.0,0.0,0.0,0.0,0.0,0.0,0.0,0.0,0.0,0.0,0.0,0.0,0.0,0.0,0.0,0.0,0.0,0.0,0.0,0.0,0.0,0.0,0.0,0.0,0.0,0.0,0.0,0.0,0.0,0.0,0.0,0.0,0.0,0.0,0.0,0.0,0.0,0.0,0.0,0.0,0.0,0.0,0.0,0.0,0.0,0.0,0.0,0.0,0.0,0.0,0.0,0.0,0.0,0.0,0.0,0.0,0.0,0.0,0.0,0.0,0.0,0.0,0.0,0.0,0.0,0.0,0.0,0.0,0.0,0.0,0.0,0.0,0.0,0.0,0.0,0.0,0.0,0.0,0.0,0.0,-3.4801,-3.7142,-3.7993,-3.7082,-3.6097,-3.4554,0.0,0.0,0.0,0.0,0.0,0.0,0.0,0.0,0.0,0.0,0.0,0.0,0.0,0.0,0.0,0.0,0.0,0.0,0.0,0.0,0.0,0.0,0.0,0.0,0.0,0.0,0.0,0.0,0.0,0.0,0.0,0.0,0.0,0.0,0.0,0.0,0.0,0.0,0.0,0.0,0.0,0.0,0.0,0.0,0.0,0.0,0.0,0.0,0.0,0.0,0.0,0.0,0.0,0.0,0.0,0.0,0.0,0.0,0.0,0.0,0.0,0.0,0.0,0.0,0.0,0.0,0.0,0.0,0.0,0.0,0.0,0.0,0.0,0.0,0.0,0.0,0.0,0.0,0.0,0.0,0.0,0.0,0.0,0.0,0.0,0.0,0.0,0.0,0.0,0.0,0.0,0.0,0.0,0.0,0.0,0.0,0.0,0.0,0.0,0.0,0.0,0.0,0.0,0.0,0.0,0.0,0.0,0.0,0.0,-3.4706,-3.7416,-3.8496,-3.7701,-3.6797,-3.5267,0.0,0.0,0.0,0.0,0.0,0.0,0.0,0.0,0.0,0.0,0.0,0.0,0.0,0.0,0.0,0.0,0.0,0.0,0.0,0.0,0.0,0.0,0.0,0.0,0.0,0.0,0.0,0.0,0.0,0.0,0.0,0.0,0.0,0.0,0.0,0.0,0.0,0.0,0.0,0.0,0.0,0.0,0.0,0.0,0.0,0.0,0.0,0.0,0.0,0.0,0.0,0.0,0.0,0.0,0.0,0.0,0.0,0.0,0.0,0.0,0.0,0.0,0.0,0.0,0.0,0.0,0.0,0.0,0.0,0.0,0.0,0.0,0.0,0.0,0.0,0.0,0.0,0.0,0.0,0.0,0.0,0.0,0.0,0.0,0.0,0.0,0.0,0.0,0.0,0.0,0.0,0.0,0.0,0.0,0.0,0.0,0.0,0.0,0.0,0.0,0.0,0.0,0.0,0.0,0.0,0.0,0.0,0.0,0.0,-3.6656,0.0,-3.9842,-3.9171,-3.8069,-3.6426,0.0,0.0,0.0,0.0,0.0,0.0,0.0,0.0,0.0,0.0,0.0,0.0,0.0,0.0,0.0,0.0,0.0,0.0,0.0,0.0,0.0,0.0,0.0,0.0,0.0,0.0,0.0,0.0,0.0,0.0,0.0,0.0,0.0,0.0,0.0,0.0,0.0,0.0,0.0,0.0,0.0,0.0,0.0,0.0,0.0,0.0,0.0,0.0,0.0,0.0,0.0,0.0,0.0,0.0,0.0,0.0,0.0,0.0,0.0,0.0,0.0,0.0,0.0,0.0,0.0,0.0,0.0,0.0,0.0,0.0,0.0,0.0,0.0,0.0,0.0,0.0,0.0,0.0,0.0,0.0,0.0,0.0,0.0,0.0,0.0,0.0,0.0,0.0,0.0,0.0,0.0,0.0,0.0,0.0,0.0,0.0,0.0,0.0,0.0,0.0,0.0,0.0,0.0,0.0,0.0,0.0,0.0,0.0,-3.5634,-4.0985,-4.2013,-4.2191,-4.1687,-3.9949,-3.8061,0.0,0.0,0.0,0.0,0.0,0.0,0.0,0.0,0.0,0.0,0.0,0.0,0.0,0.0,0.0,0.0,0.0,0.0,0.0,0.0,0.0,0.0,0.0,0.0,0.0,0.0,0.0,0.0,0.0,0.0,0.0,0.0,0.0,0.0,0.0,0.0,0.0,0.0,0.0,0.0,0.0,0.0,0.0,0.0,0.0,0.0,0.0,0.0,0.0,0.0,0.0,0.0,0.0,0.0,0.0,0.0,0.0,0.0,0.0,0.0,0.0,0.0,0.0,0.0,0.0,0.0,0.0,0.0,0.0,0.0,0.0,0.0,0.0,0.0,0.0,0.0,0.0,0.0,0.0,0.0,0.0,0.0,0.0,0.0,0.0,0.0,0.0,0.0,0.0,0.0,0.0,0.0,0.0,0.0,0.0,0.0,0.0,0.0,0.0,0.0,0.0,0.0,0.0,0.0,0.0,0.0,0.0,0.0,0.0,-4.2558,-4.3319,-4.3447,-4.2965,-4.1243,-3.9013,0.0,0.0,0.0,0.0,0.0,0.0,0.0,0.0,0.0,0.0,0.0,0.0,0.0,0.0,0.0,0.0,0.0,0.0,0.0,0.0,0.0,0.0,0.0,0.0,0.0,0.0,0.0,0.0,0.0,0.0,0.0,0.0,0.0,0.0,0.0,0.0,0.0,0.0,0.0,0.0,0.0,0.0,0.0,0.0,0.0,0.0,0.0,0.0,0.0,0.0,0.0,0.0,0.0,0.0,0.0,0.0,0.0,0.0,0.0,0.0,0.0,0.0,0.0,0.0,0.0,0.0,0.0,0.0,0.0,0.0,0.0,0.0,0.0,0.0,0.0,0.0,0.0,0.0,0.0,0.0,0.0,0.0,0.0,0.0,0.0,0.0,0.0,0.0,0.0,0.0,0.0,0.0,0.0,0.0,0.0,0.0,0.0,0.0,0.0,0.0,0.0,0.0,0.0,0.0,0.0,0.0,0.0,0.0,0.0,-4.4833,-4.5517,-4.5637,-4.5217,-4.3123,-4.0607,-3.7672,0.0,0.0,0.0,0.0,0.0,0.0,0.0,0.0,0.0,0.0,0.0,0.0,0.0,0.0,0.0,0.0,0.0,0.0,0.0,0.0,0.0,0.0,0.0,0.0,0.0,0.0,0.0,0.0,0.0,0.0,0.0,0.0,0.0,0.0,0.0,0.0,0.0,0.0,0.0,0.0,0.0,0.0,0.0,0.0,0.0,0.0,0.0,0.0,0.0,0.0,0.0,0.0,0.0,0.0,0.0,0.0,0.0,0.0,0.0,0.0,0.0,0.0,0.0,0.0,0.0,0.0,0.0,0.0,0.0,0.0,0.0,0.0,0.0,0.0,0.0,0.0,0.0,0.0,0.0,0.0,0.0,0.0,0.0,0.0,0.0,0.0,0.0,0.0,0.0,0.0,0.0,0.0,0.0,0.0,0.0,0.0,0.0,0.0,0.0,0.0,0.0,0.0,0.0,0.0,0.0,0.0,0.0,0.0,-4.7774,-4.8574,-4.8636,-4.7928,-4.5369,-4.2553,0.0,0.0,0.0,0.0,0.0,0.0,0.0,0.0,0.0,0.0,0.0,0.0,0.0,0.0,0.0,0.0,0.0,0.0,0.0,0.0,0.0,0.0,0.0,0.0,0.0,0.0,0.0,0.0,0.0,0.0,0.0,0.0,0.0,0.0,0.0,0.0,0.0,0.0,0.0,0.0,0.0,0.0,0.0,0.0,0.0,0.0,0.0,0.0,0.0,0.0,0.0,0.0,0.0,0.0,0.0,0.0,0.0,0.0,0.0,0.0,0.0,0.0,0.0,0.0,0.0,0.0,0.0,0.0,0.0,0.0,0.0,0.0,0.0,0.0,0.0,0.0,0.0,0.0,0.0,0.0,0.0,0.0,0.0,0.0,0.0,0.0,0.0,0.0,0.0,0.0,0.0,0.0,0.0,0.0,0.0,0.0,0.0,0.0,0.0,0.0,0.0,0.0,0.0,0.0,0.0,0.0,0.0,0.0,0.0,-4.9382,-5.2075,-5.2058,-4.9074,-4.6426,-4.3274,0.0,0.0,0.0,0.0,0.0,0.0,0.0,0.0,0.0,0.0,0.0,0.0,0.0,0.0,0.0,0.0,0.0,0.0,0.0,0.0,0.0,0.0,0.0,0.0,0.0,0.0,0.0,0.0,0.0,0.0,0.0,0.0,0.0,0.0,0.0,0.0,0.0,0.0,0.0,0.0,0.0,0.0,0.0,0.0,0.0,0.0,0.0,0.0,0.0,0.0,0.0,0.0,0.0,0.0,0.0,0.0,0.0,0.0,0.0,0.0,0.0,0.0,0.0,0.0,0.0,0.0,0.0,0.0,0.0,0.0,0.0,0.0,0.0,0.0,0.0,0.0,0.0,0.0,0.0,0.0,0.0,0.0,0.0,0.0,0.0,0.0,0.0,0.0,0.0,0.0,0.0,0.0,0.0,0.0,0.0,0.0,0.0,0.0,0.0,0.0,0.0,0.0,0.0,0.0,0.0,0.0,0.0,0.0,-4.6833,-5.0563,-5.3244,-5.3414,-5.091,-4.8623,-4.5227,0.0,0.0,0.0,0.0,0.0,0.0,0.0,0.0,0.0,0.0,0.0,0.0,0.0,0.0,0.0,0.0,0.0,0.0,0.0,0.0,0.0,0.0,0.0,0.0,0.0,0.0,0.0,0.0,0.0,0.0,0.0,0.0,0.0,0.0,0.0,0.0,0.0,0.0,0.0,0.0,0.0,0.0,0.0,0.0,0.0,0.0,0.0,0.0,0.0,0.0,0.0,0.0,0.0,0.0,0.0,0.0,0.0,0.0,0.0,0.0,0.0,0.0,0.0,0.0,0.0,0.0,0.0,0.0,0.0,0.0,0.0,0.0,0.0,0.0,0.0,0.0,0.0,0.0,0.0,0.0,0.0,0.0,0.0,0.0,0.0,0.0,0.0,0.0,0.0,0.0,0.0,0.0,0.0,0.0,0.0,0.0,0.0,0.0,0.0,0.0,0.0,0.0,0.0,0.0,0.0,0.0,0.0,0.0,-4.7678,-5.1421,-5.3153,-5.3754,-5.308,-5.1097,-4.7497,0.0,0.0,0.0,0.0,0.0,0.0,0.0,0.0,0.0,0.0,0.0,0.0,0.0,0.0,0.0,0.0,0.0,0.0,0.0,0.0,0.0,0.0,0.0,0.0,0.0,0.0,0.0,0.0,0.0,0.0,0.0,0.0,0.0,0.0,0.0,0.0,0.0,0.0,0.0,0.0,0.0,0.0,0.0,0.0,0.0,0.0,0.0,0.0,0.0,0.0,0.0,0.0,0.0,0.0,0.0,0.0,0.0,0.0,0.0,0.0,0.0,0.0,0.0,0.0,0.0,0.0,0.0,0.0,0.0,0.0,0.0,0.0,0.0,0.0,0.0,0.0,0.0,0.0,0.0,0.0,0.0,0.0,0.0,0.0,0.0,0.0,0.0,0.0,0.0,0.0,0.0,0.0,0.0,0.0,0.0,0.0,0.0,0.0,0.0,0.0,0.0,0.0,0.0,0.0,0.0,0.0,0.0,0.0,-4.8419,-5.2011,-5.4303,-5.5155,-5.4485,-5.1011,-4.7165,0.0,0.0,0.0,0.0,0.0,0.0,0.0,0.0,0.0,0.0,0.0,0.0,0.0,0.0,0.0,0.0,0.0,0.0,0.0,0.0,0.0,0.0,0.0,0.0,0.0,0.0,0.0,0.0,0.0,0.0,0.0,0.0,0.0,0.0,0.0,0.0,0.0,0.0,0.0,0.0,0.0,0.0,0.0,0.0,0.0,0.0,0.0,0.0,-3.2529,0.0,0.0,0.0,0.0,0.0,0.0,0.0,0.0,0.0,0.0,0.0,0.0,0.0,0.0,0.0,0.0,0.0,0.0,0.0,0.0,0.0,0.0,0.0,0.0,0.0,0.0,0.0,0.0,0.0,0.0,0.0,0.0,0.0,0.0,0.0,0.0,0.0,0.0,0.0,0.0,0.0,0.0,0.0,0.0,0.0,0.0,0.0,0.0,0.0,0.0,0.0,0.0,0.0,0.0,0.0,0.0,0.0,0.0,0.0,-4.813,-5.2032,-5.3736,-5.4453,-5.4086,-5.0903,-4.7357,0.0,0.0,0.0,0.0,0.0,0.0,0.0,0.0,0.0,0.0,0.0,0.0,0.0,0.0,0.0,0.0,0.0,0.0,0.0,0.0,0.0,0.0,0.0,0.0,0.0,0.0,0.0,0.0,0.0,0.0,0.0,0.0,0.0,0.0,0.0,0.0,0.0,0.0,0.0,0.0,0.0,0.0,0.0,0.0,0.0,0.0,0.0,0.0,0.0,0.0,0.0,0.0,0.0,0.0,0.0,0.0,0.0,0.0,0.0,0.0,0.0,0.0,0.0,0.0,0.0,0.0,0.0,0.0,0.0,0.0,0.0,0.0,0.0,0.0,0.0,0.0,0.0,0.0,0.0,0.0,0.0,0.0,0.0,0.0,0.0,0.0,0.0,0.0,0.0,0.0,0.0,0.0,0.0,0.0,0.0,0.0,0.0,0.0,0.0,0.0,0.0,0.0,0.0,0.0,0.0,0.0,0.0,-4.4119,-4.7411,-5.1531,-5.2573,-5.2992,-5.2902,-5.0578,-4.7493,-4.3752,0.0,0.0,0.0,0.0,0.0,0.0,0.0,0.0,0.0,0.0,0.0,0.0,0.0,0.0,0.0,0.0,0.0,0.0,0.0,0.0,0.0,0.0,0.0,0.0,0.0,0.0,0.0,0.0,0.0,0.0,0.0,0.0,0.0,0.0,0.0,0.0,0.0,0.0,-2.5853,-3.1696,0.0,0.0,0.0,0.0,0.0,0.0,0.0,0.0,-3.8154,0.0,0.0,0.0,0.0,0.0,0.0,0.0,0.0,0.0,0.0,0.0,0.0,0.0,0.0,0.0,0.0,0.0,0.0,0.0,0.0,0.0,0.0,0.0,0.0,0.0,0.0,0.0,0.0,0.0,0.0,0.0,0.0,0.0,0.0,0.0,0.0,0.0,0.0,0.0,0.0,0.0,0.0,0.0,0.0,0.0,0.0,0.0,0.0,0.0,0.0,0.0,0.0,0.0,0.0,0.0,0.0,-4.1542,-4.3873,-4.6847,-5.0471,-5.1842,-5.1987,-5.0931,-4.9593,-4.6835,-4.2584,0.0,0.0,0.0,0.0,0.0,0.0,0.0,0.0,0.0,0.0,0.0,0.0,0.0,0.0,0.0,0.0,0.0,0.0,0.0,0.0,0.0,0.0,0.0,0.0,0.0,0.0,0.0,0.0,0.0,0.0,0.0,0.0,0.0,0.0,0.0,0.0,0.0,0.0,0.0,-3.6133,-3.9251,0.0,0.0,0.0,0.0,0.0,0.0,0.0,0.0,-3.8785,0.0,0.0,0.0,0.0,0.0,0.0,0.0,0.0,0.0,0.0,0.0,0.0,0.0,0.0,0.0,0.0,0.0,0.0,0.0,0.0,0.0,0.0,0.0,0.0,0.0,0.0,0.0,0.0,0.0,0.0,0.0,0.0,0.0,0.0,0.0,0.0,0.0,0.0,0.0,0.0,0.0,0.0,0.0,0.0,0.0,0.0,0.0,0.0,0.0,0.0,0.0,0.0,0.0,0.0,0.0,-4.0185,-4.2894,-4.5925,-4.9392,-5.0341,-5.0597,-5.0076,-4.8259,-4.551,0.0,0.0,0.0,0.0,0.0,0.0,0.0,0.0,0.0,0.0,0.0,0.0,0.0,0.0,0.0,0.0,0.0,0.0,0.0,0.0,0.0,0.0,0.0,0.0,0.0,0.0,0.0,0.0,0.0,0.0,0.0,0.0,0.0,0.0,0.0,0.0,0.0,0.0,0.0,0.0,-3.8354,-4.1499,-4.3304,0.0,0.0,0.0,0.0,0.0,0.0,-4.2173,-4.1205,0.0,0.0,0.0,0.0,0.0,0.0,0.0,0.0,0.0,0.0,0.0,0.0,0.0,0.0,0.0,0.0,0.0,0.0,0.0,0.0,0.0,0.0,0.0,0.0,0.0,0.0,0.0,0.0,0.0,0.0,0.0,0.0,0.0,0.0,0.0,0.0,0.0,0.0,0.0,0.0,0.0,0.0,0.0,0.0,0.0,0.0,0.0,0.0,0.0,0.0,0.0,0.0,0.0,0.0,0.0,-3.9012,-4.1937,-4.5037,-4.8255,-4.8888,-4.9059,-4.8875,-4.6755,-4.413,0.0,0.0,0.0,0.0,0.0,0.0,0.0,0.0,0.0,0.0,0.0,0.0,0.0,0.0,0.0,0.0,0.0,0.0,0.0,0.0,0.0,0.0,0.0,0.0,0.0,0.0,0.0,0.0,0.0,0.0,0.0,0.0,0.0,0.0,0.0,0.0,0.0,0.0,0.0,0.0,0.0,-4.3585,-4.5445,-4.6453,0.0,0.0,0.0,0.0,-4.5122,-4.4798,0.0,0.0,0.0,0.0,0.0,0.0,0.0,0.0,0.0,0.0,0.0,0.0,0.0,0.0,0.0,0.0,0.0,0.0,0.0,0.0,0.0,0.0,0.0,0.0,0.0,0.0,0.0,0.0,0.0,0.0,0.0,0.0,0.0,0.0,0.0,0.0,0.0,0.0,0.0,0.0,0.0,0.0,0.0,0.0,0.0,0.0,0.0,0.0,0.0,0.0,0.0,0.0,0.0,0.0,0.0,0.0,-3.896,-4.1742,-4.4437,-4.7018,-4.8085,-4.7752,-4.5968,-4.537,-4.2921,0.0,0.0,0.0,0.0,0.0,0.0,0.0,0.0,0.0,0.0,0.0,0.0,0.0,0.0,0.0,0.0,0.0,0.0,0.0,0.0,0.0,0.0,0.0,0.0,0.0,0.0,0.0,0.0,0.0,0.0,0.0,0.0,0.0,0.0,0.0,0.0,0.0,0.0,0.0,0.0,0.0,-4.6314,-4.9508,-4.9976,-4.987,0.0,0.0,-4.7356,-4.7736,-4.6486,0.0,0.0,0.0,0.0,0.0,0.0,0.0,0.0,0.0,0.0,0.0,0.0,0.0,0.0,0.0,0.0,0.0,0.0,0.0,0.0,0.0,0.0,0.0,0.0,0.0,0.0,0.0,0.0,0.0,0.0,0.0,0.0,0.0,0.0,0.0,0.0,0.0,0.0,0.0,0.0,0.0,0.0,0.0,0.0,0.0,0.0,0.0,0.0,0.0,0.0,0.0,0.0,0.0,0.0,0.0,-3.5314,-3.8833,-4.1106,-4.3447,-4.583,-4.646,-4.6187,-4.5027,-4.3443,-4.0987,0.0,0.0,0.0,0.0,0.0,0.0,0.0,0.0,0.0,0.0,0.0,0.0,0.0,0.0,0.0,0.0,0.0,0.0,0.0,0.0,0.0,0.0,0.0,0.0,0.0,0.0,0.0,0.0,0.0,0.0,0.0,0.0,0.0,0.0,0.0,0.0,0.0,0.0,0.0,0.0,0.0,0.0,-5.0421,-5.1569,0.0,0.0,0.0,-4.9311,-4.8944,0.0,0.0,0.0,0.0,0.0,0.0,0.0,0.0,0.0,0.0,0.0,0.0,0.0,0.0,0.0,0.0,0.0,0.0,0.0,0.0,0.0,0.0,0.0,0.0,0.0,0.0,0.0,0.0,0.0,0.0,0.0,0.0,0.0,0.0,0.0,0.0,0.0,0.0,0.0,0.0,0.0,0.0,0.0,0.0,0.0,0.0,0.0,0.0,0.0,0.0,0.0,0.0,0.0,0.0,0.0,0.0,0.0,-3.861,-4.054,-4.2526,-4.4674,-4.4876,-4.4641,-4.393,-4.156,0.0,0.0,0.0,0.0,0.0,0.0,0.0,0.0,0.0,0.0,0.0,0.0,0.0,0.0,0.0,0.0,0.0,0.0,0.0,0.0,0.0,0.0,0.0,0.0,0.0,0.0,0.0,-2.227,0.0,0.0,0.0,0.0,0.0,0.0,0.0,0.0,0.0,0.0,0.0,0.0,0.0,0.0,-4.7662,-5.085,-5.2742,-5.3403,0.0,0.0,-5.0845,-4.9512,-4.8471,-4.6668,0.0,0.0,0.0,0.0,0.0,0.0,0.0,0.0,0.0,0.0,0.0,0.0,0.0,0.0,0.0,0.0,0.0,0.0,0.0,0.0,0.0,0.0,0.0,0.0,0.0,0.0,0.0,0.0,0.0,0.0,0.0,0.0,0.0,0.0,0.0,0.0,0.0,0.0,0.0,0.0,0.0,0.0,0.0,0.0,0.0,0.0,0.0,0.0,0.0,0.0,0.0,0.0,0.0,0.0,-3.5088,-3.8284,-4.0192,-4.1899,-4.3471,-4.361,-4.3048,-4.1848,-3.9974,-3.7987,0.0,0.0,0.0,0.0,0.0,0.0,0.0,0.0,0.0,0.0,0.0,0.0,0.0,0.0,0.0,0.0,0.0,0.0,0.0,0.0,0.0,0.0,0.0,0.0,0.0,0.0,0.0,0.0,0.0,0.0,0.0,0.0,0.0,0.0,0.0,0.0,0.0,0.0,0.0,0.0,0.0,-4.8812,-5.1674,-5.3616,-5.4375,0.0,-5.2708,-5.1856,-4.965,-4.8368,-4.6432,-4.2811,0.0,0.0,0.0,0.0,0.0,0.0,0.0,0.0,0.0,0.0,0.0,0.0,0.0,0.0,0.0,0.0,0.0,0.0,0.0,0.0,0.0,0.0,0.0,0.0,0.0,0.0,0.0,0.0,0.0,0.0,0.0,0.0,0.0,0.0,0.0,0.0,0.0,0.0,0.0,0.0,0.0,0.0,0.0,0.0,0.0,0.0,0.0,0.0,0.0,0.0,0.0,0.0,0.0,-3.5607,-3.8625,-3.9564,-4.0954,-4.2722,-4.2471,-4.1918,-4.1101,-3.8908,-3.683,0.0,0.0,0.0,0.0,0.0,0.0,0.0,0.0,0.0,0.0,0.0,0.0,0.0,0.0,0.0,0.0,0.0,0.0,0.0,0.0,0.0,0.0,0.0,0.0,0.0,0.0,0.0,0.0,-2.5832,-2.7043,-2.8228,0.0,0.0,0.0,0.0,0.0,0.0,0.0,0.0,0.0,0.0,-4.8296,-5.1009,-5.2746,0.0,0.0,-5.1757,-5.1041,-4.9316,-4.7863,-4.6064,-4.3253,-3.9834,0.0,0.0,0.0,0.0,0.0,0.0,0.0,0.0,0.0,0.0,0.0,0.0,0.0,0.0,0.0,0.0,0.0,0.0,0.0,0.0,0.0,0.0,0.0,0.0,0.0,0.0,0.0,0.0,0.0,0.0,0.0,0.0,0.0,0.0,0.0,0.0,0.0,0.0,0.0,0.0,0.0,0.0,0.0,0.0,0.0,0.0,0.0,0.0,0.0,0.0,0.0,0.0,-3.6154,-3.8997,-3.9269,-4.0201,-4.1829,-4.1218,-4.056,-3.9781,-3.7588,-3.5751,0.0,0.0,0.0,0.0,0.0,0.0,0.0,0.0,0.0,0.0,0.0,0.0,0.0,0.0,0.0,0.0,0.0,0.0,0.0,0.0,0.0,0.0,0.0,0.0,0.0,0.0,0.0,0.0,-2.6831,-2.8195,-2.944,0.0,0.0,0.0,0.0,0.0,0.0,0.0,0.0,0.0,0.0,-4.8048,-5.0317,-5.1741,-5.2124,-5.1037,-5.0782,-5.0171,-4.8581,-4.702,-4.5242,-4.3082,0.0,0.0,0.0,0.0,0.0,0.0,0.0,0.0,0.0,0.0,0.0,0.0,0.0,0.0,0.0,0.0,0.0,0.0,0.0,0.0,0.0,0.0,0.0,0.0,0.0,0.0,0.0,-3.8186,0.0,0.0,-3.3587,0.0,0.0,0.0,0.0,0.0,0.0,0.0,0.0,0.0,0.0,0.0,0.0,0.0,0.0,0.0,0.0,0.0,0.0,0.0,0.0,0.0,0.0,-3.6595,-3.9221,-3.9397,-3.9791,-4.04,-3.98,-3.8825,-3.7633,-3.6047,-3.471,-3.3501,0.0,0.0,0.0,0.0,0.0,0.0,0.0,0.0,0.0,0.0,0.0,0.0,0.0,0.0,0.0,0.0,0.0,0.0,0.0,0.0,0.0,0.0,0.0,0.0,0.0,0.0,-2.7316,-2.8649,-2.9508,0.0,0.0,0.0,0.0,0.0,0.0,0.0,0.0,0.0,-4.2394,-4.574,-4.8464,-4.9742,-5.0775,-5.1022,-5.0133,-5.0018,-4.9307,-4.7227,-4.5683,-4.4033,0.0,0.0,0.0,0.0,0.0,0.0,0.0,0.0,0.0,0.0,0.0,0.0,0.0,0.0,0.0,0.0,0.0,0.0,0.0,0.0,0.0,0.0,0.0,0.0,0.0,0.0,0.0,-3.8837,-3.8669,0.0,0.0,0.0,0.0,0.0,0.0,0.0,0.0,0.0,0.0,0.0,-4.1458,-4.1692,0.0,0.0,0.0,0.0,0.0,0.0,0.0,0.0,0.0,0.0,0.0,0.0,-3.6836,-3.8287,-3.807,-3.817,-3.855,-3.7755,-3.6901,-3.6133,-3.4776,-3.3315,-3.1737,0.0,0.0,0.0,0.0,0.0,0.0,0.0,0.0,0.0,0.0,0.0,0.0,0.0,0.0,0.0,0.0,0.0,0.0,0.0,0.0,0.0,0.0,0.0,0.0,0.0,-2.6042,0.0,0.0,0.0,0.0,0.0,0.0,0.0,0.0,0.0,0.0,0.0,-4.1498,-4.4323,-4.6245,-4.7784,-4.9132,-4.9155,-4.8936,0.0,0.0,0.0,0.0,0.0,0.0,0.0,0.0,0.0,0.0,0.0,0.0,0.0,0.0,-3.526,-3.4554,-3.4141,-3.3837,-3.3747,0.0,0.0,0.0,0.0,0.0,0.0,0.0,0.0,0.0,0.0,0.0,0.0,0.0,0.0,-4.077,0.0,-3.8939,0.0,0.0,0.0,0.0,0.0,0.0,0.0,0.0,-4.1786,-4.2824,-4.3515,-4.3732,-4.3444,0.0,-4.1927,-4.0176,0.0,0.0,0.0,0.0,0.0,0.0,0.0,0.0,-3.694,-3.7714,-3.7383,-3.7183,-3.727,-3.6367,-3.5521,-3.4801,-3.3512,-3.2234,-3.0955,-3.0312,-2.9685,0.0,0.0,0.0,0.0,0.0,0.0,0.0,0.0,0.0,0.0,0.0,0.0,0.0,0.0,0.0,0.0,0.0,0.0,0.0,0.0,0.0,0.0,0.0,-2.7218,0.0,0.0,0.0,0.0,0.0,0.0,0.0,0.0,0.0,-3.8187,-4.0196,-4.2415,-4.5035,-4.6109,-4.7031,-4.7889,0.0,0.0,0.0,0.0,0.0,0.0,0.0,-4.2995,-4.2154,-4.0683,-3.9293,-3.8453,-3.7834,-3.758,-3.7842,0.0,0.0,-3.6456,-3.5987,-3.5741,-3.5837,-3.5528,-3.5268,-3.5375,-3.5587,-3.5694,0.0,0.0,0.0,0.0,0.0,0.0,0.0,0.0,-4.301,-4.3056,0.0,-4.1837,0.0,0.0,0.0,0.0,0.0,-3.7351,0.0,0.0,-4.3023,-4.3869,-4.5129,-4.5178,-4.4754,-4.3909,-4.2862,-4.1405,-3.947,-3.7654,0.0,0.0,0.0,0.0,0.0,0.0,-3.6848,-3.7526,-3.7174,-3.6822,-3.6476,-3.5559,-3.4632,-3.3655,-3.2243,-3.1351,-3.1073,-3.0582,-3.0007,-2.9296,-2.8352,0.0,0.0,0.0,0.0,0.0,0.0,0.0,0.0,0.0,0.0,0.0,0.0,0.0,0.0,0.0,0.0,0.0,0.0,0.0,0.0,-2.7408,0.0,0.0,0.0,0.0,0.0,0.0,0.0,0.0,0.0,0.0,-3.9191,-4.0915,-4.2738,-4.4501,0.0,0.0,0.0,0.0,-4.6491,-4.621,-4.5489,-4.4926,-4.4462,-4.3211,-4.2289,-4.2032,0.0,0.0,-3.8935,-3.8916,-3.8881,-3.8906,-3.9295,-3.9243,-3.7666,-3.7331,-3.7381,-3.7568,-3.7506,-3.7668,-3.7866,-3.7764,-3.7826,-4.8459,0.0,0.0,0.0,0.0,-4.4039,-4.3978,-4.3976,-4.3894,-4.3894,-4.3782,-4.1933,0.0,0.0,0.0,0.0,0.0,0.0,-4.116,-4.2916,-4.35,-4.4003,-4.4522,-4.4428,-4.3712,-4.2554,-4.23,-4.1055,-3.9007,-3.8278,-3.689,-3.4897,0.0,0.0,0.0,0.0,-3.6491,-3.6737,-3.5649,-3.4984,-3.4868,-3.3681,-3.2778,-3.2125,-3.1367,-3.0925,-3.0762,-3.0341,-2.9898,-2.931,-2.8352,0.0,0.0,0.0,0.0,0.0,0.0,0.0,0.0,0.0,0.0,0.0,0.0,0.0,0.0,0.0,0.0,0.0,0.0,0.0,-2.6895,-2.9551,-3.1307,0.0,0.0,0.0,0.0,0.0,0.0,0.0,0.0,0.0,-3.9756,-4.1553,-4.3257,0.0,0.0,-4.5244,-4.5317,-4.543,-4.5398,-4.5003,-4.4448,0.0,-4.3451,-4.2834,-4.2339,-4.1839,-4.1005,-4.0205,-3.979,-3.9537,-3.9459,-3.9459,-3.9584,-3.9572,-3.9091,-3.8678,-3.8429,-3.8492,-3.8191,-3.7916,-3.8015,-3.8002,-3.8002,-4.9913,-4.8528,-4.7206,-4.621,-4.5429,-4.4674,-4.4235,-4.4152,-4.4481,-4.4493,-4.4074,-4.2812,-4.2059,-4.1803,-3.9912,0.0,0.0,0.0,-4.206,-4.3008,-4.3444,-4.3557,-4.3408,-4.3361,-4.2699,-4.163,-4.1644,-4.0578,-3.8537,-3.8245,-3.7116,-3.5223,0.0,0.0,-3.491,-3.5492,-3.5831,-3.5849,-3.4576,-3.3894,-3.3819,-3.2533,-3.1682,-3.1336,-3.0925,-3.0702,-3.0582,-3.0158,-2.9665,-2.9261,-2.83,-2.7364,0.0,0.0,0.0,0.0,0.0,0.0,0.0,0.0,0.0,0.0,0.0,-1.9907,-2.0062,0.0,0.0,0.0,-2.3466,-2.5704,-2.8785,-3.0674,0.0,0.0,0.0,0.0,0.0,0.0,0.0,-3.6085,-3.775,-3.8983,-3.9243,-4.0928,-4.2312,-4.3113,-4.3645,-4.3884,-4.3781,0.0,-4.4369,-4.379,-4.3423,-4.3039,-4.2679,-4.2302,-4.1809,-4.1298,-4.0694,-4.0287,-4.0083,-3.9878,-3.9697,-3.9672,-3.9521,-3.9371,-3.9371,-3.8919,-3.8705,-3.9094,-3.8931,-3.863,-3.8404,-3.8341,-3.8291,-5.0692,-5.022,-4.7831,-4.622,-4.5147,-4.4248,-4.38,-4.3685,-4.4785,-4.4841,-4.4249,-4.4113,-4.3282,-4.1914,-4.0404,0.0,-4.1978,-4.193,-4.2395,-4.3165,-4.3021,-4.2654,-4.2045,-4.1965,-4.1565,-4.086,-4.072,-3.977,-3.8166,-3.7654,-3.6682,-3.5265,-3.516,-3.5023,-3.4868,-3.5082,-3.5052,-3.4832,-3.394,-3.3302,-3.2998,-3.1842,-3.1176,-3.1087,-3.0762,-3.0582,-3.0507,-2.9913,-2.9415,-2.9035,-2.8249,-2.7297,-2.6183,0.0,0.0,0.0,0.0,0.0,0.0,0.0,0.0,0.0,0.0,0.0,0.0,0.0,0.0,0.0,-2.5735,0.0,-3.0343,-3.1216,0.0,0.0,0.0,-3.5001,-3.5014,-3.568,-3.6423,-3.7098,0.0,0.0,-3.8201,-3.9283,-4.04,-4.1221,-4.1915,-4.2348,-4.2105,-4.2906,-4.3245,-4.2724,-4.2407,-4.2074,-4.1692,-4.1176,-4.0616,-4.0117,-4.0058,-3.9779,-3.9779,-3.9676,-3.9534,-3.9484,-3.9132,-3.8806,-3.8806,-3.8379,-3.8329,-3.9308,-3.9484,-3.9346,-3.8831,-3.8693,-3.8555,-5.071,-5.0202,-4.8174,-4.7172,-4.6887,-4.6106,-4.5162,-4.4345,-4.4857,-4.4903,-4.4605,-4.4535,-4.3791,-4.2493,-4.2094,-4.2227,-4.2646,-4.2137,-4.2411,-4.3053,-4.1597,-4.0764,-4.0587,-4.0075,-3.9374,-3.8718,-3.8508,-3.7884,-3.6707,-3.6554,-3.5563,-3.3853,-3.3803,-3.42,-3.4735,-3.475,-3.4648,-3.4212,-3.3338,-3.2456,-3.1634,-3.1161,-3.0881,-3.0702,-3.0507,-3.0205,-2.9851,-2.9665,-2.9352,-2.8716,-2.7973,-2.7204,-2.6346,-2.5146,0.0,0.0,0.0,0.0,0.0,0.0,0.0,0.0,0.0,-2.2719,-2.2735,0.0,-2.4302,0.0,-2.7265,-2.9431,-3.1606,-3.2542,0.0,0.0,-3.5375,-3.5457,-3.5295,-3.5915,-3.6315,-3.6522,-3.7462,-3.7951,-3.7663,-3.8288,-3.8765,-3.8751,-4.0286,-4.151,-4.1693,-4.1869,-4.1977,-4.1512,-4.0463,-3.9704,-3.9515,-3.8743,-3.817,-3.775,-3.7998,-3.807,-3.7985,-3.8239,-3.8404,-3.8404,-3.8316,-3.8216,-3.8178,-3.8078,-3.8052,-3.8354,-3.8404,-3.8379,-3.8241,-3.8203,-3.8153,-5.039,-4.9729,-4.851,-4.7483,-4.6522,-4.5408,-4.4578,-4.3971,-4.4405,-4.424,-4.3769,-4.3153,-4.2284,-4.132,-4.162,-4.1987,-4.2259,-4.191,-4.1865,-4.1963,-4.053,-3.9527,-3.8922,-3.8539,-3.7907,-3.7165,-3.7033,-3.6436,-3.5385,-3.5247,-3.4499,-3.3037,-3.3025,-3.3209,-3.3492,-3.3781,-3.3804,-3.3507,-3.2527,-3.1521,-3.0715,-3.0536,-3.0462,-3.0401,-3.0205,-2.996,-2.9602,-2.9338,-2.8958,-2.8379,-2.7577,-2.6744,-2.5943,-2.5098,-2.4351,0.0,0.0,0.0,0.0,0.0,0.0,0.0,0.0,0.0,0.0,0.0,-2.5888,-2.7302,-2.9124,-3.0834,-3.2359,-3.3319,-3.4212,-3.5073,-3.5455,-3.5634,-3.5634,-3.604,-3.6358,-3.645,-3.7133,-3.7477,-3.713,-3.7608,-3.7818,-3.7464,-3.8489,-3.9575,-4.001,-4.0129,-4.0047,-3.9803,-3.8799,-3.8039,-3.7958,-3.742,-3.6922,-3.6691,-3.7013,-3.7392,-3.7199,-3.7638,-3.7952,-3.7603,-3.7242,-3.698,-3.6646,-3.6385,-3.6248,-3.6248,-3.6235,-3.6422,-3.6967,-3.697,-3.687,-4.9913,-4.899,-4.8483,-4.7094,-4.5203,-4.3773,-4.31,-4.3199,-4.3607,-4.3309,-4.2457,-4.1162,-4.0245,-3.9692,-4.0309,-4.0909,-4.1446,-4.1351,-4.102,-4.0419,-3.9629,-3.8618,-3.7496,-3.748,-3.7026,-3.6173,-3.6064,-3.5291,-3.3981,-3.3833,-3.332,-3.2489,-3.2309,-3.2112,-3.1817,-3.2345,-3.2644,-3.2768,-3.1568,-3.0668,-3.0125,-3.0111,-3.0111,-3.005,-2.9898,-2.9699,-2.9463,-2.9008,-2.8468,-2.7908,-2.7108,-2.622,-2.5312,-2.4993,-2.4548,0.0,-2.4024,0.0,0.0,0.0,0.0,0.0,0.0,0.0,0.0,-2.6195,-2.7442,-2.9371,-3.0882,-3.2059,-3.2747,-3.3752,-3.4384,-3.4732,-3.5157,-3.5655,-3.5865,-3.6031,-3.6257,-3.642,-3.6609,-3.6576,-3.6194,-3.6773,-3.6957,-3.6569,-3.6679,-3.7163,-3.768,-3.8049,-3.8114,-3.7818,-3.7278,-3.6634,-3.6294,-3.6227,-3.6109,-3.6011,-3.6232,-3.6759,-3.6551,-3.7014,-3.718,-3.6634,-3.6053,-3.5511,-3.4829,-3.441,-3.4102,-3.4089,-3.4089,-3.4385,-3.54,-3.5565,-3.5043,-4.926,-4.8683,-4.7085,-4.5906,-4.4957,-4.3668,-4.2932,-4.2686,-4.2526,-4.2234,-4.1746,-4.0956,-4.053,-4.0403,-4.053,-4.0672,-4.0767,-4.0166,-3.9819,-3.9661,-3.8444,-3.7733,-3.748,-3.748,-3.6983,-3.6041,-3.5346,-3.4245,-3.2825,-3.2542,-3.1806,-3.0682,-3.0968,-3.1034,-3.0777,0.0,0.0,0.0,-3.0925,-3.0225,-3.0125,-3.0111,-3.0036,-2.9884,-2.9713,0.0,-2.8931,-2.861,-2.8105,-2.7456,-2.6688,0.0,0.0,0.0,0.0,0.0,0.0,0.0,0.0,0.0,0.0,0.0,-2.567,-2.5961,-2.6334,-2.7928,-2.9206,-3.002,-3.1229,-3.2388,-3.3369,-3.3991,-3.4634,-3.5347,-3.5494,-3.5556,-3.5651,-3.5355,-3.5145,-3.5145,-3.4848,-3.4589,-3.4539,-3.4773,-3.5007,-3.4919,-3.5039,-3.5246,-3.5347,-3.6118,-3.6675,-3.6519,-3.5545,-3.4591,-3.3934,-3.3834,-3.3859,-3.3495,-3.3881,-3.4177,-3.4144,-3.4502,-3.4786,-3.4545,-3.4422,-3.4336,-3.4084,-3.4023,-3.3703,-3.3473,-3.3183,-3.3313,-3.4213,-3.4348,-3.4207,-4.845,-4.7485,-4.617,-4.5127,0.0,-4.3399,-4.2548,-4.185,-4.1981,-4.1485,-4.0498,-3.9503,-3.906,-3.9076,-3.9424,-3.9566,-3.955,-3.9187,-3.9013,-3.8965,-3.7862,-3.7156,-3.6825,-3.6782,-3.6072,-3.4767,-3.4149,-3.3089,-3.1694,-3.1335,-3.069,-2.9727,-2.996,-3.0003,-2.9812,-2.9812,-3.0311,-3.1239,-3.0332,-2.9865,-2.9865,-2.9803,-2.9741,-2.9574,-2.9463,0.0,0.0,0.0,0.0,0.0,0.0,0.0,0.0,-2.4803,0.0,-2.4271,-2.4861,-2.5284,-2.5513,-2.5535,-2.5633,-2.5874,-2.6451,-2.6963,-2.7431,-2.8847,-2.9827,-3.036,-3.1357,-3.2106,-3.2655,-3.3323,-3.3944,-3.4125,-3.4435,-3.4649,-3.4527,-3.4295,-3.4218,-3.4379,-3.4133,-3.3961,-3.3961,-3.4156,-3.4057,-3.3822,-3.3628,-3.3444,-3.337,-3.43,-3.4933,-3.435,-3.3669,-3.2905,-3.2247,-3.2262,-3.2338,-3.2241,-3.2822,-3.3214,-3.3199,-3.3617,-3.3801,-3.3244,-3.3085,-3.2861,-3.2223,-3.2113,-3.2028,-3.1697,-3.1537,-3.1598,-3.1989,-3.232,-3.2418,-4.7537,-4.6165,-4.5483,-4.4558,-4.3519,-4.2937,-4.1908,-4.0687,0.0,0.0,0.0,-3.797,-3.748,-3.7512,-3.802,-3.8194,-3.8023,-3.8038,-3.802,-3.7818,-3.71,-3.6535,-3.5985,-3.5841,-3.4969,-3.349,-3.3069,-3.2108,-3.0732,-3.0372,-2.987,-2.931,-2.9261,-2.9198,-2.9113,-2.9113,-2.9475,-3.0191,-2.9743,-2.954,-2.9477,-2.9415,-2.9352,-2.9352,-2.9162,-2.8908,-2.8573,-2.8105,-2.7564,-2.6905,-2.6013,-2.5182,-2.4478,-2.4661,-2.4703,-2.4467,-2.5164,-2.5699,-2.5764,-2.5775,-2.5808,-2.5979,-2.6768,-2.7554,-2.823,-2.9224,-2.9997,-3.0403,-3.1178,-3.1633,-3.1736,-3.2604,-3.2936,-3.2594,-3.3124,-3.3452,-3.3179,-3.3244,-3.3344,-3.3521,-3.3362,-3.3379,-3.322,-3.3183,-3.3236,-3.2717,-3.2326,-3.2019,-3.1736,-3.2537,-3.3032,-3.2306,-3.195,-3.1534,-3.1212,-3.1289,-3.1429,-3.1466,-3.2068,-3.2644,-3.2742,-3.3024,-3.2836,-3.1892,-3.1746,-3.1331,-3.0435,-3.0338,-3.005,-2.9989,-2.9965,-2.9917,-2.9857,-3.0146,-3.0483,-4.6388,-4.5886,-4.4731,-4.3948,-4.3323,-4.2215,-4.0678,-3.8885,-3.898,-3.8507,-3.7749,-3.7559,-3.7405,-3.7254,-3.7348,-3.6977,-3.6341,-3.6341,-3.5998,-3.5404,-3.5279,-3.5185,-3.5107,-3.4949,-3.4315,-3.3245,-3.2645,-3.1693,-3.0444,-2.9898,-2.9463,-2.9149,-2.9099,-2.9085,-2.9099,-2.9113,-2.914,-2.9287,-2.9218,-2.9162,-2.9162,-2.9162,-2.9162,-2.9162,-2.8972,-2.8716,-2.8365,-2.7842,-2.7175,-2.6358,-2.5511,-2.4731,-2.4055,-2.4055,-2.4062,-2.3864,-2.4366,-2.4858,-2.5251,-2.5273,-2.5541,-2.6124,-2.6683,-2.7238,-2.7731,-2.8854,-2.9604,-2.9962,-3.0763,-3.146,-3.1748,-3.2148,-3.2488,-3.2418,-3.2571,-3.2688,-3.2546,-3.2388,-3.2153,-3.1747,-3.1468,-3.1233,-3.0967,-3.0907,-3.1101,-3.0894,-3.099,-3.0937,-3.0876,-3.1045,-3.1178,-3.1054,-3.1017,-3.0897,-3.0737,-3.0848,-3.0768,-3.0589,-3.076,-3.0943,-3.0797,-3.0882,-3.0858,-3.0459,-3.0459,-3.0375,-3.0314,-3.0254,-2.9881,-2.9663,-2.946,-2.9292,-2.8862,-2.885,-2.9172,-4.596,-4.529,-4.433,-4.3654,-4.3092,-4.119,-3.9548,-3.8246,-3.7853,-3.76,-3.7345,-3.7301,-3.6977,-3.6557,-3.6541,-3.6123,-3.5393,-3.5393,-3.5221,-3.4909,-3.4836,-3.4607,-3.4265,-3.4006,-3.3364,-3.2379,-3.1752,-3.101,-3.0083,-2.9526,-2.9162,-2.8844,-2.8844,-2.8844,-2.8844,-2.8844,-2.8844,-2.8844,-2.9035,-2.9113,-2.9099,-2.8908,-2.8844,-2.8844,-2.8587,-2.8262,-2.7842,-2.7536,-2.6985,-2.622,-2.5441,-2.4731,-2.4127,-2.3999,-2.3886,-2.3755,-2.4203,-2.4585,-2.4781,-2.5033,-2.5344,-2.5667,-2.6201,-2.6646,-2.6814,-2.7967,-2.8817,-2.8893,-2.9338,-2.9679,-2.9757,-3.0337,-3.0578,-3.0293,-3.0337,-3.0504,-3.0606,-3.0631,-3.0537,-3.0312,-3.0162,-3.001,-2.9772,-2.9917,-3.0098,-3.0074,-3.0036,-2.9898,-2.9606,-2.9545,-2.9748,-3.0237,-3.0217,-2.9976,-2.978,-2.9882,-2.9946,-2.9806,-3.006,-3.0217,-3.0086,-3.0086,-2.987,-2.963,-2.9499,-2.9391,-2.926,-2.9034,-2.8809,-2.8702,-2.8664,-2.8417,-2.825,-2.8203,-2.8381,-4.5562,-4.4759,-4.4121,-4.3337,-4.2281,-4.0275,-3.8795,-3.7732,-3.7156,-3.6968,-3.7074,-3.706,-3.6625,-3.5957,-3.591,-3.5443,-3.4638,-3.4545,-3.4483,-3.4328,-3.4213,-3.3877,-3.3413,-3.3084,-3.2509,-3.1655,-3.1029,-3.0418,-2.9822,-2.9275,-2.8908,-2.8651,-2.8587,-2.8587,-2.8587,-2.8587,-2.8522,-2.8522,-2.8766,-2.8908,-2.8908,-2.8651,-2.8457,-2.8471,-2.821,-2.7934,-2.759,-2.7335,-2.6918,-2.6139,-2.5358,-2.4659,-2.4127,-2.3888,-2.3721,-2.3602,-2.394,-2.4203,-2.4334,-2.476,-2.5022,-2.5033,-2.5623,-2.5992,-2.6058,-2.6934,-2.7674,-2.785,-2.8105,-2.8172,-2.8305,-2.8657,-2.8809,-2.84,-2.8505,-2.8867,-2.8919,-2.9153,-2.9253,-2.9183,-2.9233,-2.9186,-2.9092,-2.9248,-2.9296,-2.9297,-2.9141,-2.8769,-2.8291,-2.8171,-2.8498,-2.893,-2.9265,-2.9209,-2.8742,-2.8915,-2.9006,-2.8961,-2.9272,-2.9427,-2.9487,-2.9535,-2.9427,-2.8869,-2.8797,-2.8585,-2.7975,-2.7916,-2.7928,-2.7916,-2.8009,-2.7985,-2.7973,-2.7881,-2.7881,-4.4827,-4.4367,-4.4138,-4.2716,-4.0575,-3.9831,-3.8606,-3.7186,-3.6816,-3.6708,-3.6785,-3.6923,-3.6473,-3.5823,-3.567,-3.4868,-3.3609,-3.3547,-3.3239,-3.273,-3.2653,-3.2607,-3.2536,-3.2272,-3.1985,-3.1625,-3.0777,-3.019,-2.9747,-2.9149,-2.8716,-2.8587,-2.8587,-2.86,-2.8587,-2.8444,-2.8365,-2.83,-2.8276,-2.8262,-2.8365,-2.8183,-2.8145,-2.8145,-2.8079,-2.8,-2.7709,-2.731,-2.6688,-2.5931,-2.5146,-2.436,-2.374,-2.3501,-2.3301,-2.3088,-2.3132,-2.3329,-2.3766,-2.4257,-2.4552,-2.4585,-2.4978,-2.5251,-2.5284,-2.5815,-2.6477,-2.713,-2.7771,-2.7951,-2.8128,-2.8105,-2.8147,-2.7993,-2.8189,-2.8475,-2.8505,-2.8833,-2.8905,-2.844,-2.8561,-2.8563,-2.8234,-2.8151,-2.8197,-2.8268,-2.8231,-2.7947,-2.751,-2.7321,-2.7179,-2.7115,-2.7675,-2.8395,-2.8291,-2.8283,-2.8333,-2.8172,-2.8091,-2.8302,-2.8361,-2.8326,-2.8079,-2.8244,-2.8103,-2.7951,-2.7812,-2.7742,-2.7777,-2.7672,-2.7765,-2.7881,-2.7881,-2.7708,-2.7696,-4.4742,-4.4406,-4.408,-4.2397,-3.9939,-3.903,-3.7935,-3.6708,-3.6616,-3.66,-3.6554,-3.626,-3.5703,-3.4979,-3.4546,-3.3779,-3.2829,-3.2798,-3.2659,-3.2413,-3.2342,-3.2302,-3.2231,-3.1996,-3.1712,-3.1467,-3.0807,-3.0205,-2.9651,-2.8881,-2.8457,-2.8341,-2.8276,-2.8276,-2.8276,-2.8197,-2.8197,-2.8197,-2.7987,-2.7921,-2.7973,-2.7921,-2.7921,-2.7921,-2.7802,-2.7683,-2.7456,-2.7201,-2.6645,-2.5886,-2.5158,-2.4371,-2.3677,-2.3224,-2.2852,-2.2617,-2.2628,-2.2714,-2.2907,-2.338,-2.3649,-2.3659,-2.4147,-2.4514,-2.4805,-2.501,-2.5322,-2.5934,-2.6535,-2.6816,-2.6838,-2.6912,-2.6997,-2.6997,-2.7166,-2.7347,-2.7335,-2.7515,-2.7569,-2.7481,-2.7541,-2.7637,-2.7534,-2.7626,-2.7719,-2.7834,-2.7646,-2.7293,-2.707,-2.6823,-2.6541,-2.6412,-2.6848,-2.7269,-2.7486,-2.7853,-2.7891,-2.795,-2.7881,-2.7881,-2.7834,-2.7881,-2.7881,-2.7696,-2.758,-2.7499,-2.7383,-2.7452,-2.7464,-2.736,-2.736,-2.7476,-2.7476,-2.7383,-2.7383,-4.4759,-4.4316,-4.3556,-4.171,-3.9311,-3.8326,-3.7343,-3.646,-3.6352,-3.6259,-3.6014,-3.5385,-3.4695,-3.4066,-3.3571,-3.2972,-3.2404,-3.2287,-3.2287,-3.2302,-3.2191,-3.215,-3.215,-3.1868,-3.1524,-3.1161,-3.0673,-3.0083,-2.9338,-2.8688,-2.8235,-2.8145,-2.8079,-2.8079,-2.8066,-2.8079,-2.8,-2.8,-2.7802,-2.7656,-2.7656,-2.759,-2.759,-2.7656,-2.7523,-2.7403,-2.7214,-2.693,-2.6452,-2.584,-2.5028,-2.4299,-2.3593,-2.3075,-2.2703,-2.2402,-2.2392,-2.2392,-2.2413,-2.2722,-2.2924,-2.2956,-2.3339,-2.3743,-2.4062,-2.4328,-2.4636,-2.5029,-2.5473,-2.5749,-2.5728,-2.5895,-2.6074,-2.6063,-2.6313,-2.6479,-2.6501,-2.6561,-2.6678,-2.6809,-2.6707,-2.6631,-2.6598,-2.676,-2.6886,-2.7023,-2.6857,-2.6609,-2.6492,-2.6142,-2.5809,-2.5692,-2.5751,-2.6153,-2.6687,-2.7015,-2.7343,-2.7298,-2.7217,-2.7114,-2.7298,-2.7287,-2.7335,-2.6909,-2.7059,-2.7163,-2.7021,-2.7056,-2.6999,-2.7044,-2.7021,-2.6999,-2.7056,-2.6976,-2.6769,-4.457,-4.3889,-4.2376,-4.0559,-3.8702,-3.8029,-3.7202,-3.6134,-3.6054,-3.5672,-3.5033,-3.4395,-3.3726,-3.3133,-3.3142,-3.2817,-3.2252,-3.2094,-3.2053,-3.2053,-3.1981,-3.1996,-3.1981,-3.1682,-3.1321,-3.097,-3.0433,-2.9637,-2.8716,-2.843,-2.8235,-2.8066,-2.8079,-2.8079,-2.8013,-2.7855,-2.7776,-2.7789,-2.7469,-2.7323,-2.7323,-2.7121,-2.7108,-2.7217,-2.7335,-2.7214,-2.7011,-2.6508,-2.6,-2.5606,-2.4838,-2.407,-2.335,-2.3065,-2.2777,-2.2402,-2.2402,-2.2402,-2.2402,-2.2456,-2.2391,-2.2509,-2.2804,-2.3168,-2.325,-2.3864,-2.4331,-2.4541,-2.4945,-2.5253,-2.5285,-2.5464,-2.5654,-2.5644,-2.5979,-2.6146,-2.6207,-2.6318,-2.655,-2.6427,-2.6091,-2.5824,-2.5341,-2.5373,-2.562,-2.5709,-2.5707,-2.5589,-2.5233,-2.5027,-2.4711,-2.4431,-2.4568,-2.5066,-2.5808,-2.6167,-2.6066,-2.6058,-2.6184,-2.5899,-2.5807,-2.5819,-2.6016,-2.6143,-2.6166,-2.6324,-2.6546,-2.6588,-2.6558,-2.6524,-2.649,-2.6501,-2.6425,-2.6116,-2.5923,-4.2657,-4.2137,-4.0658,-3.945,-3.8489,-3.7468,-3.6445,-3.5599,-3.5398,-3.4956,-3.4304,-3.3636,-3.3211,-3.2983,-3.2485,-3.2224,-3.2053,-3.1996,-3.2012,-3.1996,-3.1898,-3.1841,-3.1841,-3.1509,-3.1219,-3.0807,-3.0326,-2.9498,-2.8495,-2.8105,-2.7908,-2.7736,-2.7736,-2.7736,-2.7669,-2.7536,-2.7456,-2.7456,-2.7214,-2.6979,-2.6644,-2.6552,-2.6473,-2.6419,-2.6886,-2.7011,-2.6794,-2.6113,-2.5425,-2.4783,-2.3886,-2.3081,-2.2531,-2.2318,-2.2187,-2.2035,-2.2025,-2.2025,-2.2025,-2.2025,-2.2025,-2.2046,-2.2182,-2.2422,-2.2715,-2.314,-2.3549,-2.4073,-2.4472,-2.4703,-2.4829,-2.5137,-2.538,-2.538,-2.5454,-2.5492,-2.5243,-2.5322,-2.5387,-2.5275,-2.5271,-2.5262,-2.4982,-2.488,-2.4901,-2.5115,-2.4686,-2.4446,-2.4491,-2.4299,-2.3971,-2.3818,-2.3886,-2.4066,-2.4351,-2.5043,-2.5383,-2.5406,-2.5351,-2.5339,-2.5271,-2.5281,-2.5407,-2.5397,-2.5475,-2.5498,-2.5766,-2.573,-2.5719,-2.5766,-2.5755,-2.5753,-2.5609,-2.5418,-2.5249,-4.1388,-4.0696,-3.9664,-3.8738,-3.7944,-3.6662,-3.563,-3.4941,-3.4544,-3.3968,-3.3337,-3.287,-3.2569,-3.2344,-3.1792,-3.1597,-3.1712,-3.1769,-3.1754,-3.1712,-3.1612,-3.1569,-3.1497,-3.1234,-3.094,-3.0568,-2.9946,-2.9058,-2.8235,-2.7776,-2.7523,-2.7335,-2.7335,-2.7335,-2.7335,-2.7281,-2.7214,-2.7134,-2.6832,-2.647,-2.6125,-2.5855,-2.5701,-2.5608,-2.6003,-2.624,-2.6219,-2.5369,-2.4591,-2.3854,-2.2959,-2.2201,-2.161,-2.1334,-2.1285,-2.1419,-2.1439,-2.1521,-2.1558,-2.1589,-2.1578,-2.1578,-2.1589,-2.1732,-2.2107,-2.2381,-2.2783,-2.3258,-2.3784,-2.3981,-2.3794,-2.4075,-2.4483,-2.4766,-2.4893,-2.4764,-2.4339,-2.4298,-2.4072,-2.372,-2.3777,-2.3885,-2.3904,-2.3657,-2.3624,-2.4033,-2.3503,-2.3335,-2.3565,-2.3453,-2.3212,-2.324,-2.3251,-2.3323,-2.3438,-2.3862,-2.4411,-2.4444,-2.4534,-2.4646,-2.4636,-2.4614,-2.4658,-2.4725,-2.4715,-2.4781,-2.4848,-2.4904,-2.4915,-2.4893,-2.4981,-2.5068,-2.4948,-2.4748,-2.4592,-4.0922,-3.9999,-3.9437,-3.8312,-3.7115,-3.5752,-3.4896,-3.428,-3.3446,-3.2714,-3.2137,-3.2003,-3.1738,-3.1279,-3.122,-3.1146,-3.1205,-3.1292,-3.1292,-3.119,-3.1146,-3.1146,-3.1146,-3.0821,-3.0507,-3.019,-2.9149,-2.8392,-2.7855,-2.7469,-2.7201,-2.7092,-2.7024,-2.7092,-2.7011,-2.7024,-2.6998,-2.679,-2.626,-2.5902,-2.5813,-2.5124,-2.4808,-2.4743,-2.4703,-2.4785,-2.5244,-2.4323,-2.358,-2.2977,-2.223,-2.1446,-2.0634,-2.0237,-2.0171,-2.0545,-2.0626,-2.0838,-2.1084,-2.1135,-2.1201,-2.1221,-2.1195,-2.1312,-2.1413,-2.1883,-2.2147,-2.2159,-2.2524,-2.2767,-2.224,-2.2453,-2.3104,-2.3919,-2.4166,-2.4027,-2.3705,-2.336,-2.2862,-2.2189,-2.208,-2.1696,-2.1517,-2.1697,-2.1936,-2.2121,-2.2129,-2.2165,-2.2321,-2.2288,-2.231,-2.2495,-2.2507,-2.2462,-2.2548,-2.2777,-2.3108,-2.3449,-2.356,-2.3671,-2.3685,-2.3707,-2.371,-2.3798,-2.3788,-2.3864,-2.4018,-2.4006,-2.4082,-2.4115,-2.4257,-2.4246,-2.4061,-2.3864,-2.3777,-3.9362,-3.8804,-3.785,-3.7028,-3.6232,-3.4774,-3.3758,-3.3095,-3.2539,-3.1867,-3.1307,-3.1293,-3.119,-3.0984,-3.1028,-3.1028,-3.0881,-3.094,-3.1014,-3.1087,-3.1087,-3.1087,-3.1014,-3.0762,-3.019,-2.9387,-2.8495,-2.7921,-2.759,-2.7214,-2.7011,-2.7024,-2.7024,-2.7024,-2.6956,-2.6863,-2.6574,-2.6114,-2.5711,-2.5153,-2.4337,-2.4025,-2.3938,-2.3838,-2.3391,-2.3225,-2.3506,-2.3137,-2.2596,-2.1922,-2.1008,-2.0315,-1.9944,-1.99,-1.997,-2.0111,-2.0141,-2.0182,-2.028,-2.0581,-2.0762,-2.0813,-2.1024,-2.1195,-2.1215,-2.1413,-2.1504,-2.1278,-2.0967,-2.0644,-2.1328,-2.1585,-2.1936,-2.2533,-2.2654,-2.2628,-2.2278,-2.1784,-2.1459,-2.1307,-2.1282,-2.1208,-2.1037,-2.0984,-2.0855,-2.114,-2.1058,-2.1018,-2.13,-2.1381,-2.1361,-2.1474,-2.1538,-2.1668,-2.1857,-2.1934,-2.2124,-2.2518,-2.2722,-2.299,-2.3001,-2.2938,-2.2982,-2.2972,-2.3037,-2.3048,-2.3188,-2.3197,-2.3272,-2.3197,-2.3144,-2.3111,-2.3003,-2.3036,-2.308,-3.7747,-3.7406,-3.6525,-3.5896,-3.5295,-3.3938,-3.2931,-3.2228,-3.1615,-3.1052,-3.064,-3.0657,-3.0642,-3.0597,-3.0657,-3.0657,-3.0536,-3.0536,-3.0597,-3.0717,-3.0762,-3.0821,-3.0702,-3.0312,-2.9623,-2.8688,-2.7908,-2.7377,-2.7108,-2.6807,-2.6602,-2.6602,-2.6602,-2.6602,-2.6602,-2.6452,-2.6108,-2.5498,-2.5145,-2.4493,-2.37,-2.3292,-2.3194,-2.3008,-2.2528,-2.2205,-2.2098,-2.18,-2.1357,-2.071,-1.9865,-1.923,-1.9099,-1.9064,-1.9142,-1.93,-1.9268,-1.9308,-1.9486,-1.9708,-1.992,-1.9979,-2.0102,-2.023,-2.0345,-2.0556,-2.0843,-2.02,-1.9317,-1.9042,-1.9909,-2.0246,-2.046,-2.0605,-2.1165,-2.112,-2.0764,-2.0339,-2.012,-2.0045,-2.0031,-2.0132,-2.0186,-2.0081,-2.0012,-2.0371,-2.0243,-2.0094,-2.0392,-2.0503,-2.0541,-2.0578,-2.0743,-2.0907,-2.1113,-2.1188,-2.1188,-2.1597,-2.203,-2.236,-2.2628,-2.2617,-2.2617,-2.2617,-2.266,-2.2681,-2.2723,-2.2583,-2.2518,-2.2273,-2.2176,-2.2412,-2.2529,-2.2551,-2.2606,-3.6201,-3.5921,-3.5498,-3.4992,-3.4321,-3.3196,-3.2288,-3.1657,-3.0751,-3.0323,-3.0111,-3.0172,-3.0111,-3.0111,-3.0187,-3.0172,-3.0111,-3.0172,-3.0172,-3.0233,-3.028,-3.0266,-3.0205,-2.9623,-2.8917,-2.8091,-2.743,-2.6892,-2.6483,-2.6176,-2.591,-2.598,-2.598,-2.5898,-2.5968,-2.591,-2.5603,-2.4921,-2.448,-2.3989,-2.3301,-2.2861,-2.253,-2.2333,-2.1987,-2.1588,-2.1129,-2.0433,-1.9955,-1.966,-1.8808,-1.8347,-1.8221,-1.793,-1.7985,-1.8392,-1.8199,-1.8361,-1.8566,-1.8753,-1.88,-1.881,-1.8896,-1.8682,-1.9056,-1.9777,-1.9935,-1.8979,-1.8091,-1.7752,-1.8184,-1.8562,-1.8692,-1.8634,-1.9717,-2.0048,-1.9354,-1.9203,-1.9121,-1.8809,-1.858,-1.8647,-1.9142,-1.9147,-1.9281,-1.9435,-1.9512,-1.9554,-1.9554,-1.9624,-1.9702,-1.9771,-1.9833,-1.9965,-2.0083,-2.0114,-2.0216,-2.047,-2.0882,-2.1259,-2.1754,-2.1775,-2.1966,-2.1997,-2.2039,-2.2157,-2.2166,-2.1928,-2.1787,-2.1721,-2.1797,-2.1949,-2.2025,-2.2014,-2.2004,-3.5899,-3.5483,-3.4755,-3.4032,-3.3295,-3.215,-3.1427,-3.0875,-3.038,-3.0021,-2.996,-3.0036,-2.9974,-2.9884,-3.005,-3.0111,-3.005,-3.005,-3.0111,-3.005,-2.9865,-2.9775,-2.9651,-2.9058,-2.8481,-2.7894,-2.7095,-2.6552,-2.6346,-2.6025,-2.5853,-2.5923,-2.584,-2.5758,-2.5688,-2.5688,-2.5038,-2.4085,-2.379,-2.3239,-2.2345,-2.2118,-2.1874,-2.1651,-2.1336,-2.088,-2.0291,-1.932,-1.8731,-1.8664,-1.8192,-1.7784,-1.7735,-1.7598,-1.7596,-1.77,-1.7729,-1.7678,-1.7839,-1.8086,-1.8228,-1.8266,-1.8464,-1.8682,-1.8682,-1.8969,-1.8908,-1.8231,-1.7567,-1.725,-1.7567,-1.7754,-1.7815,-1.7865,-1.8782,-1.9163,-1.8705,-1.8652,-1.8602,-1.8502,-1.8482,-1.8549,-1.8617,-1.8674,-1.8741,-1.8808,-1.8875,-1.8808,-1.8875,-1.8808,-1.893,-1.8755,-1.8771,-1.8864,-1.9004,-1.9043,-1.917,-1.9423,-1.9653,-1.9819,-2.0242,-2.0502,-2.0706,-2.0879,-2.1015,-2.1056,-2.1202,-2.1145,-2.1165,-2.0907,-2.0958,-2.0887,-2.1094,-2.1211,-2.1278,-3.4765,-3.4368,-3.3834,-3.3222,-3.2497,-3.1717,-3.1102,-3.0568,-3.0144,-2.9851,-2.9651,-2.9665,-2.9602,-2.9512,-2.9588,-2.9665,-2.9665,-2.9665,-2.9665,-2.9588,-2.9401,-2.9275,-2.9085,-2.856,-2.8091,-2.7564,-2.6688,-2.6151,-2.5861,-2.5618,-2.5419,-2.5419,-2.5419,-2.5348,-2.5277,-2.5241,-2.468,-2.3617,-2.3325,-2.2798,-2.1792,-2.1624,-2.1423,-2.1146,-2.0764,-2.0226,-1.9386,-1.8519,-1.8056,-1.7988,-1.7784,-1.7588,-1.7539,-1.7401,-1.7392,-1.7392,-1.7323,-1.7263,-1.7292,-1.7488,-1.7591,-1.7638,-1.7853,-1.7928,-1.7928,-1.7956,-1.7816,-1.7558,-1.7147,-1.7046,-1.7222,-1.7323,-1.7392,-1.7439,-1.7946,-1.8202,-1.7959,-1.8027,-1.8076,-1.8134,-1.8202,-1.8269,-1.8347,-1.8414,-1.8414,-1.8405,-1.8472,-1.8327,-1.8259,-1.8192,-1.8056,-1.792,-1.7784,-1.7849,-1.7815,-1.775,-1.7656,-1.7965,-1.7996,-1.8241,-1.8865,-1.9203,-1.9574,-1.9792,-1.9935,-1.9969,-1.999,-2.0031,-1.9781,-1.9638,-1.9707,-1.9755,-1.985,-2.0101,-2.0206,-3.3361,-3.3058,-3.2951,-3.2499,-3.2012,-3.1625,-3.1146,-3.0568,-3.0068,-2.9713,-2.9463,-2.9226,-2.9226,-2.9113,-2.9226,-2.9176,-2.9162,-2.924,-2.9162,-2.9085,-2.8894,-2.8817,-2.8651,-2.817,-2.763,-2.7095,-2.6233,-2.5746,-2.5394,-2.5064,-2.4873,-2.4933,-2.4861,-2.4731,-2.4696,-2.4637,-2.4061,-2.3138,-2.2838,-2.2395,-2.1609,-2.136,-2.1083,-2.0764,-2.0107,-1.9375,-1.8519,-1.7852,-1.7579,-1.7569,-1.752,-1.7401,-1.7392,-1.7245,-1.7176,-1.7176,-1.6968,-1.6899,-1.6899,-1.6936,-1.6866,-1.6903,-1.6885,-1.6839,-1.693,-1.7055,-1.7037,-1.6921,-1.6848,-1.6857,-1.6908,-1.7028,-1.7097,-1.7185,-1.7342,-1.7401,-1.747,-1.747,-1.7529,-1.7647,-1.7716,-1.7852,-1.8066,-1.8202,-1.8202,-1.792,-1.792,-1.7784,-1.7569,-1.7423,-1.7295,-1.7019,-1.695,-1.6821,-1.6639,-1.6447,-1.6325,-1.6289,-1.6208,-1.6518,-1.7352,-1.7914,-1.8373,-1.8651,-1.8616,-1.8627,-1.8695,-1.8536,-1.8388,-1.8303,-1.8261,-1.8293,-1.8416,-1.8637,-1.8852,-3.3203,-3.2951,-3.2757,-3.2302,-3.1796,-3.1552,-3.1146,-3.0582,-3.0219,-2.9851,-2.954,-2.9415,-2.9226,-2.9113,-2.9008,-2.9113,-2.898,-2.8953,-2.9035,-2.8844,-2.8716,-2.8444,-2.8157,-2.7551,-2.7136,-2.6607,-2.5861,-2.537,-2.5158,-2.4826,-2.4778,-2.4731,-2.4542,-2.4495,-2.3979,-2.3769,-2.3167,-2.2205,-2.1888,-2.1604,-2.1149,-2.0914,-2.0635,-2.0172,-1.9375,-1.8509,-1.7794,-1.7323,-1.7038,-1.689,-1.6968,-1.7047,-1.6978,-1.6978,-1.6968,-1.6899,-1.676,-1.6682,-1.6612,-1.6551,-1.6412,-1.6482,-1.6482,-1.6421,-1.6421,-1.6675,-1.6675,-1.6508,-1.6412,-1.6473,-1.6612,-1.6682,-1.6821,-1.6899,-1.6978,-1.7047,-1.7047,-1.7323,-1.7461,-1.7529,-1.7529,-1.7608,-1.7666,-1.7666,-1.7598,-1.751,-1.7373,-1.7235,-1.695,-1.6664,-1.6376,-1.6105,-1.5965,-1.5824,-1.5613,-1.5401,-1.5259,-1.5117,-1.4974,-1.4911,-1.5855,-1.6399,-1.6793,-1.7108,-1.7261,-1.7269,-1.7202,-1.7121,-1.6963,-1.6882,-1.6816,-1.6879,-1.6928,-1.7203,-1.745,-3.3027,-3.2773,-3.2648,-3.2358,-3.1966,-3.1667,-3.1263,-3.0673,-3.0144,-2.9713,-2.9352,-2.9022,-2.8817,-2.8661,-2.8352,-2.8216,-2.8135,-2.7903,-2.7732,-2.7579,-2.739,-2.7086,-2.6713,-2.6255,-2.5904,-2.6115,-2.5093,-2.4601,-2.4343,-2.3909,-2.3524,-2.357,-2.3593,-2.3339,-2.3052,-2.2936,-2.2411,-2.1777,-2.1441,-2.1139,-2.0747,-2.0529,-1.9987,-1.9365,-1.8576,-1.7842,-1.7245,-1.6899,-1.6682,-1.6551,-1.656,-1.663,-1.6621,-1.663,-1.6621,-1.6621,-1.6551,-1.6482,-1.6412,-1.6342,-1.6272,-1.6272,-1.6272,-1.6272,-1.6281,-1.6526,-1.6535,-1.6351,-1.6175,-1.6158,-1.6394,-1.6473,-1.6551,-1.6551,-1.663,-1.663,-1.67,-1.6978,-1.7254,-1.7314,-1.7245,-1.7254,-1.7185,-1.7038,-1.6899,-1.6742,-1.6533,-1.6324,-1.5965,-1.5675,-1.5392,-1.5108,-1.4974,-1.476,-1.4545,-1.4338,-1.4201,-1.4129,-1.4129,-1.4065,-1.4455,-1.4824,-1.516,-1.5499,-1.5931,-1.5663,-1.5601,-1.561,-1.5527,-1.5413,-1.5307,-1.538,-1.5527,-1.5674,-1.5889,-3.2866,-3.2578,-3.2594,-3.2413,-3.2176,-3.1853,-3.1437,-3.0837,-3.0176,-2.9637,-2.9044,-2.8478,-2.8201,-2.8005,-2.7394,-2.7117,-2.697,-2.6703,-2.6631,-2.6556,-2.6232,-2.5931,-2.5473,-2.4956,-2.4743,-2.5424,-2.4257,-2.3595,-2.3201,-2.2672,-2.2558,-2.2284,-2.225,-2.2319,-2.2149,-2.2013,-2.1756,-2.1274,-2.1041,-2.0853,-2.0531,-2.0118,-1.9452,-1.8576,-1.7969,-1.7442,-1.6959,-1.6612,-1.6403,-1.6272,-1.6281,-1.6211,-1.6202,-1.6281,-1.6272,-1.6342,-1.6272,-1.6272,-1.6272,-1.6202,-1.6211,-1.6202,-1.6202,-1.6211,-1.6211,-1.6202,-1.6149,-1.6018,-1.5896,-1.5852,-1.6175,-1.6211,-1.6211,-1.6272,-1.6272,-1.6202,-1.6272,-1.6551,-1.6682,-1.6899,-1.6839,-1.6788,-1.6551,-1.6315,-1.6114,-1.5974,-1.5692,-1.548,-1.5046,-1.476,-1.4474,-1.4258,-1.4042,-1.3825,-1.3535,-1.3317,-1.3178,-1.3185,-1.3193,-1.3266,-1.3266,-1.3411,-1.3848,-1.4289,-1.4568,-1.4423,-1.4286,-1.4313,-1.4225,-1.3912,-1.3965,-1.4197,-1.4251,-1.4184,-1.4408,-3.2633,-3.2578,-3.2453,-3.2358,-3.2176,-3.2023,-3.1564,-3.1161,-3.0392,-2.987,-2.9136,-2.822,-2.7624,-2.7287,-2.6756,-2.6454,-2.6272,-2.6086,-2.6086,-2.6038,-2.5765,-2.5329,-2.4798,-2.4033,-2.3779,-2.3447,-2.2912,-2.2559,-2.2594,-2.2388,-2.1968,-2.208,-2.2058,-2.189,-2.152,-2.1431,-2.1041,-2.0621,-2.0402,-2.0172,-2.0042,-1.9605,-1.8998,-1.8124,-1.751,-1.7097,-1.6682,-1.6333,-1.6132,-1.6132,-1.6,-1.585,-1.5852,-1.6062,-1.6131,-1.6149,-1.6105,-1.5992,-1.5983,-1.5974,-1.5859,-1.5867,-1.5824,-1.5824,-1.5824,-1.5807,-1.5679,-1.5437,-1.5394,-1.548,-1.6026,-1.5877,-1.5921,-1.5991,-1.5912,-1.5833,-1.5842,-1.5771,-1.5842,-1.5974,-1.6079,-1.6096,-1.5771,-1.5455,-1.5171,-1.4895,-1.4689,-1.4474,-1.4258,-1.3905,-1.3622,-1.3404,-1.3258,-1.2886,-1.2592,-1.2291,-1.215,-1.2224,-1.2298,-1.2378,-1.2305,-1.2224,-1.2519,-1.3178,-1.3477,-1.3499,-1.3346,-1.3185,-1.3185,-1.3105,-1.3112,-1.3112,-1.3176,-1.3241,-1.3293,-3.1435,-3.1313,-3.1298,-3.1205,-3.1167,-3.0949,-3.0603,-3.0098,-2.9522,-2.8919,-2.8232,-2.7462,-2.6956,-2.6561,-2.5924,-2.548,-2.5216,-2.5116,-2.5056,-2.4996,-2.4606,-2.4226,-2.3679,-2.2868,-2.2155,-2.1527,-2.1081,-2.1248,-2.1733,-2.1252,-2.113,-2.1029,-2.104,-2.083,-2.0533,-2.0412,-2.0215,-1.9933,-1.9781,-1.9649,-1.9518,-1.8977,-1.824,-1.7716,-1.7088,-1.6612,-1.6333,-1.6061,-1.5817,-1.5601,-1.5428,-1.5248,-1.5146,-1.5163,-1.536,-1.5609,-1.554,-1.5386,-1.5437,-1.535,-1.5341,-1.5228,-1.5236,-1.5118,-1.5078,-1.5044,-1.4942,-1.458,-1.4673,-1.4883,-1.5299,-1.5158,-1.5242,-1.5384,-1.5275,-1.5125,-1.4982,-1.4848,-1.484,-1.4903,-1.5054,-1.4991,-1.4911,-1.4537,-1.4171,-1.389,-1.3608,-1.347,-1.3397,-1.3112,-1.2826,-1.2673,-1.2526,-1.2372,-1.2077,-1.1855,-1.1632,-1.1632,-1.1632,-1.1706,-1.1781,-1.1781,-1.1929,-1.2372,-1.2452,-1.2599,-1.2526,-1.2445,-1.2378,-1.2305,-1.2372,-1.2372,-1.2298,-1.2305,-1.2452,-3.0293,-3.0188,-3.0188,-3.0121,-3.0121,-2.9925,-2.9579,-2.9098,-2.8525,-2.8023,-2.7412,-2.6647,-2.6102,-2.5641,-2.4846,-2.4106,-2.3657,-2.3599,-2.3541,-2.3425,-2.3048,-2.2561,-2.1946,-2.1235,-2.0514,-2.0008,-1.9516,-1.9486,-2.0235,-2.0073,-1.9749,-1.9652,-1.9576,-1.9512,-1.9361,-1.9372,-1.9318,-1.9318,-1.9253,-1.9133,-1.8664,-1.8048,-1.7446,-1.6992,-1.6387,-1.586,-1.567,-1.5463,-1.5206,-1.4976,-1.4816,-1.4647,-1.4264,-1.4139,-1.4354,-1.4756,-1.4712,-1.4672,-1.4723,-1.4756,-1.4765,-1.4722,-1.4653,-1.4488,-1.4322,-1.4405,-1.423,-1.3711,-1.3745,-1.4188,-1.4566,-1.4417,-1.4447,-1.4617,-1.4489,-1.4274,-1.4129,-1.3912,-1.368,-1.3745,-1.389,-1.389,-1.3745,-1.3426,-1.2976,-1.3091,-1.2879,-1.2732,-1.2592,-1.2372,-1.2157,-1.2083,-1.1929,-1.1855,-1.1706,-1.1632,-1.1484,-1.1403,-1.1403,-1.1477,-1.1477,-1.1552,-1.17,-1.1781,-1.1781,-1.1855,-1.1781,-1.1855,-1.1929,-1.1929,-1.1781,-1.1781,-1.1929,-1.1929,-1.2009,-3.0136,-3.0,-2.9985,-3.0015,-2.9924,-2.9735,-2.9514,-2.9045,-2.8251,-2.7967,-2.7079,-2.6072,-2.5031,-2.4223,-2.308,-2.2433,-2.2356,-2.2407,-2.236,-2.226,-2.1857,-2.1399,-2.071,-2.0147,-1.9485,-1.8972,-1.8643,-1.862,-1.8913,-1.8797,-1.8642,-1.8539,-1.8582,-1.8403,-1.85,-1.8521,-1.835,-1.833,-1.8176,-1.7748,-1.7189,-1.6741,-1.6234,-1.5769,-1.5327,-1.4956,-1.4857,-1.4681,-1.4438,-1.4372,-1.4264,-1.4239,-1.4156,-1.3801,-1.3686,-1.3849,-1.3998,-1.4222,-1.4247,-1.4264,-1.4264,-1.4214,-1.4206,-1.4181,-1.3991,-1.3672,-1.3494,-1.3423,-1.3282,-1.3433,-1.3842,-1.38,-1.387,-1.3841,-1.3695,-1.3477,-1.3258,-1.3032,-1.2732,-1.2439,-1.2652,-1.2659,-1.2592,-1.2184,-1.1864,-1.205,-1.215,-1.199,-1.189,-1.1636,-1.1476,-1.1384,-1.1391,-1.1335,-1.1335,-1.126,-1.1335,-1.1254,-1.1254,-1.1254,-1.1335,-1.1335,-1.126,-1.126,-1.126,-1.1335,-1.1409,-1.1484,-1.1632,-1.1558,-1.1409,-1.1484,-1.1706,-1.1706,-1.1558,-2.8091,-2.8737,-2.8752,-2.851,-2.8193,-2.7961,-2.7518,-2.6931,-2.628,-2.5748,-2.5259,-2.4392,-2.354,-2.286,-2.2201,-2.203,-2.1992,-2.1831,-2.1759,-2.1511,-2.1138,-2.0698,-2.0111,-1.9367,-1.8695,-1.8228,-1.7739,-1.7408,-1.7611,-1.8016,-1.8262,-1.8047,-1.8068,-1.807,-1.7871,-1.7883,-1.7915,-1.7802,-1.7471,-1.7024,-1.651,-1.5927,-1.5422,-1.5236,-1.4698,-1.4427,-1.4296,-1.4272,-1.4007,-1.3835,-1.3753,-1.3574,-1.3363,-1.3121,-1.3032,-1.3048,-1.3162,-1.3412,-1.3655,-1.3688,-1.364,-1.3583,-1.3558,-1.3413,-1.3172,-1.2972,-1.2696,-1.2416,-1.234,-1.255,-1.2916,-1.2709,-1.289,-1.2913,-1.2813,-1.2599,-1.2372,-1.2077,-1.1848,-1.1558,-1.1341,-1.1484,-1.1632,-1.1391,-1.1218,-1.1452,-1.1421,-1.1285,-1.1077,-1.0858,-1.0785,-1.0791,-1.0843,-1.0887,-1.0962,-1.1037,-1.1111,-1.1111,-1.1186,-1.1186,-1.1111,-1.1111,-1.1037,-1.0962,-1.0962,-1.1037,-1.1111,-1.1111,-1.1186,-1.1111,-1.0962,-1.1111,-1.1186,-1.1037,-1.0962,-2.6374,-2.718,-2.7195,-2.6861,-2.6426,-2.6188,-2.5819,-2.5121,-2.4626,-2.4146,-2.3561,-2.2896,-2.2178,-2.1722,-2.1498,-2.1278,-2.1409,-2.1285,-2.1121,-2.0902,-2.0501,-1.9924,-1.9217,-1.8487,-1.7849,-1.7466,-1.6875,-1.6602,-1.6748,-1.711,-1.7465,-1.757,-1.7434,-1.7436,-1.7367,-1.7305,-1.7274,-1.7022,-1.6463,-1.6104,-1.5679,-1.5007,-1.4644,-1.435,-1.4126,-1.3875,-1.381,-1.3778,-1.3533,-1.3339,-1.3131,-1.2963,-1.2671,-1.2569,-1.2545,-1.2553,-1.2609,-1.2663,-1.2861,-1.2987,-1.2996,-1.302,-1.2885,-1.2735,-1.243,-1.2182,-1.1941,-1.1626,-1.1416,-1.1531,-1.1727,-1.1648,-1.1834,-1.1998,-1.1929,-1.1706,-1.1471,-1.1279,-1.1069,-1.0887,-1.0738,-1.0588,-1.0663,-1.0588,-1.0651,-1.087,-1.0799,-1.0522,-1.0405,-1.0211,-1.0263,-1.0353,-1.0481,-1.0564,-1.0657,-1.0732,-1.0881,-1.0962,-1.0962,-1.1037,-1.1037,-1.1037,-1.0962,-1.0887,-1.0738,-1.0663,-1.0663,-1.0663,-1.0663,-1.0738,-1.0738,-1.0588,-1.0588,-1.0513,-1.0513,-2.5706,-2.5545,-2.5482,-2.5435,-2.5405,-2.5372,-2.5169,-2.4757,-2.4326,-2.3862,-2.3265,-2.2179,-2.1275,-2.0934,-2.0458,-2.0179,-2.0013,-1.9911,-1.9793,-1.9543,-1.9202,-1.8708,-1.8052,-1.7412,-1.692,-1.653,-1.6177,-1.6005,-1.6039,-1.6219,-1.6417,-1.6487,-1.6694,-1.656,-1.6481,-1.6526,-1.6229,-1.5898,-1.5332,-1.4799,-1.4441,-1.39,-1.3475,-1.3177,-1.3001,-1.2816,-1.2693,-1.2693,-1.2669,-1.2589,-1.2451,-1.2381,-1.2195,-1.2073,-1.2065,-1.2065,-1.2081,-1.2011,-1.2093,-1.244,-1.2629,-1.2591,-1.246,-1.2197,-1.1912,-1.1725,-1.1435,-1.0926,-1.0737,-1.0712,-1.0805,-1.0855,-1.0872,-1.1027,-1.1034,-1.0765,-1.0625,-1.0518,-1.0319,-1.026,-1.0082,-0.9914,-0.9892,-0.9854,-1.0153,-1.045,-1.0252,-1.0047,-0.9902,-0.9816,-0.993,-1.001,-1.0124,-1.0279,-1.0467,-1.0571,-1.0582,-1.0738,-1.0818,-1.0887,-1.1037,-1.0962,-1.0812,-1.0669,-1.0594,-1.0443,-1.0293,-1.0293,-1.0368,-1.0438,-1.0438,-1.0368,-1.0363,-1.0363,-1.0363,-2.3535,-2.2847,-2.2673,-2.3435,-2.4661,-2.4599,-2.4224,-2.3627,-2.3174,-2.2533,-2.1887,-2.1003,-2.0501,-2.027,-2.0013,-1.961,-1.9359,-1.9208,-1.882,-1.8336,-1.7912,-1.7415,-1.6782,-1.6352,-1.5954,-1.5756,-1.5614,-1.5693,-1.5894,-1.5756,-1.5904,-1.6029,-1.6005,-1.6097,-1.6046,-1.5725,-1.5259,-1.4661,-1.4157,-1.3575,-1.3121,-1.2596,-1.2183,-1.1958,-1.185,-1.1733,-1.1674,-1.1674,-1.1674,-1.1698,-1.1647,-1.1611,-1.1626,-1.156,-1.1501,-1.1501,-1.1508,-1.1409,-1.1472,-1.1811,-1.2004,-1.1803,-1.1719,-1.1556,-1.1328,-1.116,-1.0836,-1.0421,-0.9945,-0.9894,-1.0051,-0.9857,-0.9691,-0.9984,-1.0047,-0.9846,-0.9768,-0.9728,-0.9656,-0.961,-0.9384,-0.9145,-0.9155,-0.9171,-0.9567,-0.9929,-0.9777,-0.9524,-0.9388,-0.9286,-0.9386,-0.9552,-0.968,-0.9913,-1.0092,-1.0193,-1.0351,-1.0496,-1.0565,-1.0697,-1.0754,-1.0738,-1.0588,-1.0519,-1.0363,-1.0126,-0.9976,-0.9916,-0.9976,-1.0013,-1.011,-1.0073,-1.0143,-1.0093,-1.006,-2.2094,-2.137,-2.1099,-2.1829,-2.3126,-2.3139,-2.2728,-2.2205,-2.179,-2.1148,-2.0307,-1.9917,-1.9634,-1.9497,-1.9359,-1.9133,-1.877,-1.8572,-1.8166,-1.7739,-1.7324,-1.6685,-1.6069,-1.5622,-1.5394,-1.5195,-1.4984,-1.5099,-1.5233,-1.5312,-1.5263,-1.5253,-1.5352,-1.5399,-1.5572,-1.5038,-1.4424,-1.3831,-1.3159,-1.2712,-1.2256,-1.1752,-1.1422,-1.1324,-1.129,-1.1233,-1.1249,-1.1264,-1.1241,-1.1184,-1.1104,-1.1016,-1.1001,-1.0986,-1.0929,-1.0929,-1.0922,-1.0835,-1.0948,-1.1214,-1.1395,-1.1261,-1.0974,-1.0725,-1.0506,-1.0289,-0.9875,-0.9426,-0.9095,-0.9,-0.9208,-0.8923,-0.8969,-0.9297,-0.9301,-0.9204,-0.9122,-0.9061,-0.8964,-0.8877,-0.876,-0.8771,-0.873,-0.875,-0.8855,-0.9216,-0.9088,-0.8921,-0.8719,-0.8714,-0.8695,-0.8949,-0.9157,-0.94,-0.9717,-0.9876,-1.0146,-1.0188,-1.0262,-1.0359,-1.037,-1.0336,-1.0335,-1.0293,-1.0132,-0.9884,-0.967,-0.9532,-0.9543,-0.9569,-0.9612,-0.9538,-0.9552,-0.9488,-0.9531,-2.1831,-2.1465,-2.1204,-2.1003,-2.094,-2.0826,-2.0784,-2.0798,-2.0526,-2.0031,-1.9344,-1.9027,-1.8686,-1.8488,-1.8493,-1.8332,-1.8159,-1.8001,-1.77,-1.7303,-1.6811,-1.6486,-1.5875,-1.5284,-1.4842,-1.4588,-1.4384,-1.4253,-1.4341,-1.4439,-1.439,-1.4287,-1.4419,-1.4513,-1.5139,-1.4429,-1.3774,-1.3231,-1.2523,-1.2049,-1.1638,-1.1169,-1.0994,-1.0875,-1.0867,-1.0789,-1.0781,-1.0781,-1.0773,-1.0781,-1.0684,-1.0628,-1.0643,-1.0546,-1.0504,-1.0526,-1.0435,-1.0326,-1.0177,-1.061,-1.0662,-1.0534,-1.0215,-0.9891,-0.955,-0.9193,-0.8907,-0.8523,-0.8165,-0.8046,-0.8032,-0.8103,-0.8342,-0.8546,-0.8553,-0.8528,-0.8508,-0.8428,-0.8393,-0.8304,-0.8553,-0.8629,-0.8553,-0.8477,-0.8366,-0.8409,-0.8326,-0.8292,-0.822,-0.8204,-0.8332,-0.8451,-0.8743,-0.8964,-0.9225,-0.9601,-0.9856,-0.9878,-0.9941,-0.9935,-0.9941,-0.9935,-0.9968,-1.0054,-0.9862,-0.9516,-0.9312,-0.9114,-0.9,-0.8872,-0.897,-0.8908,-0.8928,-0.9019,-0.9098,-2.0948,-2.0161,-1.9894,-1.9637,-1.9544,-2.0328,-2.0599,-2.0429,-2.0128,-1.9677,-1.9256,-1.8878,-1.8554,-1.832,-1.8044,-1.78,-1.7399,-1.7198,-1.6939,-1.6368,-1.5975,-1.5414,-1.4934,-1.4556,-1.4173,-1.4073,-1.3844,-1.3834,-1.417,-1.399,-1.4048,-1.4058,-1.3609,-1.358,-1.3647,-1.3199,-1.2668,-1.2,-1.1479,-1.1015,-1.0668,-1.0417,-1.0264,-1.0149,-1.021,-1.0217,-1.0232,-1.0247,-1.0247,-1.024,-1.0139,-1.0124,-1.0117,-1.0009,-0.9933,-0.9865,-0.9749,-0.9585,-0.9326,-0.9315,-0.935,-0.9371,-0.9272,-0.8915,-0.8575,-0.8352,-0.8052,-0.7758,-0.749,-0.7502,-0.7752,-0.7565,-0.7722,-0.7923,-0.7986,-0.787,-0.7821,-0.7831,-0.7821,-0.7807,-0.7937,-0.7981,-0.7956,-0.8068,-0.7994,-0.795,-0.8021,-0.8067,-0.8022,-0.8077,-0.8108,-0.8174,-0.8322,-0.846,-0.8718,-0.9139,-0.9306,-0.9312,-0.9401,-0.9472,-0.9472,-0.9472,-0.946,-0.943,-0.9325,-0.9139,-0.8852,-0.8558,-0.8299,-0.8161,-0.8369,-0.8553,-0.8648,-0.8759,-0.8836,-2.0354,-1.9581,-1.9273,-1.8988,-1.8955,-1.9672,-1.9932,-1.9753,-1.9376,-1.9035,-1.8618,-1.831,-1.7926,-1.7713,-1.7472,-1.726,-1.6741,-1.6478,-1.6236,-1.5582,-1.5119,-1.4729,-1.4298,-1.3821,-1.3665,-1.3561,-1.3481,-1.3437,-1.3603,-1.361,-1.3488,-1.3288,-1.302,-1.2712,-1.2531,-1.222,-1.185,-1.1328,-1.0867,-1.0438,-1.0112,-0.9836,-0.9717,-0.971,-0.9658,-0.965,-0.9629,-0.9614,-0.9614,-0.9614,-0.9614,-0.9614,-0.9614,-0.9562,-0.951,-0.9465,-0.9152,-0.8949,-0.8593,-0.8281,-0.8331,-0.8271,-0.8178,-0.8019,-0.7711,-0.7475,-0.7307,-0.7109,-0.6939,-0.707,-0.7264,-0.7059,-0.7321,-0.7522,-0.7669,-0.7559,-0.755,-0.7569,-0.7569,-0.754,-0.7531,-0.7526,-0.7526,-0.7545,-0.7639,-0.7686,-0.7666,-0.7787,-0.7852,-0.7857,-0.7862,-0.7917,-0.8006,-0.8228,-0.8437,-0.8744,-0.885,-0.8757,-0.8875,-0.8944,-0.8875,-0.888,-0.8852,-0.884,-0.8831,-0.8619,-0.8329,-0.801,-0.7841,-0.787,-0.7943,-0.8137,-0.8353,-0.8388,-0.8418,-2.008,-1.9762,-1.9369,-1.9124,-1.8993,-1.8878,-1.8694,-1.8534,-1.8337,-1.7977,-1.7555,-1.7426,-1.7111,-1.6591,-1.6467,-1.6374,-1.621,-1.5965,-1.5706,-1.5402,-1.4926,-1.4477,-1.4046,-1.3621,-1.3405,-1.3153,-1.3057,-1.3047,-1.2949,-1.2937,-1.2769,-1.2445,-1.2264,-1.1977,-1.1716,-1.1505,-1.1226,-1.0828,-1.0462,-1.0102,-0.9844,-0.9673,-0.9621,-0.9614,-0.9614,-0.9614,-0.9614,-0.9614,-0.9614,-0.9614,-0.9614,-0.9614,-0.9614,-0.9562,-0.951,-0.9249,-0.8837,-0.8408,-0.7984,-0.767,-0.7408,-0.7348,-0.7311,-0.7101,-0.6965,-0.6809,-0.6683,-0.6597,-0.6524,-0.6673,-0.6735,-0.6951,-0.7106,-0.7305,-0.754,-0.7531,-0.7531,-0.7536,-0.7536,-0.7526,-0.7526,-0.7526,-0.7526,-0.7526,-0.7526,-0.7526,-0.7591,-0.7591,-0.7657,-0.7657,-0.7661,-0.7676,-0.7778,-0.7966,-0.8215,-0.8338,-0.8386,-0.8316,-0.8368,-0.8435,-0.8368,-0.8383,-0.8414,-0.8417,-0.8414,-0.818,-0.7864,-0.7655,-0.7541,-0.7593,-0.7721,-0.7797,-0.7947,-0.7826,-0.7821,-2.008,-1.9762,-1.9545,-1.9317,-1.8955,-1.8567,-1.8333,-1.8282,-1.8135,-1.7841,-1.7475,-1.7173,-1.685,-1.6479,-1.6219,-1.6044,-1.5869,-1.5691,-1.548,-1.5153,-1.48,-1.4337,-1.3905,-1.3525,-1.3296,-1.3123,-1.2988,-1.2891,-1.2842,-1.2676,-1.2323,-1.2045,-1.1769,-1.1469,-1.1116,-1.0863,-1.0667,-1.047,-1.0162,-0.9895,-0.9732,-0.9621,-0.9614,-0.9614,-0.9614,-0.9614,-0.9614,-0.9614,-0.9614,-0.9614,-0.9614,-0.9614,-0.9614,-0.9517,-0.9361,-0.8837,-0.8355,-0.7925,-0.7503,-0.7192,-0.6928,-0.6707,-0.6707,-0.6652,-0.6495,-0.6391,-0.6282,-0.6306,-0.635,-0.6587,-0.6749,-0.6974,-0.7144,-0.7329,-0.7517,-0.7526,-0.7526,-0.7526,-0.7526,-0.7526,-0.7526,-0.7526,-0.7526,-0.7526,-0.7526,-0.7526,-0.7526,-0.7526,-0.7526,-0.7461,-0.7526,-0.754,-0.7564,-0.7807,-0.7783,-0.7883,-0.7925,-0.7895,-0.7976,-0.8052,-0.8052,-0.8062,-0.8067,-0.7922,-0.7758,-0.7639,-0.7446,-0.7288,-0.726,-0.7456,-0.7569,-0.7545,-0.7526,-0.7526,-0.7461,-1.9336,-1.9065,-1.8892,-1.8651,-1.8418,-1.8313,-1.8214,-1.8095,-1.8016,-1.776,-1.7475,-1.7144,-1.6765,-1.6362,-1.6088,-1.5824,-1.5647,-1.5525,-1.5255,-1.4926,-1.4616,-1.414,-1.3716,-1.3382,-1.321,-1.3027,-1.2929,-1.2783,-1.2725,-1.2372,-1.2026,-1.1578,-1.1377,-1.1023,-1.0718,-1.0462,-1.0265,-1.011,-0.9903,-0.9732,-0.9673,-0.9614,-0.9614,-0.9614,-0.9614,-0.9614,-0.9614,-0.9614,-0.9614,-0.9614,-0.9614,-0.9562,-0.9517,-0.9316,-0.9001,-0.8521,-0.8043,-0.7616,-0.7192,-0.6869,-0.6603,-0.6386,-0.6332,-0.6332,-0.6332,-0.6287,-0.6228,-0.6251,-0.6374,-0.6562,-0.6832,-0.7036,-0.7239,-0.7497,-0.7512,-0.7526,-0.7526,-0.7526,-0.7526,-0.7526,-0.7526,-0.7526,-0.7526,-0.7526,-0.7526,-0.7526,-0.7461,-0.7461,-0.7461,-0.7461,-0.7461,-0.7531,-0.7531,-0.7559,-0.7526,-0.7526,-0.755,-0.763,-0.7695,-0.7756,-0.7782,-0.7671,-0.7522,-0.7315,-0.7104,-0.6955,-0.6832,-0.6951,-0.7003,-0.7129,-0.726,-0.733,-0.7396,-0.7456,-0.7456,-1.8159,-1.8046,-1.7742,-1.7708,-1.7618,-1.8004,-1.8149,-1.8002,-1.7909,-1.7706,-1.7447,-1.7073,-1.6663,-1.6231,-1.5925,-1.5703,-1.5513,-1.5345,-1.5074,-1.4651,-1.4384,-1.3905,-1.3478,-1.3152,-1.3017,-1.2881,-1.2735,-1.2588,-1.2431,-1.2076,-1.1578,-1.1074,-1.0871,-1.0565,-1.0198,-1.0043,-0.9895,-0.974,-0.974,-0.9681,-0.9621,-0.9614,-0.9614,-0.9614,-0.9614,-0.9614,-0.9614,-0.9614,-0.9562,-0.9614,-0.9562,-0.951,-0.9263,-0.9001,-0.8685,-0.8262,-0.7729,-0.73,-0.6928,-0.6603,-0.6386,-0.6282,-0.6173,-0.6228,-0.6228,-0.6232,-0.6178,-0.6243,-0.6403,-0.6595,-0.6801,-0.7111,-0.7333,-0.7432,-0.7391,-0.733,-0.733,-0.7265,-0.7265,-0.7265,-0.7265,-0.733,-0.733,-0.7265,-0.7269,-0.7396,-0.733,-0.7265,-0.7199,-0.7199,-0.7265,-0.733,-0.7265,-0.7265,-0.726,-0.726,-0.7326,-0.7396,-0.7391,-0.7391,-0.7326,-0.7199,-0.7007,-0.6741,-0.6474,-0.6416,-0.6354,-0.6412,-0.6474,-0.6675,-0.6802,-0.7003,-0.7134,-0.7195,-0.7265,-1.805,-1.7919,-1.7964,-1.7849,-1.7697,-1.8018,-1.8069,-1.7909,-1.7693,-1.7529,-1.7337,-1.6947,-1.6522,-1.6144,-1.5836,-1.557,-1.5345,-1.5153,-1.488,-1.4512,-1.415,-1.3668,-1.319,-1.2968,-1.2832,-1.2627,-1.248,-1.2234,-1.1927,-1.1578,-1.1175,-1.0608,-1.036,-1.0051,-0.9673,-0.9569,-0.9524,-0.9427,-0.9472,-0.9577,-0.9569,-0.9614,-0.9614,-0.9614,-0.9614,-0.9614,-0.9614,-0.9614,-0.951,-0.9458,-0.9465,-0.9263,-0.8962,-0.8745,-0.8315,-0.7783,-0.7408,-0.6977,-0.6657,-0.6391,-0.6282,-0.6228,-0.6173,-0.6173,-0.6173,-0.6173,-0.6215,-0.6295,-0.644,-0.6641,-0.6843,-0.7168,-0.7321,-0.7298,-0.7265,-0.7138,-0.7073,-0.7073,-0.7073,-0.7073,-0.7073,-0.7073,-0.7073,-0.7073,-0.7007,-0.7007,-0.6872,-0.6806,-0.6741,-0.6675,-0.6675,-0.6741,-0.6872,-0.6872,-0.6868,-0.6868,-0.6868,-0.6937,-0.6937,-0.6937,-0.6868,-0.6605,-0.6276,-0.6013,-0.5815,-0.5749,-0.5686,-0.5679,-0.5811,-0.6079,-0.621,-0.6408,-0.6544,-0.6605,-0.6806,-1.7136,-1.7075,-1.7562,-1.7561,-1.7396,-1.7957,-1.8109,-1.7882,-1.7611,-1.7365,-1.7128,-1.6778,-1.6392,-1.6057,-1.5748,-1.5435,-1.5165,-1.4971,-1.4616,-1.4244,-1.3858,-1.343,-1.3104,-1.2832,-1.2686,-1.248,-1.2126,-1.1828,-1.1418,-1.0964,-1.0557,-1.0138,-0.9888,-0.9577,-0.9309,-0.9309,-0.9256,-0.9211,-0.9256,-0.9361,-0.9517,-0.9569,-0.9614,-0.9614,-0.9562,-0.951,-0.951,-0.9458,-0.9361,-0.9204,-0.9099,-0.8896,-0.8586,-0.8315,-0.7937,-0.7509,-0.7133,-0.6756,-0.6495,-0.6282,-0.6173,-0.6173,-0.6173,-0.6173,-0.6114,-0.6114,-0.6173,-0.6271,-0.6495,-0.6644,-0.6763,-0.698,-0.7035,-0.6994,-0.6937,-0.6876,-0.6745,-0.6679,-0.6679,-0.6679,-0.6679,-0.6679,-0.6679,-0.6679,-0.6679,-0.6544,-0.6474,-0.6276,-0.6214,-0.6083,-0.6083,-0.6086,-0.6148,-0.628,-0.6346,-0.6346,-0.6346,-0.6416,-0.6416,-0.6284,-0.6148,-0.5881,-0.5613,-0.5348,-0.515,-0.5017,-0.4951,-0.5017,-0.515,-0.5355,-0.555,-0.5749,-0.5881,-0.6017,-0.6017,-1.6029,-1.6023,-1.6816,-1.6992,-1.6874,-1.7744,-1.8052,-1.7828,-1.7557,-1.7227,-1.6876,-1.6565,-1.6175,-1.5869,-1.557,-1.5244,-1.4915,-1.4743,-1.4384,-1.3962,-1.3563,-1.319,-1.291,-1.2627,-1.2431,-1.2175,-1.1819,-1.1368,-1.0913,-1.0498,-1.0087,-0.9718,-0.9517,-0.9256,-0.9211,-0.9159,-0.9106,-0.9113,-0.9166,-0.9263,-0.9368,-0.9465,-0.9569,-0.9517,-0.9465,-0.9368,-0.9309,-0.9204,-0.9061,-0.8896,-0.8679,-0.8415,-0.8203,-0.7883,-0.7557,-0.7182,-0.6864,-0.6598,-0.6386,-0.6282,-0.6228,-0.6173,-0.6173,-0.6119,-0.6059,-0.6005,-0.6119,-0.6132,-0.6285,-0.6451,-0.6506,-0.6582,-0.6621,-0.6515,-0.6515,-0.6408,-0.628,-0.6214,-0.6218,-0.6218,-0.6218,-0.6218,-0.6218,-0.6218,-0.6148,-0.6013,-0.5881,-0.5749,-0.555,-0.5352,-0.5286,-0.5289,-0.5289,-0.5488,-0.569,-0.569,-0.562,-0.5686,-0.562,-0.5491,-0.5359,-0.509,-0.4821,-0.4625,-0.4425,-0.4356,-0.4356,-0.4422,-0.4558,-0.4691,-0.4824,-0.502,-0.5216,-0.5282,-0.5153,-1.5926,-1.5873,-1.6316,-1.6593,-1.6845,-1.7339,-1.7616,-1.7666,-1.7366,-1.706,-1.6591,-1.6269,-1.5913,-1.5703,-1.5447,-1.5119,-1.4754,-1.4512,-1.4186,-1.3821,-1.3276,-1.2949,-1.2666,-1.2372,-1.2076,-1.1728,-1.1368,-1.0913,-1.0446,-1.0028,-0.9666,-0.9309,-0.9159,-0.9001,-0.889,-0.8883,-0.8856,-0.8901,-0.8967,-0.902,-0.9159,-0.9263,-0.9413,-0.9361,-0.9309,-0.9211,-0.9054,-0.8837,-0.8685,-0.8474,-0.8196,-0.7937,-0.7723,-0.7456,-0.7182,-0.6912,-0.6593,-0.6436,-0.6277,-0.6228,-0.6173,-0.6123,-0.6123,-0.6064,-0.595,-0.5786,-0.5736,-0.5419,-0.5604,-0.5706,-0.5817,-0.6017,-0.6046,-0.5762,-0.5636,-0.5508,-0.5348,-0.5352,-0.5418,-0.5488,-0.5557,-0.5557,-0.5557,-0.5488,-0.5352,-0.5219,-0.502,-0.4888,-0.4755,-0.4622,-0.4422,-0.4422,-0.4425,-0.4558,-0.4758,-0.4824,-0.4824,-0.4891,-0.4891,-0.4758,-0.4558,-0.4361,-0.4095,-0.3959,-0.3892,-0.3889,-0.3889,-0.3823,-0.3959,-0.4092,-0.4161,-0.4295,-0.4489,-0.4553,-0.4422]},{"header":{"parameterUnit":"m.s-1","parameterCategory":1,"la1":31.0,"la2":29.5877,"lo1":-88.7671,"lo2":-86.6584,"dy":0.0162,"dx":0.0185,"nx":115,"ny":88,"refTime":"2023-08-04T18:00:00:Z","depth":0,"parameterNumber":3,"parameterNumberName":"V-component_of_WINDS"},"data":[0.0,0.0,0.0,0.0,0.0,0.0,0.0,0.0,0.0,0.0,0.0,0.0,0.0,0.0,0.0,0.0,0.0,0.0,0.0,0.0,0.0,0.0,0.0,0.0,0.0,0.0,0.0,0.0,0.0,0.0,0.0,0.0,0.0,0.0,0.0,0.0,0.0,0.0,0.0,0.0,0.0,0.0,0.0,0.0,0.0,0.0,0.0,0.0,0.0,0.0,0.0,0.0,0.0,0.0,0.0,0.0,0.0,0.0,0.0,0.0,0.0,0.0,0.0,0.0,0.0,0.0,0.0,0.0,0.0,0.0,0.0,0.0,0.0,0.0,0.0,0.0,0.0,0.0,0.0,0.0,0.0,0.0,0.0,0.0,0.0,0.0,0.0,0.0,0.0,0.0,0.0,0.0,0.0,0.0,0.0,0.0,0.0,0.0,0.0,0.0,0.0,0.0,0.0,0.0,0.0,0.0,0.0,0.0,0.0,0.0,0.0,0.0,0.0,0.0,0.0,0.0,0.0,0.0,0.0,0.0,0.0,0.0,0.0,0.0,0.0,0.0,0.0,0.0,0.0,0.0,0.0,0.0,0.0,0.0,0.0,0.0,0.0,0.0,0.0,0.0,0.0,0.0,0.0,0.0,0.0,0.0,0.0,0.0,0.0,0.0,0.0,0.0,0.0,0.0,0.0,0.0,0.0,0.0,0.0,0.0,0.0,0.0,0.0,0.0,0.0,0.0,0.0,0.0,0.0,0.0,0.0,0.0,0.0,0.0,0.0,0.0,0.0,0.0,0.0,0.0,0.0,0.0,0.0,0.0,0.0,0.0,0.0,0.0,0.0,0.0,0.0,0.0,0.0,0.0,0.0,0.0,0.0,0.0,0.0,0.0,0.0,0.0,0.0,0.0,0.0,0.0,0.0,0.0,0.0,0.0,0.0,0.0,0.0,0.0,0.0,0.0,0.0,0.0,0.0,0.0,0.0,0.0,0.0,0.0,0.0,0.0,0.0,0.0,0.0,0.0,0.0,0.0,0.0,0.0,0.0,0.0,0.0,0.0,0.0,0.0,0.0,0.0,0.0,0.0,0.0,0.0,0.0,0.0,0.0,0.0,0.0,0.0,0.0,0.0,0.0,0.0,0.0,0.0,0.0,0.0,0.0,0.0,0.0,0.0,0.0,0.0,0.0,0.0,0.0,0.0,0.0,0.0,0.0,0.0,0.0,0.0,0.0,0.0,0.0,0.0,0.0,0.0,0.0,0.0,0.0,0.0,0.0,0.0,0.0,0.0,0.0,0.0,0.0,0.0,0.0,0.0,0.0,0.0,0.0,0.0,0.0,0.0,0.0,0.0,0.0,0.0,0.0,0.0,0.0,0.0,0.0,0.0,0.0,0.0,0.0,0.0,0.0,0.0,0.0,0.0,0.0,0.0,0.0,0.0,0.0,0.0,0.0,0.0,0.0,0.0,0.0,0.0,0.0,0.0,0.0,0.0,0.0,0.0,0.0,0.0,0.0,0.0,0.0,0.0,0.0,0.0,0.0,0.0,0.0,0.0,0.0,0.0,0.0,0.0,0.0,0.0,0.0,0.0,0.0,0.0,0.0,0.0,0.0,0.0,0.0,0.0,0.0,0.0,0.0,0.0,0.0,0.0,0.0,0.0,0.0,0.0,0.0,0.0,0.0,0.0,0.0,0.0,0.0,0.0,0.0,0.0,0.0,0.0,0.0,0.0,0.0,0.0,0.0,0.0,0.0,0.0,0.0,0.0,0.0,0.0,0.0,0.0,0.0,0.0,0.0,0.0,0.0,0.0,0.0,0.0,0.0,0.0,0.0,0.0,0.0,0.0,0.0,0.0,0.0,0.0,0.0,0.0,0.0,0.0,0.0,0.0,0.0,0.0,0.0,0.0,0.0,0.0,0.0,0.0,0.0,0.0,0.0,0.0,0.0,0.0,0.0,0.0,0.0,0.0,0.0,0.0,0.0,0.0,0.0,0.0,0.0,0.0,0.0,0.0,0.0,0.0,0.0,0.0,0.0,0.0,0.0,0.0,0.0,0.0,0.0,0.0,0.0,0.0,0.0,0.0,0.0,0.0,0.0,0.0,0.0,0.0,0.0,0.0,0.0,0.0,0.0,0.0,0.0,0.0,0.0,0.0,0.0,0.0,0.0,0.0,0.0,0.0,0.0,0.0,0.0,0.0,0.0,0.0,0.0,0.0,0.0,0.0,0.0,0.0,0.0,0.0,0.0,0.0,0.0,0.0,0.0,0.0,0.0,0.0,0.0,0.0,0.0,0.0,0.0,0.0,0.0,0.0,0.0,0.0,0.0,0.0,0.0,0.0,0.0,0.0,0.0,0.0,0.0,0.0,0.0,0.0,0.0,0.0,0.0,0.0,0.0,0.0,0.0,0.0,0.0,0.0,0.0,0.0,0.0,0.0,0.0,0.0,0.0,0.0,0.0,0.0,0.0,0.0,0.0,0.0,0.0,0.0,0.0,0.0,0.0,0.0,0.0,0.0,0.0,0.0,0.0,0.0,0.0,0.0,0.0,0.0,0.0,0.0,0.0,0.0,0.0,0.0,0.0,0.0,0.0,0.0,0.0,0.0,0.0,0.0,0.0,0.0,0.0,0.0,0.0,0.0,0.0,0.0,0.0,0.0,0.0,0.0,0.0,0.0,0.0,0.0,0.0,0.0,0.0,0.0,0.0,0.0,0.0,0.0,0.0,0.0,0.0,0.0,0.0,0.0,0.0,0.0,0.0,0.0,0.0,0.0,0.0,0.0,0.0,0.0,0.0,0.0,0.0,0.0,0.0,0.0,0.0,0.0,0.0,0.0,0.0,0.0,0.0,0.0,0.0,0.0,0.0,0.0,0.0,0.0,0.0,0.0,0.0,0.0,0.0,0.0,0.0,0.0,0.0,0.0,0.0,0.0,0.0,0.0,0.0,0.0,0.0,0.0,0.0,0.0,0.0,0.0,0.0,0.0,0.0,0.0,0.0,0.0,0.0,0.0,0.0,0.0,0.0,0.0,0.0,0.0,0.0,0.0,0.0,0.0,0.0,0.0,0.0,0.0,0.0,0.0,0.0,0.0,0.0,0.0,0.0,0.0,0.0,0.0,0.0,0.0,0.0,0.0,0.0,0.0,0.0,0.0,0.0,0.0,0.0,0.0,0.0,0.0,0.0,0.0,0.0,0.0,0.0,0.0,0.0,0.0,0.0,0.0,0.0,0.0,0.0,0.0,0.0,0.0,0.0,0.0,0.0,0.0,0.0,0.0,0.0,0.0,0.0,0.0,0.0,0.0,0.0,0.0,0.0,0.0,0.0,0.0,0.0,0.0,0.0,0.0,0.0,0.0,0.0,0.0,0.0,0.0,0.0,0.0,0.0,0.0,0.0,0.0,0.0,0.0,0.0,0.0,0.0,0.0,0.0,0.0,0.0,0.0,0.0,0.0,0.0,0.0,0.0,0.0,0.0,0.0,0.0,0.0,0.0,0.0,0.0,0.0,0.0,0.0,0.0,0.0,0.0,0.0,0.0,0.0,0.0,0.0,0.0,0.0,0.0,0.0,0.0,0.0,0.0,0.0,0.0,0.0,0.0,0.0,0.0,0.0,0.0,0.0,0.0,0.0,0.0,0.0,0.0,0.0,0.0,0.0,0.0,0.0,0.0,0.0,0.0,0.0,0.0,0.0,0.0,0.0,0.0,0.0,0.0,0.0,0.0,0.0,0.0,0.0,0.0,0.0,0.0,0.0,0.0,0.0,0.0,0.0,0.0,0.0,0.0,0.0,0.0,0.0,0.0,0.0,0.0,0.0,0.0,0.0,0.0,0.0,0.0,0.0,0.0,0.0,0.0,0.0,0.0,0.0,0.0,0.0,0.0,0.0,0.0,0.0,0.0,0.0,0.0,0.0,0.0,0.0,0.0,0.0,0.0,0.0,0.0,0.0,0.0,0.0,0.0,0.0,0.0,0.0,0.0,0.0,0.0,0.0,0.0,0.0,0.0,0.0,0.0,0.0,0.0,0.0,0.0,0.0,0.0,0.0,0.0,0.0,0.0,0.0,0.0,0.0,0.0,0.0,0.0,0.0,0.0,0.0,0.0,0.0,0.0,0.0,0.0,0.0,0.0,0.0,0.0,0.0,0.0,0.0,0.0,0.0,0.0,0.0,0.0,0.0,0.0,0.0,0.0,0.0,0.0,0.0,0.0,0.0,0.0,0.0,0.0,0.0,0.0,0.0,0.0,0.0,0.0,0.0,0.0,0.0,0.0,0.0,-2.4298,0.0,0.0,0.0,0.0,0.0,0.0,0.0,0.0,0.0,0.0,0.0,0.0,0.0,0.0,0.0,0.0,0.0,0.0,0.0,0.0,0.0,0.0,0.0,0.0,0.0,0.0,0.0,0.0,0.0,0.0,0.0,0.0,0.0,0.0,0.0,0.0,0.0,0.0,0.0,0.0,0.0,0.0,0.0,0.0,0.0,0.0,0.0,0.0,0.0,0.0,0.0,0.0,0.0,0.0,0.0,0.0,0.0,0.0,0.0,0.0,0.0,0.0,0.0,0.0,0.0,0.0,0.0,0.0,0.0,0.0,0.0,0.0,0.0,0.0,0.0,0.0,0.0,0.0,0.0,0.0,0.0,0.0,0.0,0.0,0.0,0.0,0.0,0.0,0.0,0.0,0.0,0.0,0.0,0.0,0.0,0.0,0.0,0.0,0.0,0.0,0.0,0.0,0.0,0.0,0.0,0.0,0.0,0.0,0.0,0.0,-2.2167,-2.2567,-2.3017,-2.3533,-2.4182,0.0,0.0,0.0,0.0,0.0,0.0,0.0,0.0,0.0,0.0,0.0,0.0,0.0,0.0,0.0,0.0,0.0,0.0,0.0,0.0,0.0,0.0,0.0,0.0,0.0,0.0,0.0,0.0,0.0,0.0,0.0,0.0,0.0,0.0,0.0,0.0,0.0,0.0,0.0,0.0,0.0,0.0,0.0,0.0,0.0,0.0,0.0,0.0,0.0,0.0,0.0,0.0,0.0,0.0,0.0,0.0,0.0,0.0,0.0,0.0,0.0,0.0,0.0,0.0,0.0,0.0,0.0,0.0,0.0,0.0,0.0,0.0,0.0,0.0,0.0,0.0,0.0,0.0,0.0,0.0,0.0,0.0,0.0,0.0,0.0,0.0,0.0,0.0,0.0,0.0,0.0,0.0,0.0,0.0,0.0,0.0,0.0,0.0,0.0,0.0,0.0,0.0,0.0,0.0,0.0,0.0,0.0,0.0,0.0,0.0,0.0,0.0,-2.301,-2.3786,-2.4612,0.0,0.0,0.0,0.0,0.0,0.0,0.0,0.0,0.0,0.0,0.0,0.0,0.0,0.0,0.0,0.0,0.0,0.0,0.0,0.0,0.0,0.0,0.0,0.0,0.0,0.0,0.0,0.0,0.0,0.0,0.0,0.0,0.0,0.0,0.0,0.0,0.0,0.0,0.0,0.0,0.0,0.0,0.0,0.0,0.0,0.0,0.0,0.0,0.0,0.0,0.0,0.0,0.0,0.0,0.0,0.0,0.0,0.0,0.0,0.0,0.0,0.0,0.0,0.0,0.0,0.0,0.0,0.0,0.0,0.0,0.0,0.0,0.0,0.0,0.0,0.0,0.0,0.0,0.0,0.0,0.0,0.0,0.0,0.0,0.0,0.0,0.0,0.0,0.0,0.0,0.0,0.0,0.0,0.0,0.0,0.0,0.0,0.0,0.0,0.0,0.0,0.0,0.0,0.0,0.0,0.0,0.0,0.0,0.0,0.0,-2.0469,-2.1058,-2.1827,0.0,-2.5774,0.0,0.0,0.0,0.0,0.0,0.0,0.0,0.0,0.0,0.0,0.0,0.0,0.0,0.0,0.0,0.0,0.0,0.0,0.0,0.0,0.0,0.0,0.0,0.0,0.0,0.0,0.0,0.0,0.0,0.0,0.0,0.0,0.0,0.0,0.0,0.0,0.0,0.0,0.0,0.0,0.0,0.0,0.0,0.0,0.0,0.0,0.0,0.0,0.0,0.0,0.0,0.0,0.0,0.0,0.0,0.0,0.0,0.0,0.0,0.0,0.0,0.0,0.0,0.0,0.0,0.0,0.0,0.0,0.0,0.0,0.0,0.0,0.0,0.0,0.0,0.0,0.0,0.0,0.0,0.0,0.0,0.0,0.0,0.0,0.0,0.0,0.0,0.0,0.0,0.0,0.0,0.0,0.0,0.0,0.0,0.0,0.0,0.0,0.0,0.0,0.0,0.0,0.0,0.0,0.0,0.0,0.0,0.0,0.0,0.0,-1.9671,-2.0311,-2.2139,-2.3954,0.0,0.0,0.0,0.0,0.0,0.0,0.0,0.0,0.0,0.0,0.0,0.0,0.0,0.0,0.0,0.0,0.0,0.0,0.0,0.0,0.0,0.0,0.0,0.0,0.0,0.0,0.0,0.0,0.0,0.0,0.0,0.0,0.0,0.0,0.0,0.0,0.0,0.0,0.0,0.0,0.0,0.0,0.0,0.0,0.0,0.0,0.0,0.0,0.0,0.0,0.0,0.0,0.0,0.0,0.0,0.0,0.0,0.0,0.0,0.0,0.0,0.0,0.0,0.0,0.0,0.0,0.0,0.0,0.0,0.0,0.0,0.0,0.0,0.0,0.0,0.0,0.0,0.0,0.0,0.0,0.0,0.0,0.0,0.0,0.0,0.0,0.0,0.0,0.0,0.0,0.0,0.0,0.0,0.0,0.0,0.0,0.0,0.0,0.0,0.0,0.0,0.0,0.0,0.0,0.0,0.0,0.0,0.0,0.0,0.0,-1.8073,-1.8988,-2.0055,-2.2271,-2.41,-2.54,0.0,0.0,0.0,0.0,0.0,0.0,0.0,0.0,0.0,0.0,0.0,0.0,0.0,0.0,0.0,0.0,0.0,0.0,0.0,0.0,0.0,0.0,0.0,0.0,0.0,0.0,0.0,0.0,0.0,0.0,0.0,0.0,0.0,0.0,0.0,0.0,0.0,0.0,0.0,0.0,0.0,0.0,0.0,0.0,0.0,0.0,0.0,0.0,0.0,0.0,0.0,0.0,0.0,0.0,0.0,0.0,0.0,0.0,0.0,0.0,0.0,0.0,0.0,0.0,0.0,0.0,0.0,0.0,0.0,0.0,0.0,0.0,0.0,0.0,0.0,0.0,0.0,0.0,0.0,0.0,0.0,0.0,0.0,0.0,0.0,0.0,0.0,0.0,0.0,0.0,0.0,0.0,0.0,0.0,0.0,0.0,0.0,0.0,0.0,0.0,0.0,0.0,0.0,0.0,0.0,0.0,0.0,0.0,-1.632,-1.7122,-1.8428,-2.0239,-2.1797,-2.3307,0.0,0.0,0.0,0.0,0.0,0.0,0.0,0.0,0.0,0.0,0.0,0.0,0.0,0.0,0.0,0.0,0.0,0.0,0.0,0.0,0.0,0.0,0.0,0.0,0.0,0.0,0.0,0.0,0.0,0.0,0.0,0.0,0.0,0.0,0.0,0.0,0.0,0.0,0.0,0.0,0.0,0.0,0.0,0.0,0.0,0.0,0.0,0.0,0.0,0.0,0.0,0.0,0.0,0.0,0.0,0.0,0.0,0.0,0.0,0.0,0.0,0.0,0.0,0.0,0.0,0.0,0.0,0.0,0.0,0.0,0.0,0.0,0.0,0.0,0.0,0.0,0.0,0.0,0.0,0.0,0.0,0.0,0.0,0.0,0.0,0.0,0.0,0.0,0.0,0.0,0.0,0.0,0.0,0.0,0.0,0.0,0.0,0.0,0.0,0.0,0.0,0.0,0.0,0.0,0.0,0.0,0.0,0.0,0.0,-1.4911,-1.6172,-1.7543,-1.9106,-2.0713,-2.236,0.0,0.0,0.0,0.0,0.0,0.0,0.0,0.0,0.0,0.0,0.0,0.0,0.0,0.0,0.0,0.0,0.0,0.0,0.0,0.0,0.0,0.0,0.0,0.0,0.0,0.0,0.0,0.0,0.0,0.0,0.0,0.0,0.0,0.0,0.0,0.0,0.0,0.0,0.0,0.0,0.0,0.0,0.0,0.0,0.0,0.0,0.0,0.0,0.0,0.0,0.0,0.0,0.0,0.0,0.0,0.0,0.0,0.0,0.0,0.0,0.0,0.0,0.0,0.0,0.0,0.0,0.0,0.0,0.0,0.0,0.0,0.0,0.0,0.0,0.0,0.0,0.0,0.0,0.0,0.0,0.0,0.0,0.0,0.0,0.0,0.0,0.0,0.0,0.0,0.0,0.0,0.0,0.0,0.0,0.0,0.0,0.0,0.0,0.0,0.0,0.0,0.0,0.0,0.0,0.0,0.0,0.0,0.0,0.0,-1.4163,0.0,-1.6503,-1.7851,-1.9502,-2.1243,0.0,0.0,0.0,0.0,0.0,0.0,0.0,0.0,0.0,0.0,0.0,0.0,0.0,0.0,0.0,0.0,0.0,0.0,0.0,0.0,0.0,0.0,0.0,0.0,0.0,0.0,0.0,0.0,0.0,0.0,0.0,0.0,0.0,0.0,0.0,0.0,0.0,0.0,0.0,0.0,0.0,0.0,0.0,0.0,0.0,0.0,0.0,0.0,0.0,0.0,0.0,0.0,0.0,0.0,0.0,0.0,0.0,0.0,0.0,0.0,0.0,0.0,0.0,0.0,0.0,0.0,0.0,0.0,0.0,0.0,0.0,0.0,0.0,0.0,0.0,0.0,0.0,0.0,0.0,0.0,0.0,0.0,0.0,0.0,0.0,0.0,0.0,0.0,0.0,0.0,0.0,0.0,0.0,0.0,0.0,0.0,0.0,0.0,0.0,0.0,0.0,0.0,0.0,0.0,0.0,0.0,0.0,0.0,-1.4307,-1.4212,-1.4466,-1.5252,-1.6632,-1.8311,-2.0025,0.0,0.0,0.0,0.0,0.0,0.0,0.0,0.0,0.0,0.0,0.0,0.0,0.0,0.0,0.0,0.0,0.0,0.0,0.0,0.0,0.0,0.0,0.0,0.0,0.0,0.0,0.0,0.0,0.0,0.0,0.0,0.0,0.0,0.0,0.0,0.0,0.0,0.0,0.0,0.0,0.0,0.0,0.0,0.0,0.0,0.0,0.0,0.0,0.0,0.0,0.0,0.0,0.0,0.0,0.0,0.0,0.0,0.0,0.0,0.0,0.0,0.0,0.0,0.0,0.0,0.0,0.0,0.0,0.0,0.0,0.0,0.0,0.0,0.0,0.0,0.0,0.0,0.0,0.0,0.0,0.0,0.0,0.0,0.0,0.0,0.0,0.0,0.0,0.0,0.0,0.0,0.0,0.0,0.0,0.0,0.0,0.0,0.0,0.0,0.0,0.0,0.0,0.0,0.0,0.0,0.0,0.0,0.0,0.0,-1.291,-1.3555,-1.4432,-1.5638,-1.7507,-1.9451,0.0,0.0,0.0,0.0,0.0,0.0,0.0,0.0,0.0,0.0,0.0,0.0,0.0,0.0,0.0,0.0,0.0,0.0,0.0,0.0,0.0,0.0,0.0,0.0,0.0,0.0,0.0,0.0,0.0,0.0,0.0,0.0,0.0,0.0,0.0,0.0,0.0,0.0,0.0,0.0,0.0,0.0,0.0,0.0,0.0,0.0,0.0,0.0,0.0,0.0,0.0,0.0,0.0,0.0,0.0,0.0,0.0,0.0,0.0,0.0,0.0,0.0,0.0,0.0,0.0,0.0,0.0,0.0,0.0,0.0,0.0,0.0,0.0,0.0,0.0,0.0,0.0,0.0,0.0,0.0,0.0,0.0,0.0,0.0,0.0,0.0,0.0,0.0,0.0,0.0,0.0,0.0,0.0,0.0,0.0,0.0,0.0,0.0,0.0,0.0,0.0,0.0,0.0,0.0,0.0,0.0,0.0,0.0,0.0,-1.1595,-1.2516,-1.3518,-1.4801,-1.6878,-1.8935,-2.099,0.0,0.0,0.0,0.0,0.0,0.0,0.0,0.0,0.0,0.0,0.0,0.0,0.0,0.0,0.0,0.0,0.0,0.0,0.0,0.0,0.0,0.0,0.0,0.0,0.0,0.0,0.0,0.0,0.0,0.0,0.0,0.0,0.0,0.0,0.0,0.0,0.0,0.0,0.0,0.0,0.0,0.0,0.0,0.0,0.0,0.0,0.0,0.0,0.0,0.0,0.0,0.0,0.0,0.0,0.0,0.0,0.0,0.0,0.0,0.0,0.0,0.0,0.0,0.0,0.0,0.0,0.0,0.0,0.0,0.0,0.0,0.0,0.0,0.0,0.0,0.0,0.0,0.0,0.0,0.0,0.0,0.0,0.0,0.0,0.0,0.0,0.0,0.0,0.0,0.0,0.0,0.0,0.0,0.0,0.0,0.0,0.0,0.0,0.0,0.0,0.0,0.0,0.0,0.0,0.0,0.0,0.0,0.0,-1.0373,-1.1438,-1.2805,-1.4311,-1.6401,-1.8613,0.0,0.0,0.0,0.0,0.0,0.0,0.0,0.0,0.0,0.0,0.0,0.0,0.0,0.0,0.0,0.0,0.0,0.0,0.0,0.0,0.0,0.0,0.0,0.0,0.0,0.0,0.0,0.0,0.0,0.0,0.0,0.0,0.0,0.0,0.0,0.0,0.0,0.0,0.0,0.0,0.0,0.0,0.0,0.0,0.0,0.0,0.0,0.0,0.0,0.0,0.0,0.0,0.0,0.0,0.0,0.0,0.0,0.0,0.0,0.0,0.0,0.0,0.0,0.0,0.0,0.0,0.0,0.0,0.0,0.0,0.0,0.0,0.0,0.0,0.0,0.0,0.0,0.0,0.0,0.0,0.0,0.0,0.0,0.0,0.0,0.0,0.0,0.0,0.0,0.0,0.0,0.0,0.0,0.0,0.0,0.0,0.0,0.0,0.0,0.0,0.0,0.0,0.0,0.0,0.0,0.0,0.0,0.0,0.0,-1.1061,-1.1903,-1.2738,-1.3725,-1.5986,-1.8369,0.0,0.0,0.0,0.0,0.0,0.0,0.0,0.0,0.0,0.0,0.0,0.0,0.0,0.0,0.0,0.0,0.0,0.0,0.0,0.0,0.0,0.0,0.0,0.0,0.0,0.0,0.0,0.0,0.0,0.0,0.0,0.0,0.0,0.0,0.0,0.0,0.0,0.0,0.0,0.0,0.0,0.0,0.0,0.0,0.0,0.0,0.0,0.0,0.0,0.0,0.0,0.0,0.0,0.0,0.0,0.0,0.0,0.0,0.0,0.0,0.0,0.0,0.0,0.0,0.0,0.0,0.0,0.0,0.0,0.0,0.0,0.0,0.0,0.0,0.0,0.0,0.0,0.0,0.0,0.0,0.0,0.0,0.0,0.0,0.0,0.0,0.0,0.0,0.0,0.0,0.0,0.0,0.0,0.0,0.0,0.0,0.0,0.0,0.0,0.0,0.0,0.0,0.0,0.0,0.0,0.0,0.0,0.0,-1.1894,-1.1325,-1.2048,-1.2947,-1.4119,-1.6624,-1.8965,0.0,0.0,0.0,0.0,0.0,0.0,0.0,0.0,0.0,0.0,0.0,0.0,0.0,0.0,0.0,0.0,0.0,0.0,0.0,0.0,0.0,0.0,0.0,0.0,0.0,0.0,0.0,0.0,0.0,0.0,0.0,0.0,0.0,0.0,0.0,0.0,0.0,0.0,0.0,0.0,0.0,0.0,0.0,0.0,0.0,0.0,0.0,0.0,0.0,0.0,0.0,0.0,0.0,0.0,0.0,0.0,0.0,0.0,0.0,0.0,0.0,0.0,0.0,0.0,0.0,0.0,0.0,0.0,0.0,0.0,0.0,0.0,0.0,0.0,0.0,0.0,0.0,0.0,0.0,0.0,0.0,0.0,0.0,0.0,0.0,0.0,0.0,0.0,0.0,0.0,0.0,0.0,0.0,0.0,0.0,0.0,0.0,0.0,0.0,0.0,0.0,0.0,0.0,0.0,0.0,0.0,0.0,0.0,-1.2219,-1.1518,-1.2271,-1.3527,-1.5346,-1.7719,-1.9917,0.0,0.0,0.0,0.0,0.0,0.0,0.0,0.0,0.0,0.0,0.0,0.0,0.0,0.0,0.0,0.0,0.0,0.0,0.0,0.0,0.0,0.0,0.0,0.0,0.0,0.0,0.0,0.0,0.0,0.0,0.0,0.0,0.0,0.0,0.0,0.0,0.0,0.0,0.0,0.0,0.0,0.0,0.0,0.0,0.0,0.0,0.0,0.0,0.0,0.0,0.0,0.0,0.0,0.0,0.0,0.0,0.0,0.0,0.0,0.0,0.0,0.0,0.0,0.0,0.0,0.0,0.0,0.0,0.0,0.0,0.0,0.0,0.0,0.0,0.0,0.0,0.0,0.0,0.0,0.0,0.0,0.0,0.0,0.0,0.0,0.0,0.0,0.0,0.0,0.0,0.0,0.0,0.0,0.0,0.0,0.0,0.0,0.0,0.0,0.0,0.0,0.0,0.0,0.0,0.0,0.0,0.0,0.0,-1.3087,-1.3088,-1.3665,-1.5037,-1.7048,-1.8315,-1.9899,0.0,0.0,0.0,0.0,0.0,0.0,0.0,0.0,0.0,0.0,0.0,0.0,0.0,0.0,0.0,0.0,0.0,0.0,0.0,0.0,0.0,0.0,0.0,0.0,0.0,0.0,0.0,0.0,0.0,0.0,0.0,0.0,0.0,0.0,0.0,0.0,0.0,0.0,0.0,0.0,0.0,0.0,0.0,0.0,0.0,0.0,0.0,0.0,-3.4129,0.0,0.0,0.0,0.0,0.0,0.0,0.0,0.0,0.0,0.0,0.0,0.0,0.0,0.0,0.0,0.0,0.0,0.0,0.0,0.0,0.0,0.0,0.0,0.0,0.0,0.0,0.0,0.0,0.0,0.0,0.0,0.0,0.0,0.0,0.0,0.0,0.0,0.0,0.0,0.0,0.0,0.0,0.0,0.0,0.0,0.0,0.0,0.0,0.0,0.0,0.0,0.0,0.0,0.0,0.0,0.0,0.0,0.0,0.0,-1.3688,-1.3942,-1.4524,-1.5872,-1.7966,-1.9285,-2.0837,0.0,0.0,0.0,0.0,0.0,0.0,0.0,0.0,0.0,0.0,0.0,0.0,0.0,0.0,0.0,0.0,0.0,0.0,0.0,0.0,0.0,0.0,0.0,0.0,0.0,0.0,0.0,0.0,0.0,0.0,0.0,0.0,0.0,0.0,0.0,0.0,0.0,0.0,0.0,0.0,0.0,0.0,0.0,0.0,0.0,0.0,0.0,0.0,0.0,0.0,0.0,0.0,0.0,0.0,0.0,0.0,0.0,0.0,0.0,0.0,0.0,0.0,0.0,0.0,0.0,0.0,0.0,0.0,0.0,0.0,0.0,0.0,0.0,0.0,0.0,0.0,0.0,0.0,0.0,0.0,0.0,0.0,0.0,0.0,0.0,0.0,0.0,0.0,0.0,0.0,0.0,0.0,0.0,0.0,0.0,0.0,0.0,0.0,0.0,0.0,0.0,0.0,0.0,0.0,0.0,0.0,0.0,-1.4762,-1.4269,-1.4655,-1.5199,-1.6455,-1.8474,-2.0435,-2.2146,-2.3509,0.0,0.0,0.0,0.0,0.0,0.0,0.0,0.0,0.0,0.0,0.0,0.0,0.0,0.0,0.0,0.0,0.0,0.0,0.0,0.0,0.0,0.0,0.0,0.0,0.0,0.0,0.0,0.0,0.0,0.0,0.0,0.0,0.0,0.0,0.0,0.0,0.0,0.0,-3.2068,-3.0608,0.0,0.0,0.0,0.0,0.0,0.0,0.0,0.0,-3.6685,0.0,0.0,0.0,0.0,0.0,0.0,0.0,0.0,0.0,0.0,0.0,0.0,0.0,0.0,0.0,0.0,0.0,0.0,0.0,0.0,0.0,0.0,0.0,0.0,0.0,0.0,0.0,0.0,0.0,0.0,0.0,0.0,0.0,0.0,0.0,0.0,0.0,0.0,0.0,0.0,0.0,0.0,0.0,0.0,0.0,0.0,0.0,0.0,0.0,0.0,0.0,0.0,0.0,0.0,0.0,0.0,-1.6574,-1.5536,-1.5221,-1.5551,-1.6595,-1.7774,-1.9042,-2.1179,-2.2843,-2.397,0.0,0.0,0.0,0.0,0.0,0.0,0.0,0.0,0.0,0.0,0.0,0.0,0.0,0.0,0.0,0.0,0.0,0.0,0.0,0.0,0.0,0.0,0.0,0.0,0.0,0.0,0.0,0.0,0.0,0.0,0.0,0.0,0.0,0.0,0.0,0.0,0.0,0.0,0.0,-2.9522,-2.878,0.0,0.0,0.0,0.0,0.0,0.0,0.0,0.0,-3.7128,0.0,0.0,0.0,0.0,0.0,0.0,0.0,0.0,0.0,0.0,0.0,0.0,0.0,0.0,0.0,0.0,0.0,0.0,0.0,0.0,0.0,0.0,0.0,0.0,0.0,0.0,0.0,0.0,0.0,0.0,0.0,0.0,0.0,0.0,0.0,0.0,0.0,0.0,0.0,0.0,0.0,0.0,0.0,0.0,0.0,0.0,0.0,0.0,0.0,0.0,0.0,0.0,0.0,0.0,0.0,-1.6338,-1.5718,-1.5701,-1.6048,-1.7334,-1.8541,-1.9852,-2.1739,-2.3439,0.0,0.0,0.0,0.0,0.0,0.0,0.0,0.0,0.0,0.0,0.0,0.0,0.0,0.0,0.0,0.0,0.0,0.0,0.0,0.0,0.0,0.0,0.0,0.0,0.0,0.0,0.0,0.0,0.0,0.0,0.0,0.0,0.0,0.0,0.0,0.0,0.0,0.0,0.0,0.0,-2.9165,-2.8789,-2.8526,0.0,0.0,0.0,0.0,0.0,0.0,-3.7311,-3.809,0.0,0.0,0.0,0.0,0.0,0.0,0.0,0.0,0.0,0.0,0.0,0.0,0.0,0.0,0.0,0.0,0.0,0.0,0.0,0.0,0.0,0.0,0.0,0.0,0.0,0.0,0.0,0.0,0.0,0.0,0.0,0.0,0.0,0.0,0.0,0.0,0.0,0.0,0.0,0.0,0.0,0.0,0.0,0.0,0.0,0.0,0.0,0.0,0.0,0.0,0.0,0.0,0.0,0.0,0.0,-1.6159,-1.5993,-1.617,-1.6615,-1.8036,-1.9449,-2.062,-2.2426,-2.3836,0.0,0.0,0.0,0.0,0.0,0.0,0.0,0.0,0.0,0.0,0.0,0.0,0.0,0.0,0.0,0.0,0.0,0.0,0.0,0.0,0.0,0.0,0.0,0.0,0.0,0.0,0.0,0.0,0.0,0.0,0.0,0.0,0.0,0.0,0.0,0.0,0.0,0.0,0.0,0.0,0.0,-2.8986,-2.8812,-2.9737,0.0,0.0,0.0,0.0,-3.7196,-3.843,0.0,0.0,0.0,0.0,0.0,0.0,0.0,0.0,0.0,0.0,0.0,0.0,0.0,0.0,0.0,0.0,0.0,0.0,0.0,0.0,0.0,0.0,0.0,0.0,0.0,0.0,0.0,0.0,0.0,0.0,0.0,0.0,0.0,0.0,0.0,0.0,0.0,0.0,0.0,0.0,0.0,0.0,0.0,0.0,0.0,0.0,0.0,0.0,0.0,0.0,0.0,0.0,0.0,0.0,0.0,0.0,-1.6437,-1.6653,-1.6947,-1.7463,-1.9306,-2.0516,-2.107,-2.3242,-2.4407,0.0,0.0,0.0,0.0,0.0,0.0,0.0,0.0,0.0,0.0,0.0,0.0,0.0,0.0,0.0,0.0,0.0,0.0,0.0,0.0,0.0,0.0,0.0,0.0,0.0,0.0,0.0,0.0,0.0,0.0,0.0,0.0,0.0,0.0,0.0,0.0,0.0,0.0,0.0,0.0,0.0,-2.9081,-3.0042,-3.0476,-3.1314,0.0,0.0,-3.5848,-3.7971,-3.9007,0.0,0.0,0.0,0.0,0.0,0.0,0.0,0.0,0.0,0.0,0.0,0.0,0.0,0.0,0.0,0.0,0.0,0.0,0.0,0.0,0.0,0.0,0.0,0.0,0.0,0.0,0.0,0.0,0.0,0.0,0.0,0.0,0.0,0.0,0.0,0.0,0.0,0.0,0.0,0.0,0.0,0.0,0.0,0.0,0.0,0.0,0.0,0.0,0.0,0.0,0.0,0.0,0.0,0.0,0.0,-1.7896,-1.6784,-1.6922,-1.7334,-1.8053,-1.9961,-2.1293,-2.1961,-2.3588,-2.4506,0.0,0.0,0.0,0.0,0.0,0.0,0.0,0.0,0.0,0.0,0.0,0.0,0.0,0.0,0.0,0.0,0.0,0.0,0.0,0.0,0.0,0.0,0.0,0.0,0.0,0.0,0.0,0.0,0.0,0.0,0.0,0.0,0.0,0.0,0.0,0.0,0.0,0.0,0.0,0.0,0.0,0.0,-3.1354,-3.1912,0.0,0.0,0.0,-3.6823,-3.8584,0.0,0.0,0.0,0.0,0.0,0.0,0.0,0.0,0.0,0.0,0.0,0.0,0.0,0.0,0.0,0.0,0.0,0.0,0.0,0.0,0.0,0.0,0.0,0.0,0.0,0.0,0.0,0.0,0.0,0.0,0.0,0.0,0.0,0.0,0.0,0.0,0.0,0.0,0.0,0.0,0.0,0.0,0.0,0.0,0.0,0.0,0.0,0.0,0.0,0.0,0.0,0.0,0.0,0.0,0.0,0.0,0.0,-1.7291,-1.7313,-1.7832,-1.8619,-2.0451,-2.1773,-2.2625,-2.3874,0.0,0.0,0.0,0.0,0.0,0.0,0.0,0.0,0.0,0.0,0.0,0.0,0.0,0.0,0.0,0.0,0.0,0.0,0.0,0.0,0.0,0.0,0.0,0.0,0.0,0.0,0.0,-2.9022,0.0,0.0,0.0,0.0,0.0,0.0,0.0,0.0,0.0,0.0,0.0,0.0,0.0,0.0,-3.1248,-3.2395,-3.3278,-3.435,0.0,0.0,-3.7968,-3.9032,-4.0134,-4.0747,0.0,0.0,0.0,0.0,0.0,0.0,0.0,0.0,0.0,0.0,0.0,0.0,0.0,0.0,0.0,0.0,0.0,0.0,0.0,0.0,0.0,0.0,0.0,0.0,0.0,0.0,0.0,0.0,0.0,0.0,0.0,0.0,0.0,0.0,0.0,0.0,0.0,0.0,0.0,0.0,0.0,0.0,0.0,0.0,0.0,0.0,0.0,0.0,0.0,0.0,0.0,0.0,0.0,0.0,-1.8461,-1.7954,-1.8105,-1.8545,-1.9241,-2.1035,-2.229,-2.284,-2.4257,-2.5024,0.0,0.0,0.0,0.0,0.0,0.0,0.0,0.0,0.0,0.0,0.0,0.0,0.0,0.0,0.0,0.0,0.0,0.0,0.0,0.0,0.0,0.0,0.0,0.0,0.0,0.0,0.0,0.0,0.0,0.0,0.0,0.0,0.0,0.0,0.0,0.0,0.0,0.0,0.0,0.0,0.0,-3.2308,-3.292,-3.4487,-3.565,0.0,-3.777,-3.8899,-3.9141,-4.0227,-4.072,-3.9748,0.0,0.0,0.0,0.0,0.0,0.0,0.0,0.0,0.0,0.0,0.0,0.0,0.0,0.0,0.0,0.0,0.0,0.0,0.0,0.0,0.0,0.0,0.0,0.0,0.0,0.0,0.0,0.0,0.0,0.0,0.0,0.0,0.0,0.0,0.0,0.0,0.0,0.0,0.0,0.0,0.0,0.0,0.0,0.0,0.0,0.0,0.0,0.0,0.0,0.0,0.0,0.0,0.0,-1.9232,-1.9048,-1.8765,-1.9206,-2.0492,-2.1874,-2.2997,-2.3849,-2.4787,-2.555,0.0,0.0,0.0,0.0,0.0,0.0,0.0,0.0,0.0,0.0,0.0,0.0,0.0,0.0,0.0,0.0,0.0,0.0,0.0,0.0,0.0,0.0,0.0,0.0,0.0,0.0,0.0,0.0,-2.9198,-2.9127,-2.9487,0.0,0.0,0.0,0.0,0.0,0.0,0.0,0.0,0.0,0.0,-3.3349,-3.4083,-3.5244,0.0,0.0,-3.795,-3.9165,-3.9404,-4.0162,-4.0754,-4.1046,-4.0184,0.0,0.0,0.0,0.0,0.0,0.0,0.0,0.0,0.0,0.0,0.0,0.0,0.0,0.0,0.0,0.0,0.0,0.0,0.0,0.0,0.0,0.0,0.0,0.0,0.0,0.0,0.0,0.0,0.0,0.0,0.0,0.0,0.0,0.0,0.0,0.0,0.0,0.0,0.0,0.0,0.0,0.0,0.0,0.0,0.0,0.0,0.0,0.0,0.0,0.0,0.0,0.0,-2.0144,-2.0301,-1.9901,-2.0263,-2.1543,-2.273,-2.3654,-2.4497,-2.5235,-2.5856,0.0,0.0,0.0,0.0,0.0,0.0,0.0,0.0,0.0,0.0,0.0,0.0,0.0,0.0,0.0,0.0,0.0,0.0,0.0,0.0,0.0,0.0,0.0,0.0,0.0,0.0,0.0,0.0,-2.9929,-2.9842,-3.0353,0.0,0.0,0.0,0.0,0.0,0.0,0.0,0.0,0.0,0.0,-3.4749,-3.5232,-3.6229,-3.7008,-3.7081,-3.8441,-3.9552,-3.9692,-4.0159,-4.0736,-4.1423,0.0,0.0,0.0,0.0,0.0,0.0,0.0,0.0,0.0,0.0,0.0,0.0,0.0,0.0,0.0,0.0,0.0,0.0,0.0,0.0,0.0,0.0,0.0,0.0,0.0,0.0,0.0,-2.34,0.0,0.0,-2.1397,0.0,0.0,0.0,0.0,0.0,0.0,0.0,0.0,0.0,0.0,0.0,0.0,0.0,0.0,0.0,0.0,0.0,0.0,0.0,0.0,0.0,0.0,-2.1341,-2.1741,-2.1502,-2.1717,-2.2394,-2.3444,-2.426,-2.4673,-2.5475,-2.592,-2.6056,0.0,0.0,0.0,0.0,0.0,0.0,0.0,0.0,0.0,0.0,0.0,0.0,0.0,0.0,0.0,0.0,0.0,0.0,0.0,0.0,0.0,0.0,0.0,0.0,0.0,0.0,-3.2124,-3.1128,-3.0423,0.0,0.0,0.0,0.0,0.0,0.0,0.0,0.0,0.0,-3.4947,-3.5897,-3.652,-3.6306,-3.7571,-3.8448,-3.8295,-3.9431,-4.0285,-4.0158,-4.0417,-4.0526,0.0,0.0,0.0,0.0,0.0,0.0,0.0,0.0,0.0,0.0,0.0,0.0,0.0,0.0,0.0,0.0,0.0,0.0,0.0,0.0,0.0,0.0,0.0,0.0,0.0,0.0,0.0,-2.4861,-2.4398,0.0,0.0,0.0,0.0,0.0,0.0,0.0,0.0,0.0,0.0,0.0,-2.5906,-2.6561,0.0,0.0,0.0,0.0,0.0,0.0,0.0,0.0,0.0,0.0,0.0,0.0,-2.313,-2.3347,-2.2762,-2.2822,-2.3739,-2.4052,-2.454,-2.5183,-2.5733,-2.6263,-2.6867,0.0,0.0,0.0,0.0,0.0,0.0,0.0,0.0,0.0,0.0,0.0,0.0,0.0,0.0,0.0,0.0,0.0,0.0,0.0,0.0,0.0,0.0,0.0,0.0,0.0,-3.2593,0.0,0.0,0.0,0.0,0.0,0.0,0.0,0.0,0.0,0.0,0.0,-3.6393,-3.6537,-3.7115,-3.7501,-3.7192,-3.806,-3.8752,0.0,0.0,0.0,0.0,0.0,0.0,0.0,0.0,0.0,0.0,0.0,0.0,0.0,0.0,-4.4327,-4.3441,-4.2921,-4.2539,-4.2236,0.0,0.0,0.0,0.0,0.0,0.0,0.0,0.0,0.0,0.0,0.0,0.0,0.0,0.0,-2.6477,0.0,-2.553,0.0,0.0,0.0,0.0,0.0,0.0,0.0,0.0,-2.7136,-2.7545,-2.7589,-2.8264,-2.8348,0.0,-2.8547,-2.8262,0.0,0.0,0.0,0.0,0.0,0.0,0.0,0.0,-2.4799,-2.5081,-2.4161,-2.4147,-2.4903,-2.4878,-2.5104,-2.5634,-2.5947,-2.6454,-2.7146,-2.7776,-2.8417,0.0,0.0,0.0,0.0,0.0,0.0,0.0,0.0,0.0,0.0,0.0,0.0,0.0,0.0,0.0,0.0,0.0,0.0,0.0,0.0,0.0,0.0,0.0,-3.2437,0.0,0.0,0.0,0.0,0.0,0.0,0.0,0.0,0.0,-3.6877,-3.6994,-3.7361,-3.7789,-3.8178,-3.8255,-3.8092,0.0,0.0,0.0,0.0,0.0,0.0,0.0,-4.2436,-4.3272,-4.3059,-4.307,-4.3847,-4.4691,-4.5387,-4.5906,0.0,0.0,-4.4819,-4.4243,-4.394,-4.3862,-4.3484,-4.3166,-4.3104,-4.298,-4.2917,0.0,0.0,0.0,0.0,0.0,0.0,0.0,0.0,-2.8333,-2.8228,0.0,-2.8087,0.0,0.0,0.0,0.0,0.0,-2.5551,0.0,0.0,-2.8207,-2.8625,-2.9447,-2.9479,-2.9342,-2.9063,-2.9047,-2.8857,-2.8545,-2.8245,0.0,0.0,0.0,0.0,0.0,0.0,-2.6405,-2.6767,-2.5909,-2.5663,-2.6018,-2.5954,-2.5861,-2.5825,-2.6226,-2.6658,-2.7011,-2.7536,-2.8105,-2.8789,-2.9747,0.0,0.0,0.0,0.0,0.0,0.0,0.0,0.0,0.0,0.0,0.0,0.0,0.0,0.0,0.0,0.0,0.0,0.0,0.0,0.0,-3.3396,0.0,0.0,0.0,0.0,0.0,0.0,0.0,0.0,0.0,0.0,-3.7353,-3.7656,-3.8145,-3.8684,0.0,0.0,0.0,0.0,-4.0593,-4.0883,-4.1683,-4.2262,-4.2749,-4.3023,-4.3222,-4.3526,0.0,0.0,-4.4593,-4.5565,-4.6337,-4.6367,-4.683,-4.6976,-4.61,-4.5895,-4.5753,-4.5574,-4.5499,-4.5492,-4.5327,-4.5005,-4.508,-2.5092,0.0,0.0,0.0,0.0,-2.9149,-2.9663,-3.0083,-3.0168,-3.0168,-3.009,-2.909,0.0,0.0,0.0,0.0,0.0,0.0,-2.7763,-2.8405,-2.8655,-2.885,-2.8913,-2.9128,-2.8795,-2.8032,-2.8936,-2.888,-2.7952,-2.8975,-2.8952,-2.7883,0.0,0.0,0.0,0.0,-2.8001,-2.7936,-2.7108,-2.6723,-2.6876,-2.6079,-2.584,-2.6247,-2.679,-2.7121,-2.7335,-2.7802,-2.8249,-2.8803,-2.9747,0.0,0.0,0.0,0.0,0.0,0.0,0.0,0.0,0.0,0.0,0.0,0.0,0.0,0.0,0.0,0.0,0.0,0.0,0.0,-3.3661,-3.4144,-3.4466,0.0,0.0,0.0,0.0,0.0,0.0,0.0,0.0,0.0,-3.9239,-3.9432,-3.9465,0.0,0.0,-4.0029,-3.9917,-4.0906,-4.1782,-4.215,-4.2736,0.0,-4.3832,-4.4163,-4.4422,-4.4867,-4.5341,-4.5845,-4.6179,-4.6703,-4.7025,-4.7025,-4.7174,-4.716,-4.7001,-4.6506,-4.6205,-4.6077,-4.5717,-4.5387,-4.5304,-4.5289,-4.5289,-2.5295,-2.5803,-2.6708,-2.7492,-2.8249,-2.9429,-3.0119,-3.0345,-3.1002,-3.1155,-3.1004,-3.0117,-2.9862,-2.9818,-2.8601,0.0,0.0,0.0,-2.9043,-2.9146,-2.9441,-2.9379,-2.9005,-2.911,-2.8801,-2.808,-2.8889,-2.8811,-2.787,-2.9082,-2.9391,-2.8907,0.0,0.0,-2.9163,-2.9257,-2.9275,-2.916,-2.8124,-2.757,-2.7631,-2.6581,-2.6233,-2.6645,-2.7121,-2.7403,-2.7536,-2.8,-2.8522,-2.8881,-2.9822,-3.0658,0.0,0.0,0.0,0.0,0.0,0.0,0.0,0.0,0.0,0.0,0.0,-3.7638,-3.7931,0.0,0.0,0.0,-3.5622,-3.4579,-3.4003,-3.4823,0.0,0.0,0.0,0.0,0.0,0.0,0.0,-3.8696,-4.0481,-4.144,-4.0815,-4.1107,-4.1039,-3.9679,-4.0169,-4.0744,-4.0827,0.0,-4.2846,-4.341,-4.3804,-4.4181,-4.4583,-4.4968,-4.5427,-4.5866,-4.6403,-4.6756,-4.6931,-4.7106,-4.7309,-4.7279,-4.71,-4.692,-4.692,-4.6381,-4.6127,-4.6591,-4.6396,-4.6037,-4.5768,-4.5693,-4.5633,-2.5136,-2.5726,-2.6513,-2.709,-2.7666,-2.901,-2.9683,-3.0024,-3.1214,-3.1544,-3.1128,-3.1321,-3.0872,-2.9897,-2.9221,0.0,-2.9942,-2.9908,-2.9962,-3.0225,-3.0124,-2.9728,-2.9304,-2.9248,-2.8969,-2.8478,-2.8778,-2.863,-2.8113,-2.8763,-2.9309,-2.9591,-2.9897,-3.0177,-3.0444,-3.0228,-3.0203,-3.0279,-2.8859,-2.8192,-2.8308,-2.7316,-2.6863,-2.7024,-2.7335,-2.7536,-2.759,-2.8262,-2.878,-2.9162,-2.9898,-3.0718,-3.1622,0.0,0.0,0.0,0.0,0.0,0.0,0.0,0.0,0.0,0.0,0.0,0.0,0.0,0.0,0.0,-3.6414,0.0,-3.5215,-3.5595,0.0,0.0,0.0,-3.7863,-3.7878,-3.9281,-4.0452,-4.0842,0.0,0.0,-4.1872,-4.2682,-4.2573,-4.0508,-4.0832,-4.1254,-4.1558,-4.272,-4.3815,-4.4242,-4.4493,-4.4726,-4.471,-4.5133,-4.5506,-4.5947,-4.649,-4.6575,-4.6575,-4.6867,-4.7115,-4.7055,-4.6636,-4.6247,-4.6247,-4.5738,-4.5678,-4.6845,-4.7055,-4.689,-4.6277,-4.6112,-4.5948,-2.5145,-2.5717,-2.5885,-2.6689,-2.8034,-2.9373,-3.0177,-3.0477,-3.1555,-3.2029,-3.2111,-3.2208,-3.167,-3.0732,-3.0583,-3.0399,-3.0419,-3.0056,-2.9973,-3.0146,-2.8991,-2.8411,-2.8288,-2.793,-2.757,-2.711,-2.7341,-2.7273,-2.7162,-2.8303,-2.8799,-2.8659,-2.9645,-3.0258,-3.0596,-3.0609,-3.0252,-2.974,-2.9108,-2.8338,-2.7378,-2.7207,-2.7201,-2.7403,-2.759,-2.7921,-2.8327,-2.8522,-2.8844,-2.9477,-3.0129,-3.0748,-3.1537,-3.2477,0.0,0.0,0.0,0.0,0.0,0.0,0.0,0.0,0.0,-3.8186,-3.8404,0.0,-3.7781,0.0,-3.7528,-3.7333,-3.75,-3.7934,0.0,0.0,-3.9634,-3.9901,-4.007,-4.0774,-4.141,-4.1462,-4.2717,-4.3275,-4.2383,-4.2898,-4.2864,-4.1737,-4.19,-4.2426,-4.3174,-4.3547,-4.385,-4.4129,-4.3772,-4.3329,-4.3502,-4.3408,-4.3524,-4.3811,-4.4294,-4.4772,-4.487,-4.5371,-4.5768,-4.5768,-4.5663,-4.5544,-4.5499,-4.5379,-4.5349,-4.5708,-4.5768,-4.5738,-4.5574,-4.5529,-4.5469,-2.5261,-2.5612,-2.5793,-2.6456,-2.754,-2.865,-2.9645,-3.0504,-3.1382,-3.1848,-3.18,-3.1352,-3.0721,-3.0021,-3.0239,-3.0365,-3.0422,-3.0171,-3.0,-2.9794,-2.8777,-2.8064,-2.7635,-2.7363,-2.7039,-2.6632,-2.6783,-2.6839,-2.6907,-2.7787,-2.8312,-2.8592,-2.9346,-2.9902,-3.0288,-3.0551,-3.0438,-3.0038,-2.9287,-2.8507,-2.7535,-2.7616,-2.7669,-2.7736,-2.7921,-2.8183,-2.8587,-2.883,-2.9212,-2.9775,-3.0493,-3.1175,-3.1894,-3.3006,-3.3826,0.0,0.0,0.0,0.0,0.0,0.0,0.0,0.0,0.0,0.0,0.0,-3.8561,-3.8631,-3.8825,-3.8938,-3.8908,-3.9709,-4.0412,-4.0884,-4.1148,-4.1355,-4.1355,-4.2011,-4.2382,-4.2302,-4.3286,-4.3686,-4.2902,-4.3263,-4.3313,-4.2532,-4.256,-4.2811,-4.3473,-4.3602,-4.3704,-4.382,-4.328,-4.2806,-4.2904,-4.2857,-4.285,-4.315,-4.3722,-4.4169,-4.4332,-4.4855,-4.5229,-4.5012,-4.4779,-4.4464,-4.4258,-4.3942,-4.3777,-4.3777,-4.3762,-4.3988,-4.4449,-4.4649,-4.4529,-2.5295,-2.5638,-2.6051,-2.6509,-2.6893,-2.7619,-2.8798,-3.0108,-3.0819,-3.1035,-3.0847,-2.9906,-2.924,-2.8838,-2.9286,-2.9722,-3.0112,-3.0044,-2.9802,-2.9366,-2.8792,-2.8057,-2.7242,-2.7231,-2.7025,-2.6767,-2.6686,-2.6836,-2.7151,-2.7397,-2.7959,-2.8744,-2.9091,-2.9425,-2.98,-3.0294,-3.0575,-3.0557,-2.9438,-2.8599,-2.8092,-2.8079,-2.8079,-2.8145,-2.8249,-2.843,-2.8702,-2.9135,-2.9608,-3.019,-3.0911,-3.1667,-3.2398,-3.3623,-3.4574,0.0,-3.5954,0.0,0.0,0.0,0.0,0.0,0.0,0.0,0.0,-3.939,-3.9558,-3.9154,-4.0065,-4.0484,-4.0081,-4.1126,-4.1896,-4.1761,-4.2271,-4.2491,-4.2365,-4.294,-4.321,-4.3021,-4.3629,-4.3783,-4.3135,-4.3439,-4.3462,-4.2817,-4.2569,-4.2563,-4.2966,-4.3006,-4.3079,-4.3313,-4.2695,-4.2143,-4.2308,-4.2416,-4.2465,-4.2727,-4.318,-4.3808,-4.3753,-4.4308,-4.4704,-4.4243,-4.3735,-4.327,-4.2819,-4.2304,-4.1925,-4.191,-4.191,-4.2273,-4.3134,-4.3529,-4.3274,-2.5371,-2.5885,-2.5965,-2.6504,-2.7415,-2.782,-2.8416,-2.9064,-2.9639,-2.9986,-3.0331,-2.9757,-2.9447,-2.9355,-2.9447,-2.955,-2.9619,-2.9183,-2.893,-2.8815,-2.7931,-2.7415,-2.7231,-2.7231,-2.7117,-2.6913,-2.6635,-2.6755,-2.7179,-2.7549,-2.7893,-2.8239,-2.8878,-2.9322,-2.9592,0.0,0.0,0.0,-2.8838,-2.8186,-2.8092,-2.8079,-2.8131,-2.8235,-2.8444,0.0,-2.9184,-2.9498,-3.0007,-3.0628,-3.1248,0.0,0.0,0.0,0.0,0.0,0.0,0.0,0.0,0.0,0.0,0.0,-3.8237,-3.8489,-3.9226,-3.9886,-4.0198,-3.9838,-4.0882,-4.1641,-4.1763,-4.2541,-4.3152,-4.3455,-4.3637,-4.3713,-4.3635,-4.3272,-4.3015,-4.3015,-4.2652,-4.2334,-4.2274,-4.2183,-4.2091,-4.1986,-4.1758,-4.1635,-4.1754,-4.1918,-4.2004,-4.201,-4.1252,-4.05,-4.0085,-4.0144,-4.0352,-4.0452,-4.0919,-4.146,-4.179,-4.2229,-4.2576,-4.247,-4.2319,-4.2213,-4.209,-4.2014,-4.162,-4.1152,-4.1161,-4.1507,-4.2061,-4.2228,-4.2242,-2.5491,-2.5515,-2.6121,-2.6714,0.0,-2.7915,-2.843,-2.8763,-2.9396,-2.9591,-2.9424,-2.87,-2.8379,-2.839,-2.8643,-2.8746,-2.8735,-2.8471,-2.8344,-2.831,-2.7635,-2.7244,-2.7002,-2.7093,-2.6936,-2.6557,-2.656,-2.6795,-2.7189,-2.7601,-2.7999,-2.8457,-2.8806,-2.91,-2.9296,-2.9296,-2.9399,-2.9645,-2.8784,-2.8341,-2.8341,-2.8406,-2.8471,-2.856,-2.8702,0.0,0.0,0.0,0.0,0.0,0.0,0.0,0.0,-3.4295,0.0,-3.5647,-3.6686,-3.7485,-3.7825,-3.7857,-3.8003,-3.8359,-3.8486,-3.8868,-3.9542,-4.0071,-4.0493,-4.0657,-4.1423,-4.2031,-4.2175,-4.2844,-4.3251,-4.3482,-4.3485,-4.3365,-4.3213,-4.2923,-4.2635,-4.2455,-4.2151,-4.1938,-4.1938,-4.1805,-4.1684,-4.1397,-4.0975,-4.057,-4.0302,-4.0696,-4.0901,-4.0218,-3.9771,-3.9215,-3.8772,-3.8963,-3.9229,-3.9461,-4.0172,-4.0834,-4.0997,-4.1513,-4.1741,-4.1237,-4.1039,-4.0944,-4.0329,-4.0191,-4.0085,-3.9849,-3.9826,-3.9902,-4.0216,-4.0451,-4.0573,-2.5543,-2.5327,-2.626,-2.6905,-2.7326,-2.8017,-2.8401,-2.8622,0.0,0.0,0.0,-2.7587,-2.7231,-2.7254,-2.775,-2.7877,-2.7879,-2.7891,-2.775,-2.7729,-2.7452,-2.7034,-2.6628,-2.6886,-2.6712,-2.6166,-2.6541,-2.6942,-2.731,-2.7709,-2.8222,-2.8803,-2.8881,-2.8944,-2.9113,-2.9113,-2.9219,-2.9411,-2.8975,-2.8651,-2.8716,-2.878,-2.8844,-2.8844,-2.9035,-2.9289,-2.9588,-3.0007,-3.0478,-3.1087,-3.1838,-3.2523,-3.3081,-3.4733,-3.5776,-3.6104,-3.7307,-3.81,-3.8197,-3.8213,-3.8262,-3.8335,-3.8766,-3.917,-3.9577,-4.0039,-4.0538,-4.1088,-4.1753,-4.2169,-4.2115,-4.2683,-4.3117,-4.3058,-4.2973,-4.2817,-4.2659,-4.236,-4.2107,-4.1766,-4.1568,-4.1404,-4.1207,-4.1161,-4.1043,-4.0583,-3.992,-3.9364,-3.9016,-3.947,-3.9541,-3.8672,-3.8587,-3.8424,-3.8031,-3.8296,-3.8812,-3.8857,-3.9777,-4.0492,-4.0614,-4.0963,-4.0913,-4.0093,-3.991,-3.9566,-3.878,-3.8657,-3.8462,-3.8385,-3.8354,-3.8292,-3.8215,-3.8585,-3.8842,-2.5449,-2.5829,-2.6348,-2.6931,-2.76,-2.7942,-2.8088,-2.8122,-2.8191,-2.7977,-2.7426,-2.7288,-2.7301,-2.7441,-2.751,-2.7487,-2.7261,-2.7261,-2.7003,-2.6558,-2.6464,-2.6394,-2.6335,-2.6576,-2.6569,-2.6445,-2.703,-2.7429,-2.7775,-2.8249,-2.8702,-2.9022,-2.9099,-2.9085,-2.9099,-2.9113,-2.914,-2.916,-2.9091,-2.9035,-2.9035,-2.9035,-2.9035,-2.9035,-2.9226,-2.9477,-2.9761,-3.0251,-3.0851,-3.1552,-3.2216,-3.2819,-3.3414,-3.4514,-3.5174,-3.538,-3.6125,-3.6853,-3.7436,-3.7469,-3.7688,-3.8189,-3.8824,-3.9081,-3.8877,-3.9898,-4.056,-4.0491,-4.1574,-4.2322,-4.2131,-4.2661,-4.2918,-4.302,-4.3027,-4.2987,-4.2801,-4.2209,-4.1527,-4.1001,-4.0278,-3.9619,-3.9281,-3.903,-3.8925,-3.8666,-3.8613,-3.8205,-3.8129,-3.8167,-3.816,-3.8009,-3.7963,-3.7985,-3.7788,-3.7925,-3.8165,-3.8284,-3.8498,-3.8901,-3.9066,-3.9174,-3.9143,-3.8811,-3.8811,-3.8703,-3.8453,-3.855,-3.8246,-3.7797,-3.7707,-3.7492,-3.7109,-3.7093,-3.7338,-2.5214,-2.5494,-2.6373,-2.7146,-2.7851,-2.8309,-2.8471,-2.83,-2.801,-2.7696,-2.7383,-2.7476,-2.7487,-2.7298,-2.7287,-2.7097,-2.667,-2.667,-2.6541,-2.6306,-2.637,-2.6316,-2.6056,-2.633,-2.6421,-2.6337,-2.7,-2.7556,-2.8052,-2.8638,-2.9035,-2.9352,-2.9352,-2.9352,-2.9352,-2.9352,-2.9352,-2.9352,-2.9162,-2.9113,-2.9099,-2.9289,-2.9352,-2.9352,-2.9602,-2.9913,-3.0251,-3.0582,-3.1043,-3.1667,-3.2272,-3.2819,-3.3361,-3.4434,-3.5082,-3.5218,-3.5882,-3.6448,-3.674,-3.7112,-3.7397,-3.7697,-3.8302,-3.8589,-3.8472,-3.9572,-4.0214,-4.0135,-4.0753,-4.1037,-4.0956,-4.1185,-4.1323,-4.1314,-4.1185,-4.1037,-4.0986,-4.0649,-4.0158,-3.9862,-3.9486,-3.911,-3.88,-3.8639,-3.8523,-3.8492,-3.81,-3.7587,-3.722,-3.7143,-3.7231,-3.7339,-3.7481,-3.7349,-3.7105,-3.7399,-3.7648,-3.7809,-3.8131,-3.833,-3.8508,-3.8508,-3.8404,-3.8095,-3.8098,-3.7959,-3.7789,-3.7667,-3.7545,-3.7405,-3.7188,-3.7033,-3.6816,-3.6754,-3.6987,-2.5126,-2.5323,-2.638,-2.7212,-2.7985,-2.8596,-2.8707,-2.8433,-2.8127,-2.7857,-2.7684,-2.78,-2.7599,-2.7219,-2.7184,-2.683,-2.634,-2.6269,-2.6221,-2.6103,-2.6253,-2.6113,-2.5755,-2.6082,-2.6208,-2.6327,-2.6973,-2.763,-2.83,-2.8894,-2.9289,-2.954,-2.9602,-2.9602,-2.9602,-2.9602,-2.9665,-2.9665,-2.9401,-2.9289,-2.9289,-2.954,-2.9727,-2.9741,-2.9988,-3.0219,-3.0507,-3.0762,-3.1102,-3.1709,-3.2312,-3.2873,-3.3361,-3.4274,-3.4839,-3.4991,-3.5493,-3.5882,-3.6076,-3.6707,-3.7096,-3.7112,-3.7632,-3.7995,-3.8092,-3.9007,-3.9706,-3.9774,-3.9952,-4.0048,-4.005,-3.9991,-3.9834,-3.9815,-3.9596,-3.955,-3.944,-3.9219,-3.8997,-3.8904,-3.8793,-3.8731,-3.8606,-3.8463,-3.8353,-3.818,-3.7807,-3.7156,-3.6538,-3.6384,-3.6476,-3.6534,-3.6792,-3.6886,-3.6459,-3.6844,-3.7294,-3.7403,-3.7805,-3.8006,-3.8083,-3.8145,-3.8006,-3.7622,-3.7529,-3.7421,-3.7124,-3.7046,-3.7062,-3.7046,-3.7001,-3.6969,-3.6954,-3.6999,-3.6999,-2.5362,-2.6004,-2.639,-2.6952,-2.7756,-2.8411,-2.8437,-2.8022,-2.8122,-2.8167,-2.8099,-2.795,-2.7735,-2.7364,-2.737,-2.6876,-2.614,-2.6092,-2.5853,-2.5457,-2.5397,-2.5361,-2.542,-2.5786,-2.6017,-2.6302,-2.7229,-2.7908,-2.8352,-2.9022,-2.9477,-2.9602,-2.9602,-2.9617,-2.9602,-2.9713,-2.9761,-2.9822,-2.9927,-2.9913,-2.9761,-2.996,-3.005,-3.005,-3.0111,-3.0158,-3.0372,-3.0732,-3.1248,-3.1879,-3.2477,-3.3071,-3.3591,-3.3877,-3.4062,-3.423,-3.4295,-3.4586,-3.5234,-3.5963,-3.64,-3.6448,-3.7031,-3.7436,-3.7485,-3.8092,-3.8705,-3.9108,-3.9662,-3.9918,-3.9984,-3.9952,-3.9827,-3.9793,-3.9702,-3.9737,-3.9596,-3.9503,-3.9062,-3.8434,-3.8247,-3.7904,-3.7467,-3.7358,-3.725,-3.7343,-3.7126,-3.6753,-3.6178,-3.5929,-3.5742,-3.5497,-3.5904,-3.6507,-3.6538,-3.6693,-3.6925,-3.7048,-3.711,-3.7219,-3.7297,-3.725,-3.7094,-3.7312,-3.7125,-3.7093,-3.7076,-3.6982,-3.7029,-3.7058,-3.7013,-3.6999,-3.6999,-3.7105,-3.7089,-2.5314,-2.5897,-2.6486,-2.7271,-2.8226,-2.8487,-2.8456,-2.8295,-2.8351,-2.8339,-2.8303,-2.7949,-2.752,-2.7083,-2.6749,-2.6272,-2.5648,-2.5624,-2.5516,-2.5324,-2.5382,-2.5465,-2.5523,-2.591,-2.6258,-2.6521,-2.7255,-2.7921,-2.8509,-2.9261,-2.9727,-2.9865,-2.9927,-2.9927,-2.9927,-2.9974,-2.9974,-2.9974,-3.0144,-3.0205,-3.0129,-3.0205,-3.0205,-3.0205,-3.0341,-3.0476,-3.0628,-3.0881,-3.1336,-3.1966,-3.2492,-3.3087,-3.3658,-3.3949,-3.4201,-3.4333,-3.4349,-3.448,-3.4774,-3.5491,-3.5899,-3.5915,-3.6482,-3.7036,-3.7476,-3.7785,-3.8258,-3.8813,-3.8972,-3.9017,-3.9049,-3.8975,-3.8916,-3.8916,-3.8798,-3.8695,-3.8679,-3.8575,-3.8296,-3.7998,-3.7907,-3.7692,-3.738,-3.7165,-3.7121,-3.6937,-3.6687,-3.6219,-3.5923,-3.5595,-3.5221,-3.5049,-3.5307,-3.5698,-3.6146,-3.6628,-3.6845,-3.6923,-3.6999,-3.6999,-3.6937,-3.6999,-3.6999,-3.7089,-3.7103,-3.7163,-3.7345,-3.727,-3.7285,-3.7314,-3.7314,-3.7301,-3.7301,-3.7345,-3.7345,-2.5323,-2.5974,-2.6822,-2.7608,-2.83,-2.8619,-2.8655,-2.8614,-2.8657,-2.8585,-2.8391,-2.7895,-2.7351,-2.6856,-2.6347,-2.5877,-2.5431,-2.5453,-2.5453,-2.5465,-2.5606,-2.5688,-2.5688,-2.6037,-2.6452,-2.685,-2.7377,-2.8052,-2.883,-2.9449,-2.9884,-3.005,-3.0111,-3.0111,-3.0097,-3.0111,-3.0158,-3.0158,-3.0341,-3.0447,-3.0447,-3.0507,-3.0507,-3.0447,-3.0568,-3.0702,-3.0895,-3.1117,-3.1524,-3.2053,-3.2617,-3.314,-3.3694,-3.405,-3.43,-3.4497,-3.448,-3.448,-3.4513,-3.4988,-3.5299,-3.5349,-3.5938,-3.6561,-3.7052,-3.7462,-3.7937,-3.8357,-3.8486,-3.8537,-3.8504,-3.8391,-3.8294,-3.8278,-3.8107,-3.7992,-3.8024,-3.7934,-3.7924,-3.7759,-3.7616,-3.7335,-3.7118,-3.6832,-3.6668,-3.6519,-3.6131,-3.5634,-3.5477,-3.5008,-3.472,-3.4563,-3.4642,-3.5023,-3.5576,-3.6013,-3.6451,-3.6557,-3.6448,-3.6476,-3.6557,-3.6541,-3.6773,-3.6699,-3.6904,-3.7216,-3.7535,-3.7583,-3.7504,-3.7567,-3.7535,-3.7504,-3.7583,-3.7472,-3.7356,-2.5732,-2.6502,-2.7519,-2.7745,-2.7606,-2.8527,-2.8805,-2.8743,-2.8937,-2.8758,-2.8243,-2.7728,-2.7189,-2.6711,-2.6481,-2.6104,-2.5654,-2.5758,-2.584,-2.584,-2.5898,-2.591,-2.5898,-2.6233,-2.6633,-2.704,-2.7643,-2.8495,-2.9477,-2.9699,-2.9884,-3.0097,-3.0111,-3.0111,-3.0172,-3.0266,-3.0312,-3.0326,-3.0642,-3.0747,-3.0747,-3.0925,-3.0911,-3.0763,-3.0762,-3.0895,-3.1073,-3.1452,-3.1823,-3.2191,-3.2664,-3.3282,-3.3815,-3.4034,-3.425,-3.4497,-3.4497,-3.4497,-3.4497,-3.4579,-3.4644,-3.4661,-3.5284,-3.5676,-3.5973,-3.6924,-3.7646,-3.7789,-3.8412,-3.8701,-3.875,-3.8655,-3.8576,-3.856,-3.8335,-3.8221,-3.8132,-3.7937,-3.7918,-3.7742,-3.7262,-3.671,-3.6023,-3.5737,-3.5752,-3.5712,-3.5545,-3.5221,-3.4731,-3.4446,-3.4169,-3.3937,-3.4127,-3.4659,-3.5037,-3.5524,-3.555,-3.5701,-3.5875,-3.5647,-3.5521,-3.5537,-3.5973,-3.6315,-3.6515,-3.6905,-3.7562,-3.7796,-3.7578,-3.753,-3.7482,-3.7498,-3.7218,-3.7125,-3.7022,-2.5631,-2.633,-2.7039,-2.7495,-2.7836,-2.8362,-2.8474,-2.8317,-2.8537,-2.8307,-2.7779,-2.7238,-2.6894,-2.6709,-2.6424,-2.6095,-2.584,-2.591,-2.5923,-2.591,-2.6062,-2.6131,-2.6131,-2.644,-2.6782,-2.7255,-2.7789,-2.861,-2.9637,-3.0007,-3.019,-3.0401,-3.0401,-3.0401,-3.0462,-3.0582,-3.0628,-3.0628,-3.0895,-3.0764,-3.0382,-3.0411,-3.0454,-3.0526,-3.0793,-3.1073,-3.1234,-3.112,-3.1258,-3.172,-3.1842,-3.2358,-3.3404,-3.4202,-3.4659,-3.4756,-3.4739,-3.4739,-3.4739,-3.4739,-3.4739,-3.4772,-3.4987,-3.5366,-3.5828,-3.6322,-3.6964,-3.7788,-3.8229,-3.8591,-3.8974,-3.8892,-3.8711,-3.8711,-3.8639,-3.8332,-3.7958,-3.7718,-3.7462,-3.6948,-3.6428,-3.6078,-3.5678,-3.5368,-3.5234,-3.5537,-3.493,-3.4431,-3.4494,-3.4224,-3.3762,-3.3702,-3.3798,-3.4053,-3.4139,-3.5109,-3.5586,-3.5617,-3.5705,-3.5689,-3.5593,-3.5443,-3.5784,-3.5935,-3.6047,-3.6246,-3.6798,-3.6918,-3.6902,-3.6798,-3.6782,-3.695,-3.6574,-3.6469,-3.6396,-2.5612,-2.6051,-2.6628,-2.7251,-2.7822,-2.8131,-2.8341,-2.8295,-2.8349,-2.8126,-2.7603,-2.7217,-2.6968,-2.6781,-2.6559,-2.6396,-2.6258,-2.6188,-2.6176,-2.6258,-2.6408,-2.649,-2.6546,-2.6794,-2.7134,-2.7523,-2.817,-2.9058,-2.9884,-3.0312,-3.0568,-3.0762,-3.0762,-3.0762,-3.0762,-3.0836,-3.0895,-3.094,-3.0866,-3.0585,-3.0186,-3.0007,-2.9959,-3.0116,-3.0446,-3.086,-3.1108,-3.0774,-3.0777,-3.1228,-3.1313,-3.1855,-3.2961,-3.3813,-3.4396,-3.4612,-3.4645,-3.4778,-3.5008,-3.5058,-3.5041,-3.5041,-3.5058,-3.5291,-3.5725,-3.5991,-3.6638,-3.7401,-3.7878,-3.8193,-3.8264,-3.8342,-3.843,-3.8504,-3.8515,-3.8133,-3.7478,-3.7061,-3.6368,-3.55,-3.5085,-3.4917,-3.4619,-3.4101,-3.4053,-3.4482,-3.3566,-3.3326,-3.3499,-3.3339,-3.315,-3.3345,-3.3361,-3.362,-3.3944,-3.4719,-3.4862,-3.491,-3.5038,-3.5198,-3.5348,-3.5316,-3.538,-3.5476,-3.5626,-3.5722,-3.5819,-3.5899,-3.5915,-3.5883,-3.6178,-3.6474,-3.613,-3.5841,-3.5782,-2.5695,-2.5728,-2.6476,-2.7076,-2.7464,-2.7807,-2.8258,-2.8637,-2.8566,-2.8188,-2.7691,-2.7697,-2.7347,-2.7071,-2.6901,-2.6956,-2.6888,-2.6726,-2.6726,-2.6875,-2.6956,-2.6956,-2.6956,-2.7268,-2.759,-2.7908,-2.9022,-2.9789,-3.0266,-3.0642,-3.0881,-3.1028,-3.1087,-3.1028,-3.1073,-3.1087,-3.1058,-3.0954,-3.0611,-3.0327,-3.0223,-2.9809,-2.9564,-2.9619,-2.9702,-3.0066,-3.0624,-3.0441,-3.0454,-3.0911,-3.1309,-3.1945,-3.2545,-3.3023,-3.3406,-3.4024,-3.4158,-3.4509,-3.509,-3.5174,-3.5111,-3.5144,-3.5274,-3.5295,-3.5462,-3.5885,-3.6319,-3.6517,-3.6936,-3.7153,-3.6651,-3.7002,-3.7519,-3.7909,-3.7752,-3.7354,-3.6678,-3.5971,-3.5037,-3.3843,-3.3518,-3.3092,-3.2508,-3.2318,-3.2369,-3.2337,-3.2048,-3.1951,-3.2176,-3.2128,-3.216,-3.2578,-3.2901,-3.3145,-3.3746,-3.425,-3.4099,-3.396,-3.4121,-3.4282,-3.4462,-3.4494,-3.4823,-3.4952,-3.5101,-3.5214,-3.5441,-3.559,-3.5704,-3.5752,-3.5963,-3.5946,-3.5671,-3.538,-3.525,-2.5562,-2.5806,-2.6135,-2.6656,-2.7179,-2.766,-2.7828,-2.777,-2.7914,-2.7824,-2.7456,-2.7323,-2.7233,-2.7172,-2.7092,-2.7092,-2.7201,-2.7134,-2.7079,-2.7024,-2.7024,-2.7024,-2.7079,-2.7335,-2.7908,-2.8753,-2.9637,-3.0205,-3.0507,-3.0895,-3.1073,-3.1087,-3.1087,-3.1087,-3.1146,-3.1176,-3.1114,-3.0711,-3.0642,-3.0243,-2.9524,-2.9275,-2.9169,-2.9176,-2.8885,-2.9068,-2.9817,-2.9882,-3.0123,-3.0593,-3.0567,-3.0985,-3.1918,-3.2634,-3.3071,-3.3305,-3.3355,-3.3422,-3.3751,-3.4253,-3.4554,-3.4638,-3.499,-3.5274,-3.5308,-3.5462,-3.5613,-3.5589,-3.5773,-3.5757,-3.5673,-3.5746,-3.615,-3.677,-3.6787,-3.639,-3.548,-3.436,-3.3362,-3.281,-3.2616,-3.2501,-3.224,-3.1854,-3.1658,-3.1938,-3.1665,-3.1456,-3.1878,-3.1848,-3.212,-3.2443,-3.2541,-3.2736,-3.3337,-3.3776,-3.3745,-3.386,-3.4006,-3.4084,-3.4101,-3.4167,-3.4395,-3.4543,-3.4641,-3.4821,-3.5033,-3.5214,-3.5328,-3.5214,-3.5132,-3.5083,-3.5085,-3.4969,-3.487,-2.5103,-2.5469,-2.5814,-2.632,-2.6961,-2.736,-2.751,-2.7525,-2.7726,-2.7715,-2.7589,-2.7482,-2.7469,-2.7549,-2.7482,-2.7482,-2.7616,-2.7616,-2.7549,-2.7416,-2.7335,-2.7268,-2.7403,-2.7776,-2.8481,-2.9449,-3.019,-3.0673,-3.0911,-3.1249,-3.1424,-3.1424,-3.1424,-3.1424,-3.1424,-3.1524,-3.1252,-3.0794,-3.0503,-2.9977,-2.9137,-2.8763,-2.8642,-2.8667,-2.8449,-2.8678,-2.9325,-2.9596,-2.9941,-3.0274,-3.0299,-3.0775,-3.1475,-3.2043,-3.2496,-3.2765,-3.2875,-3.2942,-3.3246,-3.3794,-3.3987,-3.4088,-3.4469,-3.4688,-3.4711,-3.4723,-3.4688,-3.4638,-3.4669,-3.4531,-3.431,-3.4543,-3.4734,-3.4807,-3.5224,-3.4977,-3.4051,-3.3029,-3.2199,-3.1924,-3.1748,-3.1753,-3.1534,-3.1369,-3.1112,-3.1368,-3.1172,-3.0942,-3.1401,-3.1422,-3.163,-3.1839,-3.1941,-3.2348,-3.2981,-3.3258,-3.3419,-3.3738,-3.4086,-3.4268,-3.4349,-3.4333,-3.4497,-3.4497,-3.4562,-3.4595,-3.4824,-3.4775,-3.4841,-3.4627,-3.4643,-3.4677,-3.4857,-3.4726,-3.4644,-2.4533,-2.4803,-2.5438,-2.613,-2.6815,-2.6881,-2.7334,-2.7885,-2.7932,-2.7908,-2.8079,-2.8013,-2.8079,-2.8079,-2.8027,-2.8013,-2.8079,-2.8013,-2.8013,-2.7947,-2.7868,-2.7855,-2.7921,-2.8481,-2.917,-2.9993,-3.0598,-3.1073,-3.1422,-3.1754,-3.1996,-3.194,-3.194,-3.1981,-3.1925,-3.1996,-3.1617,-3.0913,-3.0365,-2.9757,-2.9032,-2.8484,-2.8198,-2.833,-2.8525,-2.8779,-2.9215,-2.973,-3.0006,-3.013,-3.0692,-3.0992,-3.1089,-3.1213,-3.1788,-3.2343,-3.2497,-3.2787,-3.3321,-3.3485,-3.3571,-3.3588,-3.3741,-3.3704,-3.3853,-3.3912,-3.3842,-3.3717,-3.367,-3.3386,-3.2975,-3.3145,-3.3206,-3.2768,-3.3472,-3.3366,-3.2211,-3.196,-3.1667,-3.1148,-3.0922,-3.0881,-3.0784,-3.0642,-3.0558,-3.0507,-3.0481,-3.0547,-3.0547,-3.0803,-3.0777,-3.1034,-3.1434,-3.1951,-3.2613,-3.2823,-3.299,-3.3567,-3.391,-3.4021,-3.4147,-3.418,-3.4314,-3.4363,-3.4429,-3.4446,-3.4626,-3.4754,-3.4866,-3.493,-3.4883,-3.4787,-3.4739,-3.4723,-3.4706,-2.4904,-2.5426,-2.5367,-2.5879,-2.6602,-2.6739,-2.7079,-2.7678,-2.7961,-2.8118,-2.8183,-2.8131,-2.8197,-2.8235,-2.8145,-2.8079,-2.8145,-2.8145,-2.8079,-2.8145,-2.8341,-2.8379,-2.8509,-2.9058,-2.9623,-3.0176,-3.0896,-3.1364,-3.1537,-3.1853,-3.2068,-3.2012,-3.2053,-3.2094,-3.215,-3.215,-3.1619,-3.0828,-3.0587,-2.9878,-2.8989,-2.8695,-2.8636,-2.8732,-2.8967,-2.9273,-2.9661,-3.0326,-3.0716,-3.0757,-3.1038,-3.1274,-3.1346,-3.1423,-3.1581,-3.1769,-3.182,-3.1893,-3.2183,-3.2627,-3.2884,-3.2952,-3.3311,-3.3704,-3.3704,-3.37,-3.342,-3.306,-3.2865,-3.2614,-3.2021,-3.2029,-3.1974,-3.1901,-3.2367,-3.237,-3.1597,-3.1197,-3.1113,-3.0945,-3.0912,-3.0871,-3.0831,-3.0773,-3.0733,-3.0692,-3.0651,-3.0692,-3.0651,-3.0692,-3.0891,-3.0907,-3.124,-3.1707,-3.2101,-3.2328,-3.2706,-3.3305,-3.3532,-3.348,-3.3523,-3.3456,-3.3789,-3.4072,-3.4126,-3.4193,-3.4768,-3.5191,-3.5224,-3.4968,-3.5052,-3.4935,-3.5107,-3.5128,-3.5065,-2.4683,-2.52,-2.5036,-2.5492,-2.6316,-2.6496,-2.6918,-2.7523,-2.7987,-2.8327,-2.8509,-2.8522,-2.8587,-2.8624,-2.8573,-2.8522,-2.8522,-2.8522,-2.8522,-2.8573,-2.8766,-2.8894,-2.9085,-2.9574,-2.9993,-3.0478,-3.1248,-3.1724,-3.1936,-3.2206,-3.2388,-3.2388,-3.2388,-3.2444,-3.2499,-3.2453,-3.1875,-3.0918,-3.0674,-3.0117,-2.8919,-2.8826,-2.8951,-2.9106,-2.938,-2.9705,-3.0284,-3.0821,-3.1117,-3.1157,-3.1274,-3.1406,-3.1479,-3.1555,-3.1538,-3.1538,-3.1576,-3.1631,-3.1682,-3.2042,-3.2231,-3.2316,-3.2711,-3.2848,-3.2848,-3.2899,-3.2642,-3.2338,-3.2248,-3.2059,-3.172,-3.1576,-3.1538,-3.1623,-3.172,-3.1687,-3.1263,-3.1224,-3.1151,-3.1095,-3.1055,-3.1015,-3.0992,-3.0952,-3.0952,-3.0935,-3.0895,-3.0958,-3.0998,-3.1038,-3.1117,-3.1196,-3.1274,-3.1708,-3.1974,-3.2188,-3.2351,-3.2916,-3.3144,-3.3077,-3.3175,-3.3094,-3.3397,-3.3768,-3.3842,-3.4071,-3.4624,-3.4871,-3.4609,-3.4533,-3.4831,-3.4916,-3.4907,-3.5169,-3.5176,-2.4127,-2.4574,-2.4718,-2.5277,-2.5923,-2.6302,-2.6837,-2.7523,-2.8039,-2.8444,-2.8702,-2.8972,-2.8972,-2.9113,-2.8972,-2.9049,-2.9035,-2.8986,-2.9035,-2.9085,-2.9275,-2.9324,-2.954,-2.9946,-3.0418,-3.0896,-3.1682,-3.2079,-3.2358,-3.2664,-3.2858,-3.2788,-3.2843,-3.2819,-3.2625,-3.2694,-3.2076,-3.0986,-3.0723,-3.0127,-2.9203,-2.8998,-2.9152,-2.938,-2.981,-3.0267,-3.0821,-3.1235,-3.1389,-3.1372,-3.1445,-3.1555,-3.1538,-3.1596,-3.1634,-3.1634,-3.1746,-3.1783,-3.1783,-3.1852,-3.1888,-3.1958,-3.1923,-3.1837,-3.2009,-3.2076,-3.2041,-3.1992,-3.1854,-3.1871,-3.18,-3.1691,-3.1654,-3.1651,-3.161,-3.1555,-3.1517,-3.1517,-3.1462,-3.1351,-3.1312,-3.1235,-3.1134,-3.1055,-3.1055,-3.1196,-3.1196,-3.1274,-3.1372,-3.1432,-3.1524,-3.1674,-3.1711,-3.1802,-3.1963,-3.2106,-3.2213,-3.2493,-3.2686,-3.2772,-3.3156,-3.3166,-3.3317,-3.3475,-3.3584,-3.3778,-3.4076,-3.414,-3.4043,-3.4243,-3.4708,-3.4404,-3.4094,-3.4685,-3.4902,-2.4345,-2.4718,-2.4909,-2.5465,-2.6094,-2.6358,-2.6837,-2.7536,-2.7934,-2.8327,-2.8651,-2.878,-2.8972,-2.9113,-2.9135,-2.9113,-2.9107,-2.9079,-2.9162,-2.9352,-2.9477,-2.9713,-2.9931,-3.0332,-3.0807,-3.1291,-3.1936,-3.2327,-3.2492,-3.2648,-3.2881,-3.2819,-3.2716,-3.2654,-3.2259,-3.2269,-3.1741,-3.0703,-3.0545,-3.0148,-2.9513,-2.9321,-2.947,-2.9766,-3.0267,-3.0804,-3.1291,-3.1576,-3.1709,-3.1765,-3.1746,-3.1726,-3.1763,-3.1763,-3.1746,-3.1783,-3.1856,-3.1875,-3.1912,-3.1965,-3.2037,-3.2001,-3.2001,-3.2054,-3.2054,-3.2033,-3.2033,-3.2053,-3.2037,-3.1984,-3.1912,-3.1875,-3.1802,-3.1783,-3.1763,-3.1726,-3.1726,-3.1576,-3.15,-3.1462,-3.1462,-3.144,-3.1385,-3.1385,-3.1423,-3.1428,-3.1504,-3.1579,-3.1711,-3.1841,-3.1967,-3.2127,-3.2197,-3.2266,-3.2369,-3.247,-3.2537,-3.2603,-3.2669,-3.2719,-3.3054,-3.3071,-3.3136,-3.3217,-3.3335,-3.3529,-3.3761,-3.4152,-3.4209,-3.4423,-3.4477,-3.4228,-3.4139,-3.4504,-3.462,-2.455,-2.4921,-2.5052,-2.5394,-2.5886,-2.622,-2.6701,-2.7377,-2.7987,-2.8444,-2.8844,-2.9149,-2.9324,-2.9421,-2.9232,-2.9091,-2.9007,-2.8769,-2.8717,-2.881,-2.899,-2.9301,-2.9668,-3.0203,-3.0735,-3.1399,-3.1974,-3.2206,-3.2304,-3.2311,-3.223,-3.2293,-3.2325,-3.2124,-3.1874,-3.1861,-3.142,-3.0672,-3.0479,-3.019,-2.963,-2.9592,-2.9913,-3.0251,-3.0764,-3.1218,-3.1596,-3.1783,-3.1875,-3.1965,-3.1982,-3.1946,-3.1929,-3.1946,-3.1929,-3.1929,-3.1965,-3.2001,-3.2037,-3.2073,-3.2108,-3.2108,-3.2108,-3.2108,-3.2126,-3.2088,-3.2105,-3.209,-3.2091,-3.2056,-3.2002,-3.1984,-3.1965,-3.1965,-3.1946,-3.1946,-3.191,-3.1763,-3.1614,-3.1559,-3.1596,-3.1614,-3.1651,-3.1709,-3.1783,-3.1821,-3.193,-3.2038,-3.2197,-3.2317,-3.2453,-3.2586,-3.2669,-3.2766,-3.2862,-3.2975,-3.3055,-3.3086,-3.3086,-3.3135,-3.3243,-3.3102,-3.2885,-3.305,-3.3213,-3.321,-3.3455,-3.386,-3.407,-3.3821,-3.3784,-3.3944,-3.407,-3.4196,-3.4269,-2.4766,-2.5111,-2.5123,-2.5324,-2.5594,-2.6025,-2.6496,-2.7162,-2.7894,-2.8495,-2.9044,-2.949,-2.9459,-2.9511,-2.9121,-2.8952,-2.8795,-2.851,-2.831,-2.8353,-2.8627,-2.8926,-2.9304,-2.9873,-3.0555,-3.1536,-3.1756,-3.1887,-3.1934,-3.1785,-3.1771,-3.1678,-3.163,-3.1581,-3.1486,-3.1438,-3.107,-3.0382,-3.033,-3.0199,-2.9733,-2.9826,-3.0241,-3.0764,-3.1123,-3.1466,-3.1728,-3.1912,-3.202,-3.2108,-3.2126,-3.2161,-3.2144,-3.2126,-3.2108,-3.2073,-3.2108,-3.2108,-3.2108,-3.2144,-3.2161,-3.2144,-3.2144,-3.2161,-3.2161,-3.2144,-3.2039,-3.1952,-3.1882,-3.1969,-3.2091,-3.2161,-3.2161,-3.2108,-3.2108,-3.2144,-3.2108,-3.1965,-3.1875,-3.1783,-3.1837,-3.1908,-3.1965,-3.202,-3.2144,-3.2214,-3.2352,-3.2454,-3.2636,-3.2766,-3.2894,-3.2988,-3.3081,-3.3172,-3.3291,-3.3379,-3.3455,-3.3473,-3.3491,-3.3462,-3.3462,-3.3404,-3.3226,-3.306,-3.3108,-3.3172,-3.3252,-3.3517,-3.3512,-3.3178,-3.3304,-3.3651,-3.3777,-3.3826,-3.3944,-2.504,-2.5111,-2.5241,-2.5394,-2.5594,-2.5816,-2.6252,-2.685,-2.7485,-2.8222,-2.8757,-2.8842,-2.8983,-2.9007,-2.8567,-2.8368,-2.8297,-2.8097,-2.8097,-2.8168,-2.8365,-2.8755,-2.9163,-2.9546,-3.0299,-3.0974,-3.1105,-3.1193,-3.1529,-3.1532,-3.1374,-3.1534,-3.1502,-3.1262,-3.0877,-3.0749,-3.0615,-3.0145,-3.0105,-3.0048,-2.9995,-3.0189,-3.0551,-3.1078,-3.1428,-3.1654,-3.1875,-3.2055,-3.2179,-3.2179,-3.2267,-3.2318,-3.2144,-3.2039,-3.2004,-3.2039,-3.1952,-3.19,-3.2057,-3.2214,-3.2336,-3.2354,-3.2266,-3.2266,-3.2266,-3.2231,-3.1793,-3.1477,-3.1389,-3.1564,-3.2144,-3.2196,-3.2284,-3.2249,-3.2266,-3.2283,-3.2301,-3.2335,-3.2301,-3.2214,-3.2249,-3.2284,-3.2335,-3.2401,-3.2535,-3.2684,-3.2798,-3.2894,-3.2988,-3.316,-3.3298,-3.3386,-3.3444,-3.3569,-3.368,-3.377,-3.3842,-3.3815,-3.3788,-3.378,-3.3807,-3.3815,-3.3707,-3.3455,-3.3357,-3.3411,-3.3452,-3.3473,-3.3473,-3.3484,-3.3502,-3.3502,-3.3666,-3.3829,-3.3746,-2.445,-2.4575,-2.4562,-2.4711,-2.4791,-2.5062,-2.5453,-2.6049,-2.6699,-2.7323,-2.7865,-2.819,-2.8406,-2.8483,-2.8167,-2.7806,-2.7518,-2.753,-2.7585,-2.7639,-2.7935,-2.824,-2.8598,-2.8878,-2.9135,-2.936,-2.9418,-3.0066,-3.0895,-3.0778,-3.0744,-3.0741,-3.0757,-3.0593,-3.0441,-3.0405,-3.0254,-2.9973,-3.0027,-3.0113,-3.0199,-3.0518,-3.0965,-3.1312,-3.1637,-3.1912,-3.2055,-3.2214,-3.2074,-3.181,-3.1807,-3.1612,-3.1401,-3.1263,-3.1319,-3.1479,-3.1339,-3.1372,-3.1651,-3.1823,-3.1806,-3.1925,-3.1943,-3.1696,-3.1434,-3.119,-3.1152,-3.0914,-3.0762,-3.1029,-3.1718,-3.1958,-3.2135,-3.2435,-3.2573,-3.2621,-3.2687,-3.277,-3.2752,-3.2702,-3.2654,-3.2705,-3.2719,-3.2844,-3.2983,-3.3124,-3.3262,-3.3339,-3.3368,-3.3502,-3.3633,-3.3671,-3.3726,-3.3762,-3.3868,-3.3947,-3.4023,-3.4023,-3.4023,-3.3998,-3.3972,-3.3972,-3.3921,-3.3762,-3.3753,-3.3698,-3.3726,-3.3734,-3.378,-3.3807,-3.3762,-3.3762,-3.3788,-3.3807,-3.3753,-2.3881,-2.4013,-2.4013,-2.4067,-2.4067,-2.4341,-2.482,-2.5294,-2.6025,-2.6593,-2.7056,-2.7593,-2.7869,-2.7738,-2.7353,-2.689,-2.6505,-2.6557,-2.6608,-2.6711,-2.6985,-2.7368,-2.759,-2.7674,-2.785,-2.8311,-2.8132,-2.8485,-2.9581,-2.962,-2.9556,-2.955,-2.9577,-2.9619,-2.9672,-2.9548,-2.9747,-2.9747,-2.9789,-2.9889,-3.0161,-3.0488,-3.0836,-3.1133,-3.1478,-3.1638,-3.1602,-3.1703,-3.1524,-3.1223,-3.1062,-3.0882,-3.0415,-3.015,-3.0264,-3.0592,-3.0331,-3.0589,-3.0868,-3.1111,-3.1129,-3.1214,-3.1246,-3.0893,-3.0539,-3.037,-3.0172,-3.0261,-3.016,-3.0601,-3.1416,-3.1635,-3.2072,-3.2638,-3.293,-3.3024,-3.3086,-3.3178,-3.3232,-3.3184,-3.3124,-3.3124,-3.3184,-3.323,-3.3367,-3.3447,-3.355,-3.3606,-3.368,-3.3762,-3.386,-3.3887,-3.3921,-3.3947,-3.3998,-3.4023,-3.4074,-3.408,-3.408,-3.4055,-3.4055,-3.403,-3.3979,-3.3972,-3.3972,-3.3947,-3.3972,-3.3947,-3.3921,-3.3921,-3.3972,-3.3972,-3.3921,-3.3921,-3.3913,-2.4079,-2.4186,-2.4173,-2.4198,-2.4124,-2.4295,-2.4655,-2.5027,-2.5774,-2.6539,-2.6726,-2.7116,-2.7078,-2.6785,-2.5973,-2.558,-2.5492,-2.5551,-2.5722,-2.5834,-2.6048,-2.6426,-2.6747,-2.698,-2.7317,-2.7605,-2.764,-2.7867,-2.8306,-2.8266,-2.8298,-2.8412,-2.8478,-2.8338,-2.8624,-2.8657,-2.8256,-2.8362,-2.853,-2.8821,-2.9181,-2.944,-2.9745,-2.9972,-3.0244,-3.0495,-3.063,-3.0779,-3.0614,-3.0472,-3.0415,-3.0362,-3.0185,-2.9597,-2.9349,-2.9531,-2.9849,-3.0327,-3.038,-3.0415,-3.0415,-3.0482,-3.0464,-3.0411,-3.0004,-2.9656,-2.9609,-3.0326,-2.9833,-3.0172,-3.1273,-3.1739,-3.2283,-3.2805,-3.3268,-3.3357,-3.3444,-3.3512,-3.3606,-3.3716,-3.3616,-3.3634,-3.368,-3.3705,-3.3736,-3.3795,-3.3842,-3.3858,-3.381,-3.3795,-3.3808,-3.3778,-3.4043,-3.4124,-3.4124,-3.4148,-3.4124,-3.413,-3.413,-3.413,-3.4124,-3.4124,-3.4148,-3.4148,-3.4148,-3.4124,-3.4099,-3.4074,-3.4023,-3.4049,-3.4099,-3.4074,-3.3998,-3.3998,-3.4049,-2.285,-2.3479,-2.3492,-2.3294,-2.3034,-2.3255,-2.3296,-2.341,-2.4081,-2.4649,-2.5039,-2.548,-2.5689,-2.5725,-2.5316,-2.5232,-2.5188,-2.5224,-2.5364,-2.5523,-2.5757,-2.6137,-2.6567,-2.6656,-2.6823,-2.7025,-2.6928,-2.6678,-2.6989,-2.7611,-2.7987,-2.8056,-2.8089,-2.8227,-2.8053,-2.8207,-2.8256,-2.8351,-2.851,-2.8757,-2.9033,-2.9334,-2.9625,-2.9742,-2.9969,-3.0078,-3.0141,-3.026,-3.0039,-2.9839,-2.9662,-2.9444,-2.9154,-2.8792,-2.8596,-2.8632,-2.8881,-2.926,-2.9621,-2.9692,-2.9757,-2.9805,-2.9751,-2.9603,-2.924,-2.8966,-2.8854,-2.9251,-2.9071,-2.9746,-3.099,-3.1455,-3.2309,-3.2993,-3.3597,-3.3698,-3.3762,-3.3868,-3.3928,-3.4049,-3.4142,-3.4074,-3.4023,-3.4043,-3.4018,-3.3981,-3.3889,-3.3728,-3.3592,-3.3417,-3.3441,-3.3459,-3.3873,-3.4269,-3.4245,-3.4221,-3.4197,-3.4197,-3.4173,-3.4173,-3.4197,-3.4197,-3.4221,-3.4245,-3.4245,-3.4221,-3.4197,-3.4197,-3.4173,-3.4197,-3.4245,-3.4197,-3.4173,-3.4221,-3.4245,-2.1741,-2.2605,-2.2618,-2.2439,-2.2076,-2.2268,-2.2247,-2.2127,-2.2764,-2.3216,-2.3561,-2.4127,-2.4631,-2.4879,-2.484,-2.4695,-2.4737,-2.4921,-2.506,-2.5243,-2.5544,-2.5849,-2.6089,-2.6158,-2.6338,-2.664,-2.6488,-2.6313,-2.6545,-2.6986,-2.7547,-2.7712,-2.7498,-2.7635,-2.7793,-2.7694,-2.7644,-2.7777,-2.8089,-2.8319,-2.8579,-2.8982,-2.9211,-2.9421,-2.9616,-2.9756,-2.9786,-2.9715,-2.9355,-2.91,-2.898,-2.8777,-2.8459,-2.8397,-2.8344,-2.8362,-2.8487,-2.8441,-2.8717,-2.8831,-2.902,-2.9073,-2.9112,-2.8943,-2.8586,-2.8353,-2.8476,-2.8775,-2.8796,-2.9653,-3.075,-3.1364,-3.2294,-3.3191,-3.3921,-3.3998,-3.4037,-3.3957,-3.4067,-3.4269,-3.4316,-3.4363,-3.434,-3.4363,-3.4302,-3.4213,-3.399,-3.3627,-3.3254,-3.2885,-3.3053,-3.3086,-3.3496,-3.4023,-3.4321,-3.4298,-3.425,-3.4245,-3.4245,-3.4221,-3.4221,-3.4221,-3.4245,-3.4269,-3.4316,-3.434,-3.434,-3.434,-3.434,-3.4316,-3.4316,-3.4363,-3.4363,-3.4386,-3.4386,-2.1475,-2.1817,-2.186,-2.1916,-2.189,-2.1959,-2.2073,-2.2096,-2.2684,-2.3144,-2.3469,-2.3889,-2.4153,-2.4295,-2.406,-2.3836,-2.3746,-2.3729,-2.3904,-2.4134,-2.4357,-2.4714,-2.5076,-2.5454,-2.5807,-2.6198,-2.6142,-2.6247,-2.6432,-2.6597,-2.6659,-2.6385,-2.6717,-2.6501,-2.6504,-2.6706,-2.6614,-2.6722,-2.6961,-2.7257,-2.7448,-2.7727,-2.7936,-2.8099,-2.8202,-2.8287,-2.8342,-2.8342,-2.8289,-2.811,-2.8129,-2.8139,-2.7879,-2.7932,-2.7914,-2.7914,-2.795,-2.7789,-2.7647,-2.7942,-2.82,-2.8281,-2.8317,-2.8389,-2.8234,-2.8482,-2.8662,-2.8839,-2.891,-2.9834,-3.0941,-3.175,-3.226,-3.3197,-3.3709,-3.3631,-3.3697,-3.3873,-3.4016,-3.436,-3.4311,-3.4014,-3.3939,-3.3808,-3.4005,-3.3915,-3.3015,-3.2608,-3.2387,-3.2107,-3.2481,-3.2742,-3.3116,-3.362,-3.4236,-3.4307,-3.4344,-3.4316,-3.4311,-3.4269,-3.4221,-3.4245,-3.4293,-3.4358,-3.4381,-3.4427,-3.4473,-3.4473,-3.445,-3.4409,-3.4409,-3.445,-3.4431,-3.4431,-3.4431,-1.9748,-1.9773,-2.006,-2.0643,-2.1437,-2.1478,-2.1432,-2.1367,-2.18,-2.2435,-2.3065,-2.3429,-2.3688,-2.3733,-2.3746,-2.337,-2.3071,-2.3095,-2.3035,-2.2949,-2.3134,-2.3535,-2.3967,-2.4473,-2.4804,-2.5461,-2.5731,-2.6117,-2.6452,-2.6352,-2.6468,-2.6415,-2.6247,-2.6397,-2.6314,-2.5914,-2.5648,-2.5522,-2.5672,-2.594,-2.6173,-2.6408,-2.6579,-2.6702,-2.6772,-2.6823,-2.6849,-2.6849,-2.6849,-2.6903,-2.6946,-2.7025,-2.7061,-2.7069,-2.7094,-2.7094,-2.7112,-2.6878,-2.6702,-2.7002,-2.7281,-2.6985,-2.7277,-2.7727,-2.7863,-2.833,-2.879,-2.9026,-2.9089,-2.9786,-3.1399,-3.1502,-3.1696,-3.2913,-3.3384,-3.324,-3.3243,-3.3377,-3.3398,-3.3513,-3.3272,-3.2974,-3.3012,-3.3068,-3.3362,-3.3521,-3.2486,-3.1645,-3.1441,-3.1349,-3.1686,-3.2248,-3.2678,-3.32,-3.3799,-3.4136,-3.4394,-3.433,-3.4288,-3.4186,-3.4106,-3.4316,-3.4363,-3.4404,-3.4431,-3.4461,-3.4505,-3.4583,-3.4505,-3.4352,-3.4405,-3.4558,-3.4517,-3.4349,-3.4236,-1.8457,-1.8495,-1.8832,-1.9569,-2.055,-2.0653,-2.0555,-2.0347,-2.0677,-2.1333,-2.2161,-2.2513,-2.2786,-2.2929,-2.2969,-2.2802,-2.2469,-2.243,-2.2334,-2.2401,-2.2576,-2.2859,-2.3272,-2.3715,-2.4281,-2.4796,-2.5061,-2.5379,-2.5731,-2.5866,-2.5782,-2.5765,-2.5933,-2.5883,-2.5916,-2.5529,-2.4983,-2.4825,-2.5011,-2.522,-2.5552,-2.5788,-2.5958,-2.6043,-2.6121,-2.6146,-2.6182,-2.6218,-2.6164,-2.6188,-2.6159,-2.6111,-2.6075,-2.6039,-2.6063,-2.6063,-2.6045,-2.5997,-2.5949,-2.626,-2.6523,-2.6368,-2.6658,-2.7053,-2.7369,-2.7889,-2.808,-2.8378,-2.8629,-2.9436,-3.1087,-3.0865,-3.1278,-3.2424,-3.2707,-3.2633,-3.2616,-3.2673,-3.2599,-3.2561,-3.2411,-3.2449,-3.2298,-3.2373,-3.2203,-3.2406,-3.1955,-3.111,-3.0659,-3.064,-3.0829,-3.1467,-3.22,-3.278,-3.3339,-3.3883,-3.4252,-3.3852,-3.3829,-3.3881,-3.3919,-3.4072,-3.4338,-3.4473,-3.448,-3.447,-3.4287,-3.4083,-3.412,-3.4214,-3.4081,-3.3817,-3.359,-3.3364,-3.3515,-1.7917,-1.8414,-1.8596,-1.8911,-1.9356,-1.9336,-1.9466,-1.9651,-1.9822,-2.0295,-2.111,-2.1318,-2.1591,-2.1839,-2.2039,-2.1944,-2.1834,-2.1838,-2.1857,-2.1949,-2.2108,-2.269,-2.3098,-2.3423,-2.3637,-2.416,-2.4418,-2.4563,-2.4715,-2.4884,-2.4799,-2.4746,-2.485,-2.4886,-2.5196,-2.4867,-2.4722,-2.4885,-2.5118,-2.5262,-2.539,-2.5535,-2.559,-2.5619,-2.5601,-2.5571,-2.5553,-2.5553,-2.5535,-2.5553,-2.5636,-2.5659,-2.5695,-2.5778,-2.5837,-2.5891,-2.5991,-2.5719,-2.519,-2.5773,-2.5899,-2.5909,-2.6099,-2.6454,-2.6599,-2.689,-2.7212,-2.7662,-2.7566,-2.8292,-2.9209,-2.9979,-3.0865,-3.1619,-3.1921,-3.1826,-3.1751,-3.1732,-3.16,-3.1542,-3.1921,-3.2204,-3.1921,-3.1638,-3.1223,-3.111,-3.1072,-3.0676,-3.015,-3.0093,-3.0301,-3.0734,-3.1525,-3.2051,-3.2708,-3.3759,-3.4092,-3.3618,-3.3294,-3.3275,-3.3294,-3.3275,-3.3652,-3.4217,-3.4111,-3.3742,-3.3576,-3.3428,-3.3297,-3.3109,-3.2901,-3.2675,-3.2467,-3.2522,-3.2805,-1.7115,-1.7295,-1.7601,-1.7916,-1.8305,-1.9039,-1.9378,-1.9557,-1.9867,-2.0287,-2.074,-2.1058,-2.1344,-2.1545,-2.1599,-2.1497,-2.1296,-2.1333,-2.1391,-2.1044,-2.1393,-2.1609,-2.2037,-2.2522,-2.2903,-2.3421,-2.3739,-2.4083,-2.4543,-2.4354,-2.4455,-2.4472,-2.4054,-2.4003,-2.4122,-2.4059,-2.4078,-2.3807,-2.3932,-2.4171,-2.439,-2.4541,-2.4626,-2.4653,-2.4649,-2.4667,-2.4703,-2.4739,-2.4739,-2.4721,-2.4783,-2.4747,-2.4729,-2.4773,-2.4741,-2.4726,-2.4751,-2.4647,-2.4454,-2.475,-2.4842,-2.5063,-2.5474,-2.5891,-2.6005,-2.6692,-2.6968,-2.7054,-2.7008,-2.7997,-2.9446,-2.9252,-2.9857,-3.0915,-3.1161,-3.0707,-3.0517,-3.0555,-3.0517,-3.0461,-3.0689,-3.086,-3.0765,-3.0918,-3.0634,-3.0464,-3.0466,-3.0373,-2.994,-2.9885,-2.9998,-3.0243,-3.079,-3.1299,-3.1977,-3.2955,-3.3274,-3.2745,-3.2516,-3.2495,-3.2495,-3.2495,-3.2722,-3.3158,-3.3066,-3.2955,-3.275,-3.2506,-3.2089,-3.1842,-3.1788,-3.1921,-3.1996,-3.2128,-3.2411,-1.6483,-1.665,-1.6976,-1.7323,-1.7676,-1.8425,-1.8832,-1.8992,-1.9376,-1.9712,-2.0053,-2.0335,-2.0622,-2.0831,-2.1008,-2.1031,-2.0673,-2.0809,-2.0875,-2.0491,-2.081,-2.1231,-2.15,-2.1694,-2.2298,-2.2794,-2.3001,-2.3274,-2.3562,-2.3693,-2.3718,-2.3607,-2.3488,-2.3412,-2.3443,-2.3475,-2.351,-2.3355,-2.3573,-2.3723,-2.3822,-2.3894,-2.3901,-2.3883,-2.3904,-2.3886,-2.3831,-2.3795,-2.3795,-2.3795,-2.3795,-2.3795,-2.3795,-2.3816,-2.3837,-2.3876,-2.3998,-2.4095,-2.4266,-2.4394,-2.4542,-2.4542,-2.4985,-2.5241,-2.5419,-2.5855,-2.6126,-2.6302,-2.659,-2.7585,-2.8604,-2.8313,-2.9093,-3.017,-3.0476,-3.004,-3.0002,-3.0078,-3.0078,-2.9964,-2.9926,-2.9907,-2.9907,-2.9983,-3.008,-2.9988,-2.9912,-2.9841,-2.9823,-2.9842,-2.9861,-3.0069,-3.0409,-3.0977,-3.1487,-3.2072,-3.2184,-3.1845,-3.1732,-3.1712,-3.1732,-3.175,-3.192,-3.2147,-3.2392,-3.2449,-3.1919,-3.1538,-3.1157,-3.0989,-3.099,-3.1182,-3.1449,-3.1581,-3.1694,-1.6044,-1.6436,-1.6837,-1.7144,-1.7404,-1.7759,-1.7896,-1.7977,-1.8178,-1.8534,-1.8908,-1.9185,-1.9597,-1.9861,-1.9888,-2.004,-2.0198,-2.0343,-2.0469,-2.0626,-2.0925,-2.1262,-2.1526,-2.1797,-2.2091,-2.2219,-2.2389,-2.2598,-2.2429,-2.2751,-2.2801,-2.2801,-2.2944,-2.3007,-2.3119,-2.3203,-2.3274,-2.3354,-2.3499,-2.3656,-2.3765,-2.3792,-2.3813,-2.3795,-2.3795,-2.3795,-2.3795,-2.3795,-2.3795,-2.3795,-2.3795,-2.3795,-2.3795,-2.3816,-2.3837,-2.3939,-2.4115,-2.4248,-2.4391,-2.4512,-2.4613,-2.461,-2.4682,-2.4764,-2.4904,-2.519,-2.5385,-2.5508,-2.5688,-2.6517,-2.7266,-2.7877,-2.8502,-2.9298,-2.9964,-2.9926,-2.9926,-2.9945,-2.9945,-2.9907,-2.9907,-2.9907,-2.9907,-2.9907,-2.9907,-2.9907,-2.9891,-2.9891,-2.9874,-2.9874,-2.9893,-2.995,-3.0347,-3.0803,-3.1202,-3.1392,-3.1298,-3.1034,-3.0959,-3.0941,-3.0959,-3.1016,-3.1129,-3.1411,-3.1958,-3.1918,-3.1252,-3.0701,-3.0246,-3.0173,-3.0402,-3.0423,-3.0727,-3.0536,-3.0517,-1.6044,-1.6436,-1.6693,-1.7015,-1.7446,-1.7774,-1.8016,-1.8123,-1.8214,-1.8475,-1.8822,-1.9072,-1.9384,-1.9726,-1.994,-2.008,-2.022,-2.0357,-2.0543,-2.0761,-2.1038,-2.1356,-2.1617,-2.1857,-2.202,-2.2168,-2.2271,-2.2327,-2.2355,-2.2405,-2.2579,-2.2773,-2.285,-2.3003,-2.3175,-2.3295,-2.3407,-2.3517,-2.3652,-2.3743,-2.3789,-2.3813,-2.3795,-2.3795,-2.3795,-2.3795,-2.3795,-2.3795,-2.3795,-2.3795,-2.3795,-2.3795,-2.3795,-2.3855,-2.3917,-2.4115,-2.4266,-2.4389,-2.4543,-2.4676,-2.4772,-2.4813,-2.4813,-2.4827,-2.4889,-2.4936,-2.4964,-2.5059,-2.547,-2.6418,-2.7323,-2.7972,-2.8654,-2.9393,-2.9869,-2.9907,-2.9907,-2.9907,-2.9907,-2.9907,-2.9907,-2.9907,-2.9907,-2.9907,-2.9907,-2.9907,-2.9907,-2.9907,-2.9907,-2.9924,-2.9907,-2.9964,-3.0059,-3.0461,-3.0366,-3.0481,-3.037,-3.0256,-3.0296,-3.0316,-3.0316,-3.0354,-3.0373,-3.0633,-3.1118,-3.0926,-3.043,-3.0067,-2.9953,-2.9905,-3.0078,-2.9983,-2.9907,-2.9907,-2.9924,-1.538,-1.5716,-1.5923,-1.6501,-1.725,-1.784,-1.8135,-1.8254,-1.8333,-1.8553,-1.8822,-1.9124,-1.9457,-1.9848,-2.0045,-2.0254,-2.0392,-2.0509,-2.0711,-2.0925,-2.1167,-2.1464,-2.1738,-2.1945,-2.2094,-2.2225,-2.2282,-2.2366,-2.2377,-2.2552,-2.2738,-2.297,-2.307,-2.3241,-2.3383,-2.3499,-2.3607,-2.3674,-2.3761,-2.3789,-2.3792,-2.3795,-2.3795,-2.3795,-2.3795,-2.3795,-2.3795,-2.3795,-2.3795,-2.3795,-2.3795,-2.3816,-2.3855,-2.3955,-2.4075,-2.4229,-2.4392,-2.4528,-2.4676,-2.4768,-2.4861,-2.4917,-2.4931,-2.4931,-2.4931,-2.4983,-2.4977,-2.5072,-2.5806,-2.6565,-2.7403,-2.8218,-2.9033,-2.9794,-2.9851,-2.9907,-2.9907,-2.9907,-2.9907,-2.9907,-2.9907,-2.9907,-2.9907,-2.9907,-2.9907,-2.9907,-2.9924,-2.9924,-2.9924,-2.9924,-2.9924,-2.9926,-2.9926,-3.004,-2.9907,-2.9907,-3.0002,-3.0042,-3.0026,-2.999,-2.9822,-2.9931,-3.017,-3.0181,-3.0171,-3.0125,-3.0194,-3.0106,-3.0034,-2.9984,-2.9953,-2.9956,-2.994,-2.9905,-2.9905,-1.4444,-1.4678,-1.4953,-1.5944,-1.7014,-1.7848,-1.8228,-1.8319,-1.8464,-1.8659,-1.8874,-1.9213,-1.9596,-1.9955,-2.02,-2.0373,-2.0494,-2.0644,-2.0843,-2.1119,-2.1325,-2.1617,-2.1886,-2.2106,-2.2209,-2.231,-2.2394,-2.2477,-2.2542,-2.2712,-2.297,-2.3217,-2.3313,-2.3453,-2.3594,-2.366,-2.3743,-2.3807,-2.3807,-2.381,-2.3813,-2.3795,-2.3795,-2.3795,-2.3795,-2.3795,-2.3795,-2.3795,-2.3816,-2.3795,-2.3816,-2.3837,-2.3976,-2.4075,-2.4191,-2.4339,-2.4513,-2.4645,-2.4772,-2.4861,-2.4917,-2.4964,-2.4991,-2.4977,-2.4977,-2.4996,-2.501,-2.5275,-2.592,-2.6698,-2.7532,-2.8521,-2.9412,-2.981,-2.9921,-2.9956,-2.9956,-2.9972,-2.9972,-2.9972,-2.9972,-2.9956,-2.9956,-2.9972,-2.9991,-2.994,-2.9956,-2.9972,-2.9988,-2.9988,-2.9972,-2.9956,-2.9972,-2.9972,-2.9953,-2.9953,-2.9937,-2.994,-2.9921,-2.9921,-2.9937,-2.9988,-3.0053,-3.0094,-3.0133,-3.0185,-3.0218,-3.0166,-3.0133,-3.0109,-3.006,-3.0034,-3.0003,-2.9969,-2.9972,-1.4487,-1.4771,-1.5685,-1.6427,-1.7016,-1.7862,-1.8307,-1.8464,-1.8644,-1.8798,-1.9003,-1.9325,-1.969,-2.0025,-2.027,-2.0475,-2.0644,-2.0761,-2.0958,-2.1214,-2.1481,-2.1768,-2.2061,-2.2237,-2.2338,-2.2432,-2.2515,-2.2649,-2.279,-2.297,-2.3168,-2.3412,-2.3544,-2.3678,-2.3792,-2.3834,-2.3873,-2.3933,-2.3894,-2.3852,-2.3834,-2.3795,-2.3795,-2.3795,-2.3795,-2.3795,-2.3795,-2.3795,-2.3837,-2.3858,-2.3876,-2.3976,-2.4132,-2.419,-2.4321,-2.4497,-2.4613,-2.4738,-2.4846,-2.4936,-2.4964,-2.4977,-2.4991,-2.4991,-2.4991,-2.4991,-2.5162,-2.5484,-2.6072,-2.6887,-2.7702,-2.8749,-2.9637,-2.9823,-2.9972,-3.0022,-3.0038,-3.0038,-3.0038,-3.0038,-3.0038,-3.0038,-3.0038,-3.0038,-3.0053,-3.0053,-3.0064,-3.0079,-3.0094,-3.0109,-3.0109,-3.0094,-3.0064,-3.0064,-3.0045,-3.0045,-3.0045,-3.0049,-3.0049,-3.0049,-3.0045,-3.0104,-3.0174,-3.0228,-3.0267,-3.0279,-3.0311,-3.0273,-3.0248,-3.0215,-3.0188,-3.0147,-3.0138,-3.0104,-3.0079,-1.3815,-1.4138,-1.5402,-1.6163,-1.6653,-1.7646,-1.8268,-1.8517,-1.8721,-1.895,-1.9191,-1.9472,-1.9797,-2.0096,-2.0339,-2.0577,-2.0777,-2.0893,-2.1167,-2.1419,-2.1648,-2.1915,-2.2135,-2.2338,-2.2422,-2.2515,-2.2685,-2.2842,-2.3028,-2.3247,-2.3435,-2.3598,-2.3725,-2.3852,-2.3937,-2.3937,-2.3958,-2.3996,-2.3958,-2.3917,-2.3855,-2.3834,-2.3795,-2.3795,-2.3816,-2.3837,-2.3837,-2.3858,-2.3917,-2.3978,-2.4018,-2.4114,-2.4247,-2.4321,-2.4426,-2.4561,-2.4673,-2.4779,-2.4889,-2.4964,-2.4991,-2.4991,-2.4991,-2.4991,-2.4985,-2.4985,-2.4991,-2.5389,-2.6541,-2.7409,-2.7903,-2.8795,-2.9585,-2.9996,-3.0049,-3.0083,-3.0113,-3.0128,-3.0128,-3.0128,-3.0128,-3.0128,-3.0128,-3.0128,-3.0128,-3.0138,-3.0133,-3.0174,-3.0207,-3.0234,-3.0234,-3.0253,-3.0221,-3.0194,-3.018,-3.018,-3.018,-3.0185,-3.0185,-3.0213,-3.0221,-3.0254,-3.0285,-3.0333,-3.0367,-3.0389,-3.04,-3.0389,-3.0367,-3.0371,-3.0316,-3.0279,-3.0254,-3.0247,-3.0247,-1.298,-1.3326,-1.4683,-1.557,-1.6153,-1.7361,-1.8131,-1.8542,-1.8745,-1.9049,-1.9413,-1.9654,-1.9975,-2.022,-2.0475,-2.0695,-2.0909,-2.1055,-2.1325,-2.1603,-2.1811,-2.2061,-2.2248,-2.2432,-2.2542,-2.2659,-2.2825,-2.3052,-2.3271,-2.344,-2.362,-2.3753,-2.3855,-2.3958,-2.3996,-2.4016,-2.4036,-2.4054,-2.4034,-2.3976,-2.3935,-2.3876,-2.3834,-2.3855,-2.3876,-2.3935,-2.3937,-2.3978,-2.4074,-2.4114,-2.4173,-2.4266,-2.4338,-2.4444,-2.4526,-2.4639,-2.4749,-2.4842,-2.4917,-2.4964,-2.4977,-2.4991,-2.4991,-2.5004,-2.4999,-2.5012,-2.5004,-2.5544,-2.6692,-2.7395,-2.7904,-2.8508,-2.926,-3.0004,-3.0004,-3.0147,-3.0194,-3.0207,-3.0226,-3.0226,-3.0226,-3.0226,-3.0226,-3.0226,-3.0221,-3.0228,-3.0254,-3.0279,-3.0316,-3.0352,-3.0364,-3.0383,-3.0383,-3.0348,-3.033,-3.033,-3.0323,-3.0311,-3.0323,-3.0367,-3.039,-3.0417,-3.0441,-3.0491,-3.0521,-3.0511,-3.0511,-3.0501,-3.0501,-3.0481,-3.046,-3.0409,-3.0356,-3.0344,-3.0386,-1.3012,-1.3261,-1.4246,-1.5138,-1.5985,-1.6965,-1.7849,-1.8616,-1.8869,-1.9199,-1.9426,-1.9823,-2.0185,-2.0373,-2.0592,-2.081,-2.1071,-2.1214,-2.1433,-2.1694,-2.1986,-2.2203,-2.2388,-2.2552,-2.2712,-2.2893,-2.3052,-2.3271,-2.3463,-2.3624,-2.3774,-2.3937,-2.4016,-2.4075,-2.4096,-2.4078,-2.4004,-2.3967,-2.3984,-2.3964,-2.4016,-2.3976,-2.3896,-2.3917,-2.3937,-2.3996,-2.4056,-2.4115,-2.4191,-2.4266,-2.432,-2.4426,-2.4495,-2.4578,-2.4639,-2.4716,-2.4823,-2.4884,-2.4945,-2.4977,-2.4991,-2.5023,-2.5023,-2.5018,-2.5025,-2.5063,-2.5095,-2.5225,-2.6084,-2.6562,-2.7077,-2.7714,-2.8446,-2.9302,-2.9685,-3.0086,-3.0333,-3.0352,-3.034,-3.0348,-3.0355,-3.0355,-3.0355,-3.0348,-3.0352,-3.0375,-3.0409,-3.043,-3.0451,-3.0472,-3.0501,-3.0501,-3.0521,-3.0501,-3.0471,-3.046,-3.046,-3.0449,-3.0449,-3.0471,-3.0501,-3.055,-3.0586,-3.0585,-3.0593,-3.0574,-3.0574,-3.0582,-3.0585,-3.0567,-3.0577,-3.0559,-3.0492,-3.0462,-3.0501]}]]